[[{"header":{"parameterUnit":"m.s-1","parameterCategory":1,"la1":30.6,"la2":29.2853,"lo1":-89.7004,"lo2":-87.6739,"dy":0.0162,"dx":0.0183,"nx":112,"ny":82,"refTime":"2026-04-05T12:00:00:Z","depth":0,"parameterNumber":2,"parameterNumberName":"U-component_of_WINDS"},"data":[0.0,0.0,0.0,0.0,0.0,0.0,0.0,0.0,0.0,0.0,0.0,0.0,0.0,0.0,0.0,0.0,0.0,0.0,0.0,0.0,0.0,0.0,0.0,0.0,0.0,0.0,0.0,0.0,0.0,0.0,0.0,0.0,0.0,0.0,0.0,0.0,0.0,0.0,0.0,0.0,0.0,0.0,0.0,0.0,0.0,0.0,0.0,0.0,0.0,0.0,0.0,0.0,0.0,0.0,0.0,0.0,0.0,0.0,0.0,0.0,0.0,0.0,0.0,0.0,0.0,0.0,0.0,0.0,0.0,0.0,0.0,0.0,0.0,0.0,0.0,0.0,0.0,0.0,0.0,0.0,0.0,0.0,0.0,0.0,0.0,0.0,0.0,0.0,0.0,0.0,0.0,1.6328,1.8471,1.9471,1.8761,1.826,1.723,1.544,0.0,0.0,0.0,0.0,0.0,0.0,0.0,0.0,0.0,0.0,0.0,0.0,0.0,0.0,0.0,0.0,0.0,0.0,0.0,0.0,0.0,0.0,0.0,0.0,0.0,0.0,0.0,0.0,0.0,0.0,0.0,0.0,0.0,0.0,0.0,0.0,0.0,0.0,0.0,0.0,0.0,0.0,0.0,0.0,0.0,0.0,0.0,0.0,0.0,0.0,0.0,0.0,0.0,0.0,0.0,0.0,0.0,0.0,0.0,0.0,0.0,0.0,0.0,0.0,0.0,0.0,0.0,0.0,0.0,0.0,0.0,0.0,0.0,0.0,0.0,0.0,0.0,0.0,0.0,0.0,0.0,0.0,0.0,0.0,0.0,0.0,0.0,0.0,0.0,0.0,0.0,0.0,0.0,0.0,0.0,0.0,0.0,0.0,0.0,0.0,0.0,0.0,0.0,0.0,1.5121,1.7405,1.8908,1.9449,1.876,1.8616,1.7789,1.5999,0.0,0.0,0.0,0.0,0.0,0.0,0.0,0.0,0.0,0.0,0.0,0.0,0.0,0.0,0.0,0.0,0.0,0.0,0.0,0.0,0.0,0.0,0.0,0.0,0.0,0.0,0.0,0.0,0.0,0.0,0.0,0.0,0.0,0.0,0.0,0.0,0.0,0.0,0.0,0.0,0.0,0.0,0.0,0.0,0.0,0.0,0.0,0.0,0.0,0.0,0.0,0.0,0.0,0.0,0.0,0.0,0.0,0.0,0.0,0.0,0.0,0.0,0.0,0.0,0.0,0.0,0.0,0.0,0.0,0.0,0.0,0.0,0.0,0.0,0.0,0.0,0.0,0.0,0.0,0.0,0.0,0.0,0.0,0.0,0.0,0.0,0.0,0.0,0.0,0.0,0.0,0.0,0.0,0.0,0.0,0.0,0.0,0.0,0.0,0.0,0.0,0.0,0.0,1.5152,1.665,1.7712,1.8983,1.9332,1.8462,1.84,1.7624,1.5691,1.3828,0.0,0.0,0.0,0.0,0.0,0.0,0.0,0.0,0.0,0.0,0.0,0.0,0.0,0.0,0.0,0.0,0.0,0.0,0.0,0.0,0.0,0.0,0.0,0.0,0.0,0.0,0.0,0.0,0.0,0.0,0.0,0.0,0.0,0.0,0.0,0.0,0.0,0.0,0.0,0.0,0.0,0.0,0.0,0.0,0.0,0.0,0.0,0.0,0.0,0.0,0.0,0.0,0.0,0.0,0.0,0.0,0.0,0.0,0.0,0.0,0.0,0.0,0.0,0.0,0.0,0.0,0.0,0.0,0.0,0.0,0.0,0.0,0.0,0.0,0.0,0.0,0.0,0.0,0.0,0.0,0.0,0.0,0.0,0.0,0.0,0.0,0.0,0.0,0.0,0.0,0.0,0.0,0.0,0.0,0.0,0.0,0.0,0.0,0.0,0.0,0.0,0.0,1.659,1.7753,1.7733,1.8842,1.9086,1.7946,1.7876,1.7081,1.5119,1.3354,0.0,0.0,0.0,0.0,0.0,0.0,0.0,0.0,0.0,0.0,0.0,0.0,0.0,0.0,0.0,0.0,0.0,0.0,0.0,0.0,0.0,0.0,0.0,0.0,0.0,0.0,0.0,0.0,0.0,0.0,0.0,0.0,0.0,0.0,0.0,0.0,0.0,0.0,0.0,0.0,0.0,0.0,0.0,0.0,0.0,0.0,0.0,0.0,0.0,0.0,0.0,0.0,0.0,0.0,0.0,0.0,0.0,0.0,0.0,0.0,0.0,0.0,0.0,0.0,0.0,0.0,0.0,0.0,0.0,0.0,0.0,0.0,0.0,0.0,0.0,0.0,0.0,0.0,0.0,0.0,0.0,0.0,0.0,0.0,0.0,0.0,0.0,0.0,0.0,0.0,0.0,0.0,0.0,0.0,0.0,0.0,0.0,0.0,0.0,0.0,0.0,0.0,1.6618,1.7497,1.7533,1.8503,1.8604,1.721,1.7019,1.6245,1.4481,1.2437,0.0,0.0,0.0,0.0,0.0,0.0,0.0,0.0,0.0,0.0,0.0,0.0,0.0,0.0,0.0,0.0,0.0,0.0,0.0,0.0,0.0,0.0,0.0,0.0,0.0,0.0,0.0,0.0,0.0,0.0,0.0,0.0,0.0,0.0,0.0,0.0,0.0,0.0,0.0,0.0,0.0,0.0,0.0,0.0,0.0,0.0,0.0,0.0,0.0,0.0,0.0,0.0,0.0,0.0,0.0,0.0,0.0,0.0,0.0,0.0,0.0,0.0,0.0,0.0,0.0,0.0,0.0,0.0,0.0,0.0,0.0,0.0,0.0,0.0,0.0,0.0,0.0,0.0,0.0,0.0,0.0,0.0,0.0,0.0,0.0,0.0,0.0,0.0,0.0,0.0,0.0,0.0,0.0,0.0,0.0,0.0,0.0,0.0,0.0,0.0,0.0,0.0,1.6514,1.7432,0.0,1.8523,1.8647,1.6998,1.7062,1.625,1.4068,0.0,0.0,0.0,0.0,0.0,0.0,0.0,0.0,0.0,0.0,0.0,0.0,0.0,0.0,0.0,0.0,0.0,0.0,0.0,0.0,0.0,0.0,0.0,0.0,0.0,0.0,0.0,0.0,0.0,0.0,0.0,0.0,0.0,0.0,0.0,0.0,0.0,0.0,0.0,0.0,0.0,0.0,0.0,0.0,0.0,0.0,0.0,0.0,0.0,0.0,0.0,0.0,0.0,0.0,0.0,0.0,0.0,0.0,0.0,0.0,0.0,0.0,0.0,0.0,0.0,0.0,0.0,0.0,0.0,0.0,0.0,0.0,0.0,0.0,0.0,0.0,0.0,0.0,0.0,0.0,0.0,0.0,0.0,0.0,0.0,0.0,0.0,0.0,0.0,0.0,0.0,0.0,0.0,0.0,0.0,0.0,0.0,0.0,0.0,0.0,0.0,0.0,1.4657,1.6398,1.7401,0.0,1.8401,1.8497,1.6928,1.6817,1.5887,1.3662,0.0,0.0,0.0,0.0,0.0,0.0,0.0,0.0,0.0,0.0,0.0,0.0,0.0,0.0,0.0,0.0,0.0,0.0,0.0,0.0,0.0,0.0,0.0,0.0,0.0,0.0,0.0,0.0,0.0,0.0,0.0,0.0,0.0,0.0,0.0,0.0,0.0,0.0,0.0,0.0,0.0,0.0,0.0,0.0,0.0,0.0,0.0,0.0,0.0,0.0,0.0,0.0,0.0,0.0,0.0,0.0,0.0,0.0,0.0,0.0,0.0,0.0,0.0,0.0,0.0,0.0,0.0,0.0,0.0,0.0,0.0,0.0,0.0,0.0,0.0,0.0,0.0,0.0,0.0,0.0,0.0,0.0,0.0,0.0,0.0,0.0,0.0,0.0,0.0,0.0,0.0,0.0,0.0,0.0,0.0,0.0,0.0,0.0,0.0,0.0,0.0,0.0,1.4484,1.6256,1.7419,1.7426,1.8197,1.8145,1.6799,1.6173,1.5029,0.0,0.0,0.0,0.0,0.0,0.0,0.0,0.0,0.0,0.0,0.0,0.0,0.0,0.0,0.0,0.0,0.0,0.0,0.0,0.0,0.0,0.0,0.0,0.0,0.0,0.0,0.0,0.0,0.0,0.0,0.0,0.0,0.0,0.0,0.0,0.0,0.0,0.0,0.0,0.0,0.0,0.0,0.0,0.0,0.0,0.0,0.0,0.0,0.0,0.0,0.0,0.0,0.0,0.0,0.0,0.0,0.0,0.0,0.0,0.0,0.0,0.0,0.0,0.0,0.0,0.0,0.0,0.0,0.0,0.0,0.0,0.0,0.0,0.0,0.0,0.0,0.0,0.0,0.0,0.0,0.0,0.0,0.0,0.0,0.0,0.0,0.0,0.0,0.0,0.0,0.0,0.0,0.0,0.0,0.0,0.0,0.0,0.0,0.0,0.0,0.0,0.0,0.0,1.4484,1.6256,1.75,1.7704,1.8503,1.853,1.7305,1.7045,1.6029,1.3928,0.0,0.0,0.0,0.0,0.0,0.0,0.0,0.0,0.0,0.0,0.0,0.0,0.0,0.0,0.0,0.0,0.0,0.0,0.0,0.0,0.0,0.0,0.0,0.0,0.0,0.0,0.0,0.0,0.0,0.0,0.0,0.0,0.0,0.0,0.0,0.0,0.0,0.0,0.0,0.0,0.0,0.0,0.0,0.0,0.0,0.0,0.0,0.0,0.0,0.0,0.0,0.0,0.0,0.0,0.0,0.0,0.0,0.0,0.0,0.0,0.0,0.0,0.0,0.0,0.0,0.0,0.0,0.0,0.0,0.0,0.0,0.0,0.0,0.0,0.0,0.0,0.0,0.0,0.0,0.0,0.0,0.0,0.0,0.0,0.0,0.0,0.0,0.0,0.0,0.0,0.0,0.0,0.0,0.0,0.0,0.0,0.0,0.0,0.0,0.0,0.0,0.0,1.4741,1.6632,1.786,1.8111,1.8689,1.8676,1.7738,1.7514,1.6585,1.4581,0.0,0.0,0.0,0.0,0.0,0.0,0.0,0.0,0.0,0.0,0.0,0.0,0.0,0.0,0.0,0.0,0.0,0.0,0.0,0.0,0.0,0.0,0.0,0.0,0.0,0.0,0.0,0.0,0.0,0.0,0.0,0.0,0.0,0.0,0.0,0.0,0.0,0.0,0.0,0.0,0.0,0.0,0.0,0.0,0.0,0.0,0.0,0.0,0.0,0.0,0.0,0.0,0.0,0.0,0.0,0.0,0.0,0.0,0.0,0.0,0.0,0.0,0.0,0.0,0.0,0.0,0.0,0.0,0.0,0.0,0.0,0.0,0.0,0.0,0.0,0.0,0.0,0.0,0.0,0.0,0.0,0.0,0.0,0.0,0.0,0.0,0.0,0.0,0.0,0.0,0.0,0.0,0.0,0.0,0.0,0.0,0.0,0.0,0.0,0.0,0.0,0.0,1.5201,1.7121,1.8375,1.8531,1.8708,1.8677,1.8199,1.7758,1.6809,1.5174,0.0,0.0,0.0,0.0,0.0,0.0,0.0,0.0,0.0,0.0,0.0,0.0,0.0,0.0,0.0,0.0,0.0,0.0,0.0,0.0,0.0,0.0,0.0,0.0,0.0,0.0,0.0,0.0,0.0,0.0,0.0,0.0,0.0,0.0,0.0,0.0,0.0,0.0,0.0,0.0,0.0,0.0,0.0,0.0,0.0,0.0,0.0,0.0,0.0,0.0,0.0,0.0,0.0,0.0,0.0,0.0,0.0,0.0,0.0,0.0,0.9,0.0,0.0,0.0,0.0,0.0,0.0,0.0,0.0,0.0,0.0,0.0,0.0,0.0,0.0,0.0,0.0,0.0,0.0,0.0,0.0,0.0,0.0,0.0,0.0,0.0,0.0,0.0,0.0,0.0,0.0,0.0,0.0,0.0,0.0,0.0,0.0,0.0,0.0,0.0,0.0,0.0,1.5309,1.7135,1.8423,1.8694,1.8952,1.8972,1.8698,1.8321,1.7473,1.594,1.4516,0.0,0.0,0.0,0.0,0.0,0.0,0.0,0.0,0.0,0.0,0.0,0.0,0.0,0.0,0.0,0.0,0.0,0.0,0.0,0.0,0.0,0.0,0.0,0.0,0.0,0.0,0.0,0.0,0.0,0.0,0.0,0.0,0.0,0.0,0.0,0.0,0.0,0.0,0.0,0.0,0.0,0.0,0.0,0.0,0.0,0.0,0.0,0.0,0.0,0.0,0.0,0.0,0.0,0.0,0.0,0.0,0.0,0.0,0.0,0.0,0.8094,0.0,0.0,0.0,0.0,0.0,0.0,0.0,0.0,0.0,0.0,0.0,0.0,0.0,0.0,0.0,0.0,0.0,0.0,0.0,0.0,0.0,0.0,0.0,0.0,0.0,0.0,0.0,0.0,0.0,0.0,0.0,0.0,0.0,0.0,0.0,0.0,0.0,0.0,0.0,0.0,1.5723,1.7528,1.8762,1.9047,1.9217,1.9217,1.8993,1.864,1.788,1.6592,1.5248,0.0,0.0,0.0,0.0,0.0,0.0,0.0,0.0,0.0,0.0,0.0,0.0,0.0,0.0,0.0,0.0,0.0,0.0,0.0,0.0,0.0,0.0,0.0,0.0,0.0,0.0,0.0,0.0,0.0,0.0,0.0,0.0,0.0,0.0,0.0,0.0,0.0,0.0,0.0,0.0,0.0,0.0,0.0,0.0,0.0,0.0,0.0,0.0,0.0,0.0,0.0,0.0,0.0,0.3317,0.3714,0.4486,0.5422,0.5871,0.5953,0.7173,0.7201,0.6275,0.5277,0.0,0.0,0.0,0.0,0.0,0.0,0.0,0.0,0.0,0.0,0.0,0.0,0.0,0.0,0.0,0.0,0.0,0.0,0.0,0.0,0.0,0.0,0.0,0.0,0.5489,0.5554,0.0,0.0,0.0,0.0,0.0,0.0,0.0,0.0,0.0,0.0,0.0,0.0,1.5538,1.7304,1.8504,1.8859,1.9033,1.9106,1.9072,1.8826,1.8213,1.7202,1.6017,1.4738,0.0,0.0,0.0,0.0,0.0,0.0,0.0,0.0,0.0,0.0,0.0,0.0,0.0,0.0,0.0,0.0,0.0,0.0,0.0,0.0,0.0,0.0,0.0,0.0,0.0,0.0,0.0,0.0,0.0,0.0,0.0,0.0,0.3639,0.4151,0.0,0.0,0.0,0.0,0.0,0.0,0.0,0.0,0.0,0.0,0.0,0.0,0.0,0.3232,0.3436,0.3506,0.3594,0.3656,0.3712,0.4048,0.4669,0.5403,0.5711,0.5753,0.6015,0.0,0.4957,0.3951,0.0,0.0,0.0,0.0,0.0,0.0,0.0,0.0,0.0,0.0,0.0,0.0,0.0,0.0,0.0,0.0,0.0,0.0,0.0,0.0,0.0,0.0,0.395,0.3988,0.4018,0.4076,0.0,0.4992,0.6003,0.6559,0.6841,0.0,0.0,0.0,0.0,0.0,0.0,0.0,1.3507,1.4893,1.6016,1.6808,1.7532,1.8096,1.8566,1.8933,1.8728,1.7868,1.7024,1.6024,1.4799,1.3675,0.0,0.0,0.0,0.0,0.0,0.0,0.0,0.0,0.0,0.0,0.0,0.0,0.0,0.0,0.0,0.0,0.0,0.0,0.0,0.0,0.0,0.0,0.0,0.0,0.0,0.0,0.0,0.0,0.0,0.2751,0.3131,0.3355,0.353,0.3588,0.0,0.0,0.0,0.0,0.0,0.0,0.0,0.0,0.0,0.3489,0.3518,0.3639,0.381,0.3911,0.4003,0.4079,0.4124,0.4289,0.4515,0.4894,0.5002,0.5038,0.5088,0.4944,0.4529,0.3919,0.354,0.336,0.0,0.0,0.0,0.0,0.3195,0.332,0.3399,0.3426,0.342,0.339,0.0,0.0,0.0,0.0,0.0,0.0,0.0,0.0,0.0,0.0,0.3813,0.3784,0.3876,0.3893,0.388,0.4309,0.4886,0.0,0.5756,0.6064,0.664,0.0,0.0,0.0,0.0,1.0222,1.1466,1.2546,1.3676,1.4883,1.6043,1.7141,1.8212,1.9044,1.9223,1.8654,1.7914,1.7046,1.6064,1.5126,1.4183,0.0,0.0,0.0,0.0,0.0,0.0,0.0,0.0,0.0,0.0,0.0,0.0,0.0,0.0,0.0,0.0,0.0,0.0,0.0,0.0,0.0,0.0,0.0,0.0,0.0,0.0,0.0,0.0,0.2725,0.2875,0.2935,0.2957,0.2942,0.0,0.0,0.0,0.0,0.0,0.0,0.3275,0.3393,0.3524,0.361,0.3831,0.3994,0.4152,0.4236,0.4313,0.4458,0.4421,0.4448,0.4477,0.4508,0.454,0.4568,0.4591,0.4553,0.4452,0.4146,0.3915,0.3733,0.3558,0.3517,0.3549,0.3524,0.3596,0.3715,0.3799,0.3835,0.3835,0.3795,0.3674,0.3561,0.3332,0.0,0.0,0.0,0.0,0.3502,0.3645,0.3827,0.3978,0.4003,0.4037,0.4058,0.4043,0.3998,0.4119,0.0,0.4853,0.5163,0.5758,0.0,0.0,0.0,0.0,0.8387,0.9353,1.0143,1.1203,1.2731,1.4111,1.5539,1.6926,1.8052,1.8654,1.8456,1.8024,1.75,1.6862,1.626,1.5404,1.4275,0.0,0.0,0.0,0.0,0.0,0.0,0.0,0.0,0.0,0.0,0.0,0.0,0.0,0.0,0.0,0.0,0.0,0.0,0.0,0.0,0.0,0.0,0.0,0.0,0.0,0.0,0.0,0.0,0.0,0.3246,0.3356,0.0,0.0,0.0,0.0,0.3382,0.3449,0.3555,0.3649,0.3768,0.3887,0.3949,0.4135,0.4242,0.4408,0.4401,0.4448,0.448,0.4512,0.4544,0.4571,0.4602,0.4634,0.4662,0.4665,0.4631,0.4557,0.4465,0.4226,0.4048,0.3954,0.3869,0.3861,0.3861,0.4012,0.4152,0.4277,0.4253,0.4267,0.4208,0.3992,0.3726,0.3572,0.3482,0.0,0.0,0.3656,0.3779,0.3839,0.4043,0.4159,0.4162,0.4208,0.4236,0.4177,0.4137,0.417,0.0,0.4764,0.4998,0.5349,0.0,0.5725,0.6008,0.6336,0.6671,0.721,0.7699,0.8524,0.9948,1.1335,1.2704,1.401,1.5356,1.6194,1.6428,1.6685,1.685,1.6894,1.6916,1.6483,1.5519,1.4665,0.0,0.0,0.0,0.0,0.0,0.0,0.0,0.0,0.0,0.0,0.0,0.0,0.0,0.0,0.0,0.0,0.0,0.0,0.0,0.0,0.0,0.0,0.0,0.0,0.0,0.0,0.0,0.0,0.3551,0.3636,0.0,0.36,0.3558,0.3583,0.3705,0.3842,0.396,0.405,0.417,0.4264,0.4327,0.4407,0.4473,0.4526,0.4546,0.4575,0.4606,0.4616,0.4638,0.4665,0.4676,0.4707,0.4752,0.4736,0.4714,0.4687,0.4596,0.4448,0.4278,0.4184,0.4162,0.418,0.418,0.424,0.4323,0.4365,0.4401,0.4407,0.4309,0.4152,0.3981,0.3869,0.3793,0.3754,0.3806,0.3893,0.3988,0.4048,0.4148,0.4233,0.4233,0.4313,0.4253,0.4211,0.4148,0.4131,0.4212,0.4214,0.4267,0.4366,0.4289,0.4292,0.4438,0.4552,0.4712,0.4955,0.5205,0.5891,0.7284,0.8689,1.0026,1.1405,1.2664,1.3825,1.4745,1.5549,1.6273,1.6916,1.7721,1.7704,1.6659,1.5947,1.493,0.0,0.0,0.0,0.0,0.0,0.0,0.0,0.0,0.0,0.0,0.0,0.0,0.0,0.0,0.0,0.0,0.0,0.0,0.0,0.0,0.0,0.0,0.0,0.0,0.0,0.3405,0.367,0.3799,0.3904,0.3947,0.3898,0.3873,0.3907,0.4016,0.4148,0.4253,0.432,0.4417,0.4488,0.4515,0.4578,0.4624,0.4656,0.4662,0.468,0.477,0.477,0.4714,0.4743,0.4743,0.477,0.4815,0.4784,0.477,0.4767,0.4718,0.4627,0.4512,0.4432,0.4407,0.4414,0.4414,0.4448,0.4495,0.4512,0.4526,0.4519,0.4428,0.4334,0.424,0.4166,0.4103,0.4061,0.4082,0.4121,0.4166,0.4184,0.4233,0.4278,0.4278,0.4278,0.4271,0.424,0.4162,0.4097,0.4011,0.3988,0.3893,0.3813,0.3708,0.3588,0.3677,0.3699,0.3744,0.3835,0.3943,0.4452,0.5654,0.6749,0.7893,0.9012,1.0061,1.118,1.2477,1.3531,1.458,1.5675,1.6795,1.6997,1.616,1.5373,1.4482,1.3324,0.0,0.0,0.0,0.0,0.0,0.0,0.0,0.0,0.0,0.0,0.0,0.0,0.0,0.0,0.0,0.0,0.0,0.0,0.0,0.0,0.0,0.0,0.0,0.316,0.3643,0.3904,0.3994,0.411,0.4173,0.4142,0.4142,0.418,0.4267,0.4354,0.4417,0.4376,0.4431,0.4546,0.4578,0.4634,0.4683,0.4714,0.4743,0.4831,0.4831,0.4831,0.4774,0.4801,0.4801,0.4819,0.4771,0.4815,0.4801,0.4799,0.477,0.4831,0.482,0.4631,0.4602,0.4627,0.4627,0.4647,0.4672,0.4669,0.4651,0.462,0.4589,0.454,0.4484,0.4452,0.4401,0.4422,0.4419,0.433,0.4305,0.4309,0.4309,0.4309,0.4309,0.4313,0.4302,0.4271,0.4197,0.4135,0.4131,0.3974,0.3936,0.3876,0.3842,0.3813,0.3786,0.3888,0.0,0.3904,0.3985,0.4305,0.4972,0.5675,0.6291,0.6875,0.7511,0.8356,0.9571,1.0657,1.1741,1.3032,1.4051,1.4389,1.3912,1.2918,1.2231,1.1819,0.0,0.0,0.0,0.0,0.0,0.0,0.0,0.0,0.0,0.0,0.0,0.0,0.0,0.0,0.0,0.0,0.0,0.0,0.0,0.0,0.0,0.2344,0.2457,0.2735,0.3089,0.3356,0.3381,0.402,0.4421,0.4392,0.441,0.4432,0.4456,0.4522,0.4557,0.454,0.4536,0.4546,0.4578,0.4596,0.4627,0.468,0.4732,0.4831,0.4831,0.4831,0.4774,0.4801,0.4801,0.4819,0.4771,0.4815,0.4801,0.4799,0.477,0.4831,0.4827,0.4795,0.4711,0.4721,0.4721,0.4725,0.4802,0.4707,0.4696,0.4679,0.4627,0.4571,0.4512,0.439,0.4386,0.4316,0.4296,0.4267,0.4249,0.4271,0.4292,0.4316,0.4337,0.4358,0.4361,0.4309,0.4242,0.4184,0.4137,0.4039,0.4061,0.4003,0.3967,0.3949,0.3963,0.396,0.0,0.3998,0.3963,0.4107,0.4305,0.4495,0.4669,0.4823,0.4974,0.5593,0.6838,0.8017,0.9201,1.0371,1.1639,1.2064,1.1447,1.1343,1.1425,0.0,0.0,0.0,0.0,0.0,0.0,0.0,0.0,0.0,0.0,0.0,0.0,0.0,0.0,0.0,0.0,0.0,0.0,0.0,0.0,0.0,0.0,0.1785,0.1788,0.1902,0.264,0.3146,0.3218,0.4006,0.4564,0.4546,0.4585,0.4609,0.4609,0.4651,0.4662,0.462,0.4589,0.4578,0.4596,0.4609,0.4645,0.4777,0.4763,0.4795,0.4795,0.4795,0.4805,0.4819,0.4819,0.483,0.4771,0.483,0.4819,0.4819,0.4801,0.4795,0.0,0.0,0.0,0.0,0.0,0.4831,0.4827,0.4739,0.4725,0.4707,0.4672,0.4613,0.4544,0.4495,0.4401,0.4302,0.4271,0.4225,0.4191,0.4233,0.4267,0.4302,0.4413,0.4379,0.4386,0.4337,0.4271,0.4208,0.4173,0.4146,0.0,0.4099,0.4072,0.405,0.3978,0.4037,0.4041,0.4058,0.4082,0.4097,0.4097,0.4106,0.4097,0.4054,0.3949,0.0,0.0,0.0,0.7326,0.8541,0.9243,0.0,0.0,0.0,0.0,0.0,0.0,0.0,0.0,1.3792,1.4792,0.0,0.0,0.0,0.0,0.0,0.0,0.0,0.0,0.0,0.0,0.0,0.0,0.0,0.0,0.0,0.0,0.1026,0.0772,0.0805,0.2042,0.3029,0.3068,0.3854,0.4344,0.4347,0.4393,0.4422,0.4422,0.4519,0.451,0.4457,0.4351,0.0,0.0,0.0,0.4476,0.4534,0.4589,0.4695,0.4695,0.4771,0.4771,0.4771,0.4771,0.4771,0.4771,0.4771,0.4771,0.4771,0.4771,0.4771,0.4764,0.4788,0.4767,0.4767,0.4767,0.4767,0.4767,0.4763,0.0,0.0,0.4718,0.4658,0.4582,0.4544,0.4432,0.4313,0.4278,0.4208,0.4155,0.4215,0.4253,0.4296,0.4419,0.439,0.4407,0.4372,0.4298,0.424,0.4236,0.4191,0.4159,0.418,0.4159,0.4121,0.4002,0.4079,0.4093,0.4093,0.4137,0.4173,0.4173,0.0,0.0,0.4142,0.4079,0.4197,0.4657,0.5139,0.5869,0.6922,0.6838,0.6735,0.6728,0.7587,0.8454,0.9269,1.0582,1.1814,1.294,1.4857,1.6221,0.0,0.0,0.0,0.0,0.0,0.0,0.0,0.0,0.0,0.0,0.0,0.0,0.0,0.0,0.0,0.0993,0.0876,0.0726,0.0271,0.0979,0.1576,0.1588,0.2261,0.2721,0.2735,0.2743,0.2745,0.2745,0.2749,0.2815,0.2795,0.269,0.2678,0.2693,0.2697,0.2715,0.2751,0.3463,0.3862,0.3862,0.4468,0.0,0.4771,0.4771,0.4771,0.4771,0.4771,0.4771,0.4771,0.4771,0.4771,0.4771,0.4833,0.483,0.483,0.483,0.483,0.4826,0.4801,0.4788,0.4777,0.4728,0.4687,0.4638,0.4557,0.4463,0.0,0.4316,0.4253,0.4215,0.4274,0.4334,0.4383,0.4417,0.4466,0.4491,0.4439,0.4392,0.4358,0.4334,0.4298,0.4267,0.4249,0.4222,0.4191,0.4152,0.4152,0.4148,0.4124,0.4152,0.4173,0.4173,0.4202,0.4204,0.417,0.411,0.4111,0.4167,0.4171,0.4256,0.4426,0.4407,0.4417,0.4447,0.5505,0.666,0.779,0.9077,1.0378,1.1612,1.3978,1.5666,0.0,0.0,0.0,0.0,0.0,0.0,0.0,0.0,0.0,0.0,0.0,0.0603,0.0634,0.0,0.0713,0.0434,0.0456,0.0339,0.0069,0.0356,0.0727,0.1167,0.1913,0.2374,0.2315,0.2321,0.2327,0.2327,0.2327,0.232,0.2379,0.2284,0.2276,0.2282,0.2282,0.2293,0.2315,0.3166,0.3634,0.3634,0.4392,0.4771,0.4771,0.4771,0.4771,0.4771,0.4771,0.4771,0.4771,0.4771,0.4771,0.4771,0.4771,0.4771,0.4771,0.4771,0.4771,0.4768,0.483,0.4815,0.4795,0.475,0.4703,0.4656,0.4578,0.4491,0.441,0.4369,0.4309,0.4278,0.4337,0.4386,0.4432,0.4477,0.4522,0.4544,0.4497,0.4463,0.4435,0.4403,0.4376,0.4352,0.4334,0.432,0.4285,0.4208,0.4184,0.4173,0.4173,0.4187,0.4202,0.4218,0.4247,0.4249,0.4222,0.4148,0.4082,0.4023,0.3947,0.3887,0.3782,0.3806,0.3876,0.3862,0.4738,0.567,0.6642,0.764,0.8645,0.9704,1.1678,1.3934,0.0,0.0,0.0,0.0,0.0,0.0,0.0,-0.0779,-0.0755,-0.0792,-0.084,-0.083,-0.0862,-0.0845,-0.0883,-0.0847,-0.0876,-0.0901,-0.0918,-0.0937,-0.0584,0.0219,0.1255,0.1939,0.1954,0.1964,0.197,0.197,0.197,0.1966,0.1956,0.1871,0.1865,0.1865,0.1865,0.1869,0.1954,0.272,0.3104,0.318,0.3938,0.4316,0.4316,0.4316,0.4316,0.4316,0.4316,0.4316,0.4316,0.4316,0.4316,0.4316,0.4316,0.4316,0.4392,0.4695,0.4771,0.4771,0.4771,0.483,0.4805,0.4767,0.4799,0.4672,0.4606,0.4533,0.4463,0.4435,0.4386,0.4358,0.441,0.4446,0.448,0.4529,0.4564,0.4578,0.4546,0.4519,0.4488,0.4463,0.4432,0.4407,0.4407,0.4403,0.4361,0.4253,0.4215,0.4204,0.4218,0.4222,0.4236,0.4327,0.4292,0.4298,0.4274,0.4202,0.4131,0.4015,0.4048,0.4016,0.3923,0.3929,0.3929,0.3929,0.446,0.5047,0.5562,0.6205,0.6777,0.7396,0.8896,1.1617,-0.1832,-0.2235,-0.2758,-0.3018,-0.3257,-0.3374,0.0,-0.3459,-0.3498,-0.3596,-0.3756,-0.3838,-0.3813,-0.3871,-0.3908,-0.3907,-0.3946,-0.4041,-0.4098,-0.4105,-0.3871,-0.3086,-0.1036,0.0299,0.0302,0.0303,0.0303,0.0303,0.0303,0.0303,0.0303,0.0227,0.0227,0.0227,0.0227,0.0227,0.0303,0.106,0.1439,0.1515,0.2273,0.2651,0.2651,0.2651,0.2651,0.2651,0.2651,0.2651,0.2651,0.2651,0.2651,0.2651,0.2651,0.2651,0.288,0.4241,0.4771,0.4771,0.4771,0.4768,0.4833,0.4774,0.4827,0.4732,0.4645,0.4591,0.4557,0.4526,0.4495,0.4477,0.4508,0.454,0.4564,0.4571,0.4596,0.4609,0.4578,0.4551,0.4526,0.4522,0.4407,0.4369,0.4369,0.4417,0.4376,0.4309,0.4296,0.4274,0.4225,0.4242,0.426,0.4331,0.4292,0.4309,0.4305,0.4271,0.4236,0.4202,0.417,0.4137,0.411,0.4135,0.4148,0.4148,0.4242,0.434,0.4497,0.4571,0.4644,0.4782,0.6255,0.9119,-0.4335,-0.4648,-0.5074,-0.5563,-0.5938,-0.6215,-0.6388,-0.6469,-0.66,-0.6806,-0.6904,-0.6946,-0.6977,-0.7017,-0.706,-0.7092,-0.7133,-0.7181,-0.7306,-0.735,-0.6913,-0.5601,-0.3851,-0.2198,-0.0823,-0.03,0.0,0.0,0.0,0.0,0.0,0.0,0.0,0.0,0.0,0.0,0.0,0.0833,0.1212,0.1212,0.2045,0.2424,0.2424,0.2424,0.2424,0.2424,0.2424,0.2424,0.2424,0.2424,0.2424,0.2424,0.2424,0.2424,0.25,0.3183,0.341,0.341,0.341,0.341,0.3402,0.3433,0.342,0.341,0.3284,0.3552,0.3976,0.3895,0.4243,0.4596,0.4609,0.462,0.4631,0.4631,0.4641,0.4641,0.4609,0.4596,0.4582,0.4564,0.4526,0.4424,0.4424,0.447,0.4435,0.4392,0.4341,0.4305,0.4298,0.4278,0.4271,0.4289,0.4316,0.4337,0.4337,0.4341,0.4323,0.4274,0.426,0.4233,0.4184,0.4193,0.4202,0.4202,0.4247,0.4278,0.4292,0.4327,0.4345,0.4413,0.5458,0.712,-0.6837,-0.7173,-0.7579,-0.8156,-0.8684,-0.9143,-0.9321,-0.945,-0.9602,-0.9799,-0.9824,-0.9905,-0.9953,-0.9954,-1.0049,-1.0214,-1.0328,-1.0458,-1.0558,-1.0631,-1.0037,-0.8303,-0.68,-0.5095,-0.2928,-0.1032,0.0,0.0,0.0,0.0,0.0,0.0,0.0,0.0,0.0,0.0,0.0,0.0606,0.0833,0.0909,0.1439,0.1742,0.1742,0.1742,0.1742,0.1742,0.1742,0.1742,0.1742,0.1742,0.1742,0.1742,0.1742,0.1742,0.1742,0.1742,0.2045,0.2424,0.2424,0.2424,0.2421,0.2393,0.2383,0.2374,0.2348,0.2849,0.3501,0.3501,0.4085,0.4669,0.4669,0.4669,0.4669,0.4669,0.4669,0.4662,0.4641,0.4631,0.4616,0.4596,0.4568,0.4544,0.4533,0.4515,0.4491,0.4459,0.4392,0.4352,0.4365,0.433,0.4309,0.433,0.4354,0.4369,0.4379,0.4392,0.4386,0.4347,0.4337,0.4316,0.4271,0.4267,0.4267,0.4267,0.4313,0.4337,0.4347,0.439,0.441,0.441,0.4983,0.5567,-0.9132,-0.981,-1.0475,-1.097,-1.1589,-1.2075,-1.217,-1.2405,-1.2543,-1.2421,-1.2502,-1.2557,-1.2557,-1.2629,-1.2778,-1.3116,-1.3445,-1.3656,-1.375,-1.3916,-1.3378,-1.1558,-0.9976,-0.8346,-0.666,-0.2598,0.0,0.0,0.0,0.0,0.0,0.0,0.0,0.0,0.0,0.0,0.0,0.0,0.0,0.0,0.0076,0.0076,0.0076,0.0076,0.0076,0.0076,0.0076,0.0076,0.0076,0.0076,0.0076,0.0076,0.0076,0.0076,0.0076,0.0076,0.1061,0.2424,0.2424,0.2424,0.2423,0.2407,0.2392,0.2376,0.2286,0.2859,0.3501,0.3501,0.4085,0.4669,0.4669,0.4669,0.4669,0.4669,0.4669,0.4669,0.4669,0.4645,0.4623,0.4623,0.46,0.4568,0.4536,0.4533,0.4522,0.4491,0.4459,0.4428,0.4403,0.4397,0.4397,0.4397,0.4397,0.441,0.4369,0.4414,0.441,0.4365,0.4414,0.4397,0.4392,0.4392,0.4392,0.4392,0.4397,0.441,0.4369,0.4369,0.4372,0.4372,0.4501,0.4515,-1.1683,-1.25,-1.3308,-1.3973,-1.4601,-1.5168,-1.5363,-1.5599,-1.5765,-1.5633,-1.5423,-1.5283,-1.5423,-1.5463,-1.5642,-1.6119,-1.6612,-1.6906,-1.7026,-1.7166,-1.6541,-1.4618,-1.3071,-1.1389,-0.9502,-0.5425,-0.2948,-0.2985,-0.3037,-0.3146,-0.3159,-0.3174,-0.2953,-0.2423,-0.1893,-0.1364,-0.0833,-0.0303,0.0,0.0,0.0,0.0,0.0,0.0,0.0,0.0,0.0,0.0,0.0,0.0,0.0,0.0,0.0,0.0,0.0,0.0,0.0379,0.0833,0.0833,0.0833,0.0833,0.0827,0.0824,0.0822,0.0816,0.1332,0.1993,0.1984,0.2496,0.308,0.3141,0.3137,0.3137,0.3137,0.3137,0.3137,0.3137,0.3059,0.3054,0.3054,0.3038,0.3094,0.3015,0.3431,0.3919,0.4479,0.4488,0.4432,0.4403,0.4401,0.4401,0.4401,0.4417,0.4432,0.4372,0.4452,0.4452,0.4372,0.4432,0.4421,0.4401,0.4401,0.4401,0.4401,0.4439,0.4463,0.4473,0.4512,0.4533,0.4533,0.4553,0.4568,-1.3305,-1.4276,-1.5108,-1.5738,-1.6375,-1.688,-1.7032,-1.7217,-1.7328,-1.6935,-1.6543,-1.6304,-1.6413,-1.6445,-1.6684,-1.7413,-1.8044,-1.8396,-1.8549,-1.8734,-1.825,-1.6499,-1.523,-1.3794,-1.2143,-0.9276,-0.7108,-0.6059,-0.6106,-0.6203,-0.6416,-0.6473,-0.6052,-0.4919,-0.3859,-0.2726,-0.1667,-0.053,0.0,0.0,0.0,0.0,0.0,0.0,0.0,0.0,0.0,0.0,0.0,0.0,0.0,0.0,0.0,0.0,0.0,0.0,0.0,0.0,0.0,0.0,0.0,0.0,0.0,0.0,0.0,0.0596,0.1188,0.118,0.1767,0.2279,0.2264,0.2334,0.2334,0.2334,0.2334,0.2334,0.2334,0.2334,0.2334,0.2334,0.2325,0.2318,0.2313,0.2945,0.3647,0.4506,0.4529,0.4484,0.4466,0.4463,0.4463,0.4463,0.448,0.4491,0.4491,0.4508,0.4512,0.4491,0.4491,0.4484,0.4463,0.4463,0.4463,0.4463,0.4501,0.4519,0.4519,0.456,0.4578,0.4578,0.4589,0.4606,-1.4151,-1.5081,-1.5985,-1.6449,-1.6864,-1.7217,-1.7201,-1.7288,-1.7213,-1.6418,-1.5869,-1.5559,-1.5734,-1.5761,-1.6083,-1.6994,-1.7875,-1.8424,-1.8369,-1.875,-1.8491,-1.7315,-1.645,-1.5635,-1.4566,-1.3851,-1.2192,-0.9286,-0.9046,-0.9227,-0.9548,-0.9827,-0.9215,-0.7562,-0.5824,-0.4162,-0.2499,-0.0833,0.0,0.0,0.0,0.0,0.0,0.0,0.0,0.0,0.0,0.0,0.0,0.0,0.0,0.0,0.0,0.0,0.0,0.0,0.0,0.0,0.0,0.0,0.0,0.0,0.0,0.0,0.0,0.0523,0.1114,0.1107,0.1621,0.2208,0.2191,0.2188,0.219,0.219,0.219,0.219,0.219,0.2188,0.2188,0.2188,0.2188,0.2183,0.2242,0.2804,0.3579,0.4439,0.451,0.4582,0.4578,0.4578,0.4578,0.4578,0.4578,0.4578,0.4578,0.4578,0.4578,0.4578,0.4578,0.4578,0.4578,0.4578,0.4578,0.4578,0.4578,0.4582,0.4582,0.4582,0.4582,0.4585,0.4613,0.4627,-1.5026,-1.5951,-1.6739,-1.6951,-1.7299,-1.7538,-1.7359,-1.741,-1.7142,-1.6154,-1.5293,-1.4787,-1.4814,-1.4896,-1.5379,-1.6472,-1.7581,-1.8343,-1.8424,-1.8663,-1.8618,-1.8097,-1.766,-1.7214,-1.6747,-1.6368,-1.5983,-1.545,-1.3642,-1.2622,-1.2877,-1.3097,-1.2244,-1.0056,-0.7788,-0.5597,-0.3331,-0.1136,0.0,0.0,0.0,0.0,0.0,0.0,0.0,0.0,0.0,0.0,0.0,0.0,0.0,0.0,0.0,0.0,0.0,0.0,0.0,0.0,0.0,0.0,0.0,0.0,0.0,0.0,0.0,0.0151,0.0301,0.0298,0.0445,0.0592,0.0586,0.0586,0.0588,0.0588,0.0588,0.0588,0.0588,0.0586,0.0584,0.0584,0.0584,0.0802,0.1382,0.1671,0.2249,0.3555,0.3773,0.3979,0.4513,0.4578,0.4578,0.4578,0.4578,0.4578,0.4578,0.4578,0.4578,0.4578,0.4578,0.4578,0.4578,0.4578,0.4578,0.4578,0.46,0.4613,0.4613,0.4634,0.4645,0.4645,0.4656,0.4658,-1.5755,-1.6516,-1.713,-1.7299,-1.7456,-1.7484,-1.719,-1.6924,-1.6445,-1.5418,-1.4407,-1.3776,-1.3988,-1.408,-1.4548,-1.5869,-1.713,-1.7989,-1.8103,-1.8424,-1.8522,-1.8212,-1.806,-1.7908,-1.7723,-1.7625,-1.7668,-1.7864,-1.6496,-1.5842,-1.6146,-1.6445,-1.5344,-1.2556,-0.9821,-0.6349,-0.2044,-0.0682,0.0,0.0,0.0,0.0,0.0,0.0,0.0,0.0,0.0,0.0,0.0,0.0,0.0,0.0,0.0,0.0,0.0,0.0,0.0,0.0,0.0,0.0,0.0,0.0,0.0,0.0,0.0,0.0,0.0,0.0,0.0,0.0,0.0,0.0,0.0,0.0,0.0,0.0,0.0,0.0,0.0,0.0,0.0,0.0292,0.1094,0.1167,0.175,0.3282,0.3501,0.3782,0.4551,0.4616,0.4616,0.4616,0.4616,0.4616,0.4616,0.4616,0.4616,0.4616,0.4616,0.4616,0.4616,0.4616,0.4616,0.4616,0.4634,0.4645,0.4645,0.4672,0.469,0.469,0.4701,0.4707,-1.6385,-1.6907,-1.7299,-1.7427,-1.744,-1.7311,-1.682,-1.6233,-1.5488,-1.4477,-1.333,-1.2645,-1.308,-1.3227,-1.3754,-1.5195,-1.6554,-1.7484,-1.7652,-1.8071,-1.8283,-1.806,-1.8033,-1.7989,-1.7918,-1.8016,-1.8114,-1.8141,-1.8158,-1.8353,-1.8761,-1.9125,-1.7745,-1.4286,-1.1028,-0.65,-0.0379,-0.0227,-0.0076,0.0,0.0,0.0,0.0,0.0,0.0,0.0,0.0,0.0,0.0,0.0,0.0,0.0,0.0,0.0,0.0,0.0,0.0,0.0,0.0,0.0,0.0,0.0,0.0,0.0,0.0,0.0,0.0,0.0,0.0,0.0,0.0,0.0,0.0,0.0,0.0,0.0,0.0,0.0,0.0,0.0,0.0,0.0219,0.0948,0.1021,0.1531,0.2991,0.3209,0.3501,0.445,0.4669,0.4669,0.4669,0.4669,0.4669,0.4669,0.4672,0.4676,0.4676,0.4676,0.4676,0.4676,0.4672,0.4672,0.4676,0.4676,0.4676,0.468,0.4707,0.4721,0.4721,0.4746,0.4831,-1.6978,-1.7342,-1.7609,-1.7554,-1.744,-1.7163,-1.6402,-1.5532,-1.4532,-1.3276,-1.2221,-1.1619,-1.181,-1.2252,-1.306,-1.4461,-1.588,-1.6935,-1.7359,-1.775,-1.7946,-1.7804,-1.7777,-1.7821,-1.7891,-1.8103,-1.8315,-1.8511,-1.8609,-1.8707,-1.8788,-1.9125,-1.7215,-1.2689,-0.9374,-0.5899,-0.2044,-0.1288,-0.0682,0.0,0.0,0.0,0.0,0.0,0.0,0.0,0.0,0.0,0.0,0.0,0.0,0.0,0.0,0.0,0.0,0.0,0.0,0.0,0.0,0.0,0.0,0.0,0.0,0.0,0.0,0.0,0.0,0.0,0.0,0.0,0.0,0.0,0.0,0.0,0.0,0.0,0.0,0.0,0.0,0.0,0.0,0.0073,0.0219,0.0219,0.0511,0.1459,0.1604,0.2115,0.3501,0.4303,0.4669,0.4669,0.4669,0.4669,0.4669,0.4694,0.4707,0.4707,0.4707,0.4707,0.4707,0.4683,0.468,0.4707,0.4707,0.4718,0.4817,0.482,0.475,0.475,0.4827,0.4831,-1.7217,-1.75,-1.7679,-1.7494,-1.7217,-1.6739,-1.5766,-1.4657,-1.3515,-1.2384,-1.1281,-1.0639,-1.1014,-1.1368,-1.2118,-1.3684,-1.5037,-1.6108,-1.6712,-1.7217,-1.7527,-1.7527,-1.7636,-1.7793,-1.7973,-1.8272,-1.8495,-1.8609,-1.8788,-1.8919,-1.8973,-1.8376,-1.6614,-1.3442,-1.0201,-0.6961,-0.3708,-0.2423,-0.1212,0.0,0.0,0.0,0.0,0.0,0.0,0.0,0.0,0.0,0.0,0.0,0.0,0.0,0.0,0.0,0.0,0.0,0.0,0.0,0.0,0.0,0.0,0.0,0.0,0.0,0.0,0.0,0.0,0.0,0.0,0.0,0.0,0.0,0.0,0.0,0.0,0.0,0.0,0.0,0.0,0.0,0.0,0.0,0.0,0.0,0.0294,0.11,0.1176,0.1766,0.33,0.3824,0.4262,0.4672,0.4669,0.4669,0.4669,0.4696,0.4714,0.4714,0.4728,0.4735,0.4735,0.4721,0.4721,0.4735,0.4735,0.4743,0.4831,0.4774,0.4781,0.4781,0.4812,0.4826,-1.7369,-1.7598,-1.7679,-1.7359,-1.688,-1.619,-1.5064,-1.3727,-1.246,-1.1475,-1.0392,-0.9764,-1.0262,-1.0533,-1.1188,-1.2737,-1.4097,-1.5179,-1.5923,-1.6614,-1.7092,-1.7228,-1.7484,-1.775,-1.8016,-1.837,-1.8609,-1.8647,-1.8859,-1.9028,-1.9158,-1.7895,-1.6426,-1.5037,-1.182,-0.8585,-0.5346,-0.3543,-0.1735,0.0,0.0,0.0,0.0,0.0,0.0,0.0,0.0,0.0,0.0,0.0,0.0,0.0,0.0,0.0,0.0,0.0,0.0,0.0,0.0,0.0,0.0,0.0,0.0,0.0,0.0,0.0,0.0,0.0,0.0,0.0,0.0,0.0,0.0,0.0,0.0,0.0,0.0,0.0,0.0,0.0,0.0,0.0,0.0,0.0,0.0223,0.0812,0.0964,0.1485,0.3028,0.3262,0.363,0.462,0.4687,0.4687,0.4687,0.4714,0.4732,0.4732,0.4752,0.4767,0.4767,0.4833,0.4833,0.4767,0.4767,0.477,0.4777,0.4799,0.4815,0.4823,0.4871,0.4895,-1.7625,-1.7793,-1.775,-1.7174,-1.6516,-1.5657,-1.4408,-1.2836,-1.1406,-1.0509,-0.9601,-0.9049,-0.9217,-0.9693,-1.0435,-1.1573,-1.2993,-1.4211,-1.5037,-1.5951,-1.6625,-1.6853,-1.7174,-1.7527,-1.7891,-1.8239,-1.8549,-1.8761,-1.8902,-1.9028,-1.9158,-1.8335,-1.7402,-1.6426,-1.33,-1.0106,-0.691,-0.4536,-0.2234,0.0,0.0,0.0,0.0,0.0,0.0,0.0,0.0,0.0,0.0,0.0,0.0,0.0,0.0,0.0,0.0,0.0,0.0,0.0,0.0,0.0,0.0,0.0,0.0,0.0,0.0,0.0,0.0,0.0,0.0,0.0,0.0,0.0,0.0,0.0,0.0,0.0,0.0,0.0,0.0,0.0,0.0,0.0,0.0,0.0,0.0,0.0074,0.0074,0.0669,0.2303,0.2528,0.3121,0.4601,0.4824,0.4824,0.4824,0.4777,0.4795,0.4795,0.4795,0.4799,0.4799,0.477,0.477,0.4799,0.4799,0.4812,0.4764,0.4764,0.4857,0.4886,0.4889,0.4906,-1.7299,-1.7598,-1.7652,-1.7049,-1.6304,-1.5347,-1.395,-1.2335,-1.0916,-1.0105,-0.9282,-0.8757,-0.8952,-0.9298,-0.9943,-1.0988,-1.2172,-1.3295,-1.4151,-1.5108,-1.5836,-1.6146,-1.6618,-1.6994,-1.7429,-1.7864,-1.8299,-1.8761,-1.8832,-1.8886,-1.893,-1.8716,-1.8426,-1.8084,-1.4903,-1.1713,-0.8602,-0.5719,-0.2823,0.0,0.0,0.0,0.0,0.0,0.0,0.0,0.0,0.0,0.0,0.0,0.0,0.0,0.0,0.0,0.0,0.0,0.0,0.0,0.0,0.0,0.0,0.0,0.0,0.0,0.0,0.0,0.0,0.0,0.0,0.0,0.0,0.0,0.0,0.0,0.0,0.0,0.0,0.0,0.0,0.0,0.0,0.0,0.0,0.0,0.0,0.0,0.0,0.0601,0.2169,0.24,0.3007,0.4662,0.4777,0.4831,0.4831,0.4784,0.4801,0.4801,0.4819,0.483,0.483,0.4837,0.4844,0.4857,0.4875,0.4889,0.4826,0.4826,0.4906,0.492,0.4938,0.4955,-1.682,-1.7288,-1.7456,-1.6782,-1.5951,-1.4928,-1.3482,-1.1884,-1.052,-0.9829,-0.9122,-0.8638,-0.8778,-0.9008,-0.9443,-1.0351,-1.1275,-1.221,-1.3172,-1.4195,-1.4994,-1.545,-1.5914,-1.6358,-1.688,-1.7511,-1.8114,-1.8647,-1.8718,-1.8734,-1.8734,-1.8821,-1.8875,-1.8875,-1.578,-1.2609,-0.9507,-0.635,-0.3179,0.0,0.0,0.0,0.0,0.0,0.0,0.0,0.0,0.0,0.0,0.0,0.0,0.0,0.0,0.0,0.0,0.0,0.0,0.0,0.0,0.0,0.0,0.0,0.0,0.0,0.0,0.0,0.0,0.0,0.0,0.0,0.0,0.0,0.0,0.0,0.0,0.0,0.0,0.0,0.0,0.0,0.0,0.0,0.0,0.0,0.0,0.0,0.0,0.053,0.1883,0.204,0.2651,0.4241,0.4433,0.456,0.4784,0.4801,0.4815,0.4815,0.4837,0.4775,0.4861,0.4882,0.4895,0.4906,0.4927,0.4938,0.4938,0.4938,0.4942,0.4951,0.4973,0.4983,-1.625,-1.6973,-1.7163,-1.6315,-1.5391,-1.4309,-1.2863,-1.133,-1.0074,-0.959,-0.9008,-0.859,-0.859,-0.8727,-0.8967,-0.9421,-1.0204,-1.109,-1.2099,-1.3267,-1.4206,-1.4686,-1.5108,-1.5641,-1.6244,-1.7272,-1.806,-1.8408,-1.8549,-1.862,-1.862,-1.862,-1.862,-1.862,-1.5644,-1.2514,-0.9308,-0.6266,-0.3137,0.0,0.0,0.0,0.0,0.0,0.0,0.0,0.0,0.0,0.0,0.0,0.0,0.0,0.0,0.0,0.0,0.0,0.0,0.0,0.0,0.0,0.0,0.0,0.0,0.0,0.0,0.0,0.0,0.0,0.0,0.0,0.0,0.0,0.0,0.0,0.0,0.0,0.0,0.0,0.0,0.0,0.0,0.0,0.0,0.0,0.0,0.0,0.0,0.0303,0.1136,0.1212,0.1818,0.3407,0.3634,0.3938,0.4695,0.4771,0.4771,0.4771,0.4771,0.4861,0.4893,0.4893,0.4906,0.4938,0.4938,0.4938,0.4938,0.4938,0.4951,0.4983,0.4983,0.4983,-1.501,-1.5684,-1.5978,-1.5293,-1.4461,-1.3504,-1.2314,-1.0917,-0.9802,-0.9443,-0.8948,-0.859,-0.859,-0.8721,-0.8934,-0.9296,-1.0003,-1.0835,-1.1797,-1.296,-1.3955,-1.4602,-1.5532,-1.6304,-1.6739,-1.7456,-1.806,-1.8336,-1.8549,-1.862,-1.862,-1.8109,-1.8103,-1.8548,-1.5644,-1.2514,-0.9308,-0.6262,-0.3137,0.0,0.0,0.0,0.0,0.0,0.0,0.0,0.0,0.0,0.0,0.0,0.0,0.0,0.0,0.0,0.0,0.0,0.0,0.0,0.0,0.0,0.0,0.0,0.0,0.0,0.0,0.0,0.0,0.0,0.0,0.0,0.0,0.0,0.0,0.0,0.0,0.0,0.0,0.0,0.0,0.0,0.0,0.0,0.0,0.0,0.0,0.0,0.0,0.0303,0.1061,0.1212,0.1818,0.3407,0.3634,0.3938,0.4695,0.4864,0.4878,0.4878,0.4895,0.4913,0.4924,0.4945,0.4958,0.4969,0.499,0.5,0.5,0.5,0.5005,0.5014,0.5014,0.5014,-1.3684,-1.4434,-1.4771,-1.4211,-1.3504,-1.2678,-1.16,-1.0484,-0.9601,-0.9206,-0.8861,-0.859,-0.859,-0.8683,-0.8802,-0.9117,-0.9666,-1.0411,-1.1465,-1.2683,-1.3868,-1.4956,-1.5869,-1.6527,-1.6837,-1.7413,-1.7918,-1.8272,-1.8413,-1.8484,-1.8484,-1.7474,-1.689,-1.6813,-1.4365,-1.1564,-0.8439,-0.5683,-0.2844,0.0,0.0,0.0,0.0,0.0,0.0,0.0,0.0,0.0,0.0,0.0,0.0,0.0,0.0,0.0,0.0,0.0,0.0,0.0,0.0,0.0,0.0,0.0,0.0,0.0,0.0,0.0,0.0,0.0,0.0,0.0,0.0,0.0,0.0,0.0,0.0,0.0,0.0,0.0,0.0,0.0,0.0,0.0,0.0,0.0,0.0,0.0,0.0,0.0152,0.0682,0.0758,0.1364,0.2953,0.318,0.364,0.4712,0.4882,0.4895,0.491,0.4927,0.4942,0.4955,0.4973,0.499,0.5,0.5018,0.5029,0.5029,0.5029,0.5029,0.5029,0.5029,0.5029,0.0,-1.3151,-1.3537,-1.3109,-1.2547,-1.1813,-1.0842,-1.0036,0.0,-0.8973,-0.8753,-0.859,-0.859,-0.86,-0.8693,-0.8892,-0.9296,-0.9965,-1.1199,-1.2526,-1.401,-1.5641,-1.6135,-1.6445,-1.6668,-1.7217,-1.7706,-1.8044,-1.8185,-1.8326,-1.8326,-1.6757,-1.5253,-1.3683,-1.2056,-0.9811,-0.683,-0.4585,-0.2257,0.0,0.0,0.0,0.0,0.0,0.0,0.0,0.0,0.0,0.0,0.0,0.0,0.0,0.0,0.0,0.0,0.0,0.0,0.0,0.0,0.0,0.0,0.0,0.0,0.0,0.0,0.0,0.0,0.0,0.0,0.0,0.0,0.0,0.0,0.0,0.0,0.0,0.0,0.0,0.0,0.0,0.0,0.0,0.0,0.0,0.0,0.0,0.0,0.0,0.0,0.0,0.0606,0.2197,0.2424,0.3116,0.474,0.4895,0.491,0.4938,0.4945,0.4955,0.4987,0.4987,0.5,0.5029,0.5029,0.5029,0.5029,0.5029,0.5029,0.5029,0.5029,0.5029,-1.0311,0.0,-1.2188,-1.1792,-1.1357,-1.0822,0.0,-0.9509,-0.8989,-0.8851,-0.8693,-0.859,-0.859,-0.8742,-0.8881,-0.9033,-0.9704,-1.0563,-1.1667,-1.3667,-1.5401,-1.6445,-1.6809,-1.7032,-1.7174,-1.7565,-1.7891,-1.806,-1.8185,-1.8326,-1.8326,-1.6336,-1.4196,-1.2127,-0.9384,-0.7103,-0.5238,-0.3446,-0.1724,0.0,0.0,0.0,0.0,0.0,0.0,0.0,0.0,0.0,0.0,0.0,0.0,0.0,0.0,0.0,0.0,0.0,0.0,0.0,0.0,0.0,0.0,0.0,0.0,0.0,0.0,0.0,0.0,0.0,0.0,0.0,0.0,0.0,0.0,0.0,0.0,0.0,0.0,0.0,0.0,0.0,0.0,0.0,0.0,0.0,0.0,0.0,0.0,0.0,0.0,0.0,0.0606,0.2197,0.2424,0.3044,0.477,0.4927,0.4942,0.4969,0.4994,0.5011,0.5018,0.5018,0.5022,0.5029,0.5029,0.5029,0.5029,0.5029,0.5029,0.5029,0.5029,0.5029,-0.9363,-1.0197,-1.0949,-1.0748,-1.0422,-1.0075,-0.9574,-0.9147,-0.8834,-0.8743,-0.8667,-0.8622,-0.8736,-0.8876,-0.9114,-0.945,-1.0155,-1.1275,-1.3129,-1.4885,-1.6315,-1.7217,-1.744,-1.7538,-1.7598,-1.7793,-1.7935,-1.7989,-1.806,-1.8103,-1.8103,-1.5627,-1.3009,-1.039,-0.7359,-0.5116,-0.3645,-0.2432,-0.1217,0.0,0.0,0.0,0.0,0.0,0.0,0.0,0.0,0.0,0.0,0.0,0.0,0.0,0.0,0.0,0.0,0.0,0.0,0.0,0.0,0.0,0.0,0.0,0.0,0.0,0.0,0.0,0.0,0.0,0.0,0.0,0.0,0.0,0.0,0.0,0.0,0.0,0.0,0.0,0.0,0.0,0.0,0.0,0.0,0.0,0.0,0.0,0.0,0.0,0.0,0.0,0.0609,0.2291,0.2444,0.3144,0.4801,0.4958,0.4973,0.5,0.5018,0.5029,0.5029,0.5029,0.5029,0.5029,0.5029,0.5029,0.5029,0.5029,0.5029,0.5029,0.5029,0.5029,-0.8968,-0.9477,-0.9949,-1.0008,-0.9873,-0.9633,-0.9296,-0.9024,-0.8852,-0.8693,-0.8682,-0.8764,-0.8957,-0.9157,-0.9477,-1.0051,-1.0862,-1.2265,-1.4798,-1.594,-1.6864,-1.7793,-1.7902,-1.7902,-1.7902,-1.7902,-1.7902,-1.7902,-1.7902,-1.7902,-1.7902,-1.5045,-1.2035,-0.9021,-0.6022,-0.3665,-0.1996,-0.1356,-0.0642,0.0,0.0,0.0,0.0,0.0,0.0,0.0,0.0,0.0,0.0,0.0,0.0,0.0,0.0,0.0,0.0,0.0,0.0,0.0,0.0,0.0,0.0,0.0,0.0,0.0,0.0,0.0,0.0,0.0,0.0,0.0,0.0,0.0,0.0,0.0,0.0,0.0,0.0,0.0,0.0,0.0,0.0,0.0,0.0,0.0,0.0,0.0,0.0,0.0,0.0,0.0,0.0613,0.2312,0.2468,0.3171,0.4824,0.4983,0.4998,0.5025,0.5029,0.5029,0.5029,0.5029,0.5029,0.5029,0.5029,0.5029,0.5029,0.5029,0.5029,0.5029,0.5029,0.5029,-0.8816,-0.9233,-0.9639,-0.9943,-0.9992,-0.99,-0.9644,-0.94,-0.9188,-0.9038,-0.9128,-0.9237,-0.9378,-0.9835,-1.0356,-1.0857,-1.2373,-1.4048,-1.5445,-1.6288,-1.7049,-1.7821,-1.7902,-1.7902,-1.7902,-1.7902,-1.7902,-1.7902,-1.7902,-1.7902,-1.7902,-1.5045,-1.2035,-0.9091,-0.6092,-0.316,-0.0352,-0.0211,-0.0141,0.0,0.0,0.0,0.0,0.0,0.0,0.0,0.0,0.0,0.0,0.0,0.0,0.0,0.0,0.0,0.0,0.0,0.0,0.0,0.0,0.0,0.0,0.0,0.0,0.0,0.0,0.0,0.0,0.0,0.0,0.0,0.0,0.0,0.0,0.0,0.0,0.0,0.0,0.0,0.0,0.0,0.0,0.0,0.0,0.0,0.0,0.0,0.0,0.0,0.0,0.0,0.0613,0.2312,0.2468,0.3171,0.4824,0.4983,0.4998,0.5025,0.5029,0.5029,0.5029,0.5029,0.5029,0.5029,0.5029,0.5029,0.5029,0.5029,0.5029,0.5029,0.5029,0.5029,-0.8644,-0.9063,-0.9492,-0.9916,-1.0166,-1.0264,-1.0135,-0.997,-0.9835,-0.9612,-0.9618,-0.9769,-1.0058,-1.0544,-1.1297,-1.2449,-1.3765,-1.4994,-1.6056,-1.6652,-1.7244,-1.7837,-1.7902,-1.7902,-1.7902,-1.7902,-1.7875,-1.7804,-1.7864,-1.7875,-1.7804,-1.5008,-1.2035,-0.9021,-0.6022,-0.3085,0.0,0.0,0.0,0.0,0.0,0.0,0.0,0.0,0.0,0.0,0.0,0.0,0.0,0.0,0.0,0.0,0.0,0.0,0.0,0.0,0.0,0.0,0.0,0.0,0.0,0.0,0.0,0.0,0.0,0.0,0.0,0.0,0.0,0.0,0.0,0.0,0.0,0.0,0.0,0.0,0.0,0.0,0.0,0.0,0.0,0.0,0.0,0.0,0.0,0.0,0.0,0.0,0.0,0.0,0.0617,0.2335,0.2492,0.3199,0.4851,0.5007,0.5014,0.5029,0.5029,0.5029,0.5029,0.5029,0.5029,0.5029,0.5029,0.5029,0.5029,0.5029,0.5029,0.5029,0.5029,0.5018,-0.8475,-0.8899,-0.9372,-0.9824,-1.0269,-1.0585,-1.0525,-1.0574,-1.0574,-1.0356,-1.0384,-1.0525,-1.0802,-1.1401,-1.2281,-1.3884,-1.4798,-1.5613,-1.6402,-1.6924,-1.7386,-1.7804,-1.7891,-1.7902,-1.7902,-1.7902,-1.7848,-1.7734,-1.7837,-1.7848,-1.7723,-1.4985,-1.2035,-0.9021,-0.6022,-0.3085,0.0,0.0,0.0,0.0,0.0,0.0,0.0,0.0,0.0,0.0,0.0,0.0,0.0,0.0,0.0,0.0,0.0,0.0,0.0,0.0,0.0,0.0,0.0,0.0,0.0,0.0,0.0,0.0,0.0,0.0,0.0,0.0,0.0,0.0,0.0,0.0,0.0,0.0,0.0,0.0,0.0,0.0,0.0,0.0,0.0,0.0,0.0,0.0,0.0,0.0,0.0,0.0,0.0,0.0,0.0619,0.2343,0.2503,0.3207,0.4851,0.5014,0.5018,0.5018,0.5025,0.5029,0.5029,0.5029,0.5029,0.5029,0.5029,0.5029,0.5029,0.5029,0.5029,0.5029,0.5029,0.5011,-0.8421,-0.8746,-0.9201,-0.9601,-1.0215,-1.0712,-1.0857,-1.1139,-1.1384,-1.1253,-1.1455,-1.1699,-1.1721,-1.2569,-1.3531,-1.4336,-1.5162,-1.5923,-1.6543,-1.7049,-1.744,-1.7706,-1.7837,-1.7902,-1.7902,-1.7902,-1.7848,-1.7734,-1.7837,-1.7848,-1.7723,-1.4985,-1.2035,-0.9091,-0.6092,-0.3085,0.0,0.0,0.0,0.0,0.0,0.0,0.0,0.0,0.0,0.0,0.0,0.0,0.0,0.0,0.0,0.0,0.0,0.0,0.0,0.0,0.0,0.0,0.0,0.0,0.0,0.0,0.0,0.0,0.0,0.0,0.0,0.0,0.0,0.0,0.0,0.0,0.0,0.0,0.0,0.0,0.0,0.0,0.0,0.0,0.0,0.0,0.0,0.0,0.0,0.0,0.0,0.0,0.0,0.0,0.0613,0.2316,0.2472,0.3167,0.479,0.4969,0.4987,0.4987,0.5014,0.5029,0.5029,0.5029,0.5029,0.5029,0.5029,0.5029,0.5029,0.5029,0.5029,0.5029,0.5029,0.5011,-0.8459,-0.8681,-0.9071,-0.9465,-1.015,-1.0825,-1.1323,-1.1868,-1.2265,-1.2416,-1.2618,-1.2792,-1.2666,-1.3289,-1.4026,-1.4727,-1.5472,-1.6179,-1.6782,-1.7147,-1.744,-1.7696,-1.7766,-1.7821,-1.7891,-1.7902,-1.7821,-1.7625,-1.7793,-1.7821,-1.7625,-1.4949,-1.2075,-0.9105,-0.6055,-0.3065,0.0,0.0,0.0,0.0,0.0,0.0,0.0,0.0,0.0,0.0,0.0,0.0,0.0,0.0,0.0,0.0,0.0,0.0,0.0,0.0,0.0,0.0,0.0,0.0,0.0,0.0,0.0,0.0,0.0,0.0,0.0,0.0,0.0,0.0,0.0,0.0,0.0,0.0,0.0,0.0,0.0,0.0,0.0,0.0,0.0,0.0,0.0,0.0,0.0,0.0,0.0,0.0,0.0,0.0,0.046,0.162,0.2622,0.3471,0.4088,0.4655,0.4983,0.4983,0.5011,0.5029,0.5029,0.5029,0.5029,0.5029,0.5029,0.5029,0.5029,0.5029,0.5018,0.5,0.5,0.4973,-0.8481,-0.8616,-0.8946,-0.934,-1.0117,-1.0971,-1.1851,-1.2531,-1.3069,-1.3352,-1.3597,-1.37,-1.3504,-1.3896,-1.4417,-1.4892,-1.5641,-1.6304,-1.6864,-1.719,-1.748,-1.7581,-1.7636,-1.7696,-1.7777,-1.7793,-1.7706,-1.7494,-1.7668,-1.7723,-1.7486,-1.5101,-1.2439,-0.9732,-0.673,-0.3748,-0.069,-0.0485,-0.0209,0.0,0.0,0.0,0.0,0.0,0.0,0.0,0.0,0.0,0.0,0.0,0.0,0.0,0.0,0.0,0.0,0.0,0.0,0.0,0.0,0.0,0.0,0.0,0.0,0.0,0.0,0.0,0.0,0.0,0.0,0.0,0.0,0.0,0.0,0.0,0.0,0.0,0.0,0.0,0.0,0.0,0.0,0.0,0.0,0.0,0.0,0.0,0.0,0.0,0.0,0.0,0.0305,0.115,0.2684,0.3682,0.3682,0.4475,0.4955,0.4955,0.4983,0.5007,0.5029,0.5018,0.5018,0.5029,0.5018,0.5014,0.5014,0.5005,0.499,0.4969,0.4969,0.4942,-0.8486,-0.86,-0.8901,-0.9226,-1.0128,-1.121,-1.2239,-1.3091,-1.3716,-1.4026,-1.4347,-1.4407,-1.4086,-1.4265,-1.4629,-1.4925,-1.5641,-1.6277,-1.675,-1.713,-1.7426,-1.7426,-1.7467,-1.747,-1.747,-1.747,-1.7484,-1.7437,-1.7467,-1.747,-1.747,-1.5526,-1.3391,-1.1099,-0.8198,-0.5272,-0.2177,-0.1448,-0.0761,0.0,0.0,0.0,0.0,0.0,0.0,0.0,0.0,0.0,0.0,0.0,0.0,0.0,0.0,0.0,0.0,0.0,0.0,0.0,0.0,0.0,0.0,0.0,0.0,0.0,0.0,0.0,0.0,0.0,0.0,0.0,0.0,0.0,0.0,0.0,0.0,0.0,0.0,0.0,0.0,0.0,0.0,0.0,0.0,0.0,0.0,0.0,0.0,0.0,0.0,0.0,0.0303,0.1136,0.265,0.3558,0.3558,0.4418,0.4893,0.4893,0.492,0.4966,0.5025,0.5,0.4998,0.5029,0.4998,0.4983,0.4983,0.4951,0.4938,0.4938,0.4938,0.492,-0.8992,-0.9155,-0.9443,-1.0139,-1.0998,-1.1933,-1.2928,-1.3651,-1.4347,-1.5163,-1.532,-1.5124,-1.473,-1.4814,-1.5037,-1.5093,-1.5771,-1.6375,-1.6766,-1.706,-1.7272,-1.741,-1.7453,-1.744,-1.7527,-1.747,-1.7484,-1.7437,-1.7467,-1.7494,-1.7413,-1.5888,-1.4252,-1.2516,-0.9639,-0.6699,-0.3671,-0.2459,-0.1233,0.0,0.0,0.0,0.0,0.0,0.0,0.0,0.0,0.0,0.0,0.0,0.0,0.0,0.0,0.0,0.0,0.0,0.0,0.0,0.0,0.0,0.0,0.0,0.0,0.0,0.0,0.0,0.0,0.0,0.0,0.0,0.0,0.0,0.0,0.0,0.0,0.0,0.0,0.0,0.0,0.0,0.0,0.0,0.0,0.0,0.0,0.0,0.0,0.0,0.0,0.0,0.0076,0.0303,0.1818,0.2728,0.2728,0.4036,0.4893,0.4893,0.49,0.4924,0.4962,0.4976,0.4976,0.4966,0.4976,0.4973,0.4951,0.4942,0.4927,0.4906,0.4906,0.4889,-0.9111,-0.9465,-0.9911,-1.0802,-1.1797,-1.2884,-1.4085,-1.4657,-1.5124,-1.5907,-1.5923,-1.5657,-1.5222,-1.5304,-1.5434,-1.5434,-1.5907,-1.6413,-1.6766,-1.6989,-1.7163,-1.7272,-1.7288,-1.7315,-1.7397,-1.7397,-1.7369,-1.7299,-1.7359,-1.7386,-1.7426,-1.6268,-1.5098,-1.3914,-1.1081,-0.8147,-0.5186,-0.3458,-0.177,0.0,0.0,0.0,0.0,0.0,0.0,0.0,0.0,0.0,0.0,0.0,0.0,0.0,0.0,0.0,0.0,0.0,0.0,0.0,0.0,0.0,0.0,0.0,0.0,0.0,0.0,0.0,0.0,0.0,0.0,0.0,0.0,0.0,0.0,0.0,0.0,0.0,0.0,0.0,0.0,0.0,0.0,0.0,0.0,0.0,0.0,0.0,0.0,0.0,0.0,0.0,0.0,0.0,0.1439,0.2424,0.2424,0.3875,0.4875,0.4875,0.4875,0.4882,0.4823,0.4931,0.4945,0.4938,0.4945,0.4938,0.492,0.4906,0.4893,0.4875,0.4875,0.4864,-0.9,-0.9612,-1.0346,-1.1395,-1.2607,-1.4015,-1.5537,-1.588,-1.5958,-1.6233,-1.6217,-1.6037,-1.57,-1.5738,-1.5871,-1.5871,-1.6092,-1.6429,-1.6766,-1.6918,-1.7049,-1.7163,-1.719,-1.719,-1.719,-1.719,-1.719,-1.719,-1.719,-1.7228,-1.741,-1.6669,-1.5945,-1.531,-1.2516,-0.9638,-0.6655,-0.4455,-0.2236,0.0,0.0,0.0,0.0,0.0,0.0,0.0,0.0,0.0,0.0,0.0,0.0,0.0,0.0,0.0,0.0,0.0,0.0,0.0,0.0,0.0,0.0,0.0,0.0,0.0,0.0,0.0,0.0,0.0,0.0,0.0,0.0,0.0,0.0,0.0,0.0,0.0,0.0,0.0,0.0,0.0,0.0,0.0,0.0,0.0,0.0,0.0,0.0,0.0,0.0,0.0,0.0,0.0,0.1439,0.2424,0.2424,0.3862,0.4771,0.4771,0.4771,0.4771,0.4771,0.4875,0.4902,0.4927,0.4906,0.4893,0.4889,0.4861,0.4771,0.4771,0.4771,0.4771,-0.9504,-1.0269,-1.1047,-1.239,-1.3852,-1.5162,-1.5896,-1.6119,-1.6217,-1.6402,-1.6418,-1.6347,-1.6163,-1.6233,-1.6288,-1.619,-1.6385,-1.6533,-1.6603,-1.6864,-1.7021,-1.7049,-1.713,-1.719,-1.719,-1.719,-1.719,-1.719,-1.719,-1.7201,-1.7217,-1.7094,-1.6945,-1.6779,-1.3946,-1.104,-0.8176,-0.5452,-0.2697,0.0,0.0,0.0,0.0,0.0,0.0,0.0,0.0,0.0,0.0,0.0,0.0,0.0,0.0,0.0,0.0,0.0,0.0,0.0,0.0,0.0,0.0,0.0,0.0,0.0,0.0,0.0,0.0,0.0,0.0,0.0,0.0,0.0,0.0,0.0,0.0,0.0,0.0,0.0,0.0,0.0,0.0,0.0,0.0,0.0,0.0,0.0,0.0,0.0,0.0,0.0,0.0,0.0,0.1439,0.2424,0.2424,0.3862,0.4771,0.4771,0.4771,0.4771,0.4771,0.4875,0.4886,0.4792,0.4882,0.4882,0.4857,0.4775,0.4771,0.4771,0.4771,0.4771,-0.9541,-1.0541,-1.1721,-1.3624,-1.4885,-1.5738,-1.6108,-1.6288,-1.6402,-1.652,-1.6472,-1.6456,-1.6385,-1.6429,-1.6456,-1.6385,-1.6483,-1.6581,-1.6625,-1.675,-1.688,-1.6989,-1.706,-1.7119,-1.719,-1.719,-1.719,-1.719,-1.719,-1.719,-1.719,-1.719,-1.719,-1.719,-1.4375,-1.1485,-0.8661,-0.5715,-0.2827,0.0,0.0,0.0,0.0,0.0,0.0,0.0,0.0,0.0,0.0,0.0,0.0,0.0,0.0,0.0,0.0,0.0,0.0,0.0,0.0,0.0,0.0,0.0,0.0,0.0,0.0,0.0,0.0,0.0,0.0,0.0,0.0,0.0,0.0,0.0,0.0,0.0,0.0,0.0,0.0,0.0,0.0,0.0,0.0,0.0,0.0,0.0,0.0,0.0,0.0,0.0,0.0,0.0,0.1439,0.2424,0.2424,0.3862,0.4771,0.4771,0.4771,0.4771,0.4771,0.4861,0.4864,0.4771,0.4861,0.4864,0.4771,0.4771,0.4771,0.4771,0.4771,0.4771,-0.9403,-1.0813,-1.2477,-1.4684,-1.5586,-1.6005,-1.6233,-1.6385,-1.6472,-1.6472,-1.6472,-1.6472,-1.6472,-1.6472,-1.6472,-1.6472,-1.6472,-1.65,-1.6597,-1.656,-1.6712,-1.6918,-1.6962,-1.7021,-1.7119,-1.713,-1.713,-1.713,-1.7147,-1.7163,-1.7163,-1.7174,-1.719,-1.719,-1.4375,-1.1485,-0.8661,-0.5715,-0.2827,0.0,0.0,0.0,0.0,0.0,0.0,0.0,0.0,0.0,0.0,0.0,0.0,0.0,0.0,0.0,0.0,0.0,0.0,0.0,0.0,0.0,0.0,0.0,0.0,0.0,0.0,0.0,0.0,0.0,0.0,0.0,0.0,0.0,0.0,0.0,0.0,0.0,0.0,0.0,0.0,0.0,0.0,0.0,0.0,0.0,0.0,0.0,0.0,0.0,0.0,0.0,0.0,0.0,0.1439,0.2424,0.2424,0.3862,0.4771,0.4771,0.4771,0.4771,0.4771,0.4771,0.4771,0.4771,0.4771,0.4771,0.4771,0.4771,0.4771,0.4771,0.4771,0.4771,-0.9381,-1.1547,-1.3776,-1.4923,-1.5657,-1.6119,-1.626,-1.6385,-1.6472,-1.6472,-1.6472,-1.6472,-1.6472,-1.6472,-1.6472,-1.6472,-1.6472,-1.6472,-1.6483,-1.6581,-1.6587,-1.6679,-1.6782,-1.6853,-1.6864,-1.6864,-1.6864,-1.6864,-1.6962,-1.7032,-1.7032,-1.713,-1.719,-1.719,-1.4375,-1.1485,-0.8661,-0.5715,-0.2827,0.0,0.0,0.0,0.0,0.0,0.0,0.0,0.0,0.0,0.0,0.0,0.0,0.0,0.0,0.0,0.0,0.0,0.0,0.0,0.0,0.0,0.0,0.0,0.0,0.0,0.0,0.0,0.0,0.0,0.0,0.0,0.0,0.0,0.0,0.0,0.0,0.0,0.0,0.0,0.0,0.0,0.0,0.0,0.0,0.0,0.0,0.0,0.0,0.0,0.0,0.0,0.0,0.0,0.1439,0.2424,0.2424,0.3862,0.4771,0.4771,0.4771,0.4771,0.4771,0.4771,0.4771,0.4771,0.4771,0.4771,0.4771,0.4771,0.4771,0.4771,0.4771,0.4771,-1.021,-1.2145,-1.3863,-1.5026,-1.5657,-1.6021,-1.6076,-1.6233,-1.6375,-1.6375,-1.6429,-1.6472,-1.6472,-1.6472,-1.6509,-1.6385,-1.6375,-1.6347,-1.6277,-1.6304,-1.6375,-1.6429,-1.6483,-1.6554,-1.6625,-1.6625,-1.6652,-1.6712,-1.6766,-1.6864,-1.6989,-1.706,-1.7092,-1.7092,-1.435,-1.146,-0.8488,-0.5646,-0.28,0.0,0.0,0.0,0.0,0.0,0.0,0.0,0.0,0.0,0.0,0.0,0.0,0.0,0.0,0.0,0.0,0.0,0.0,0.0,0.0,0.0,0.0,0.0,0.0,0.0,0.0,0.0,0.0,0.0,0.0,0.0,0.0,0.0,0.0,0.0,0.0,0.0,0.0,0.0,0.0,0.0,0.0,0.0,0.0,0.0,0.0,0.0,0.0,0.0,0.0,0.0,0.0,0.0,0.1439,0.2424,0.2424,0.3862,0.4771,0.4771,0.4771,0.4771,0.4771,0.4771,0.4771,0.4771,0.4771,0.4771,0.4771,0.4771,0.4771,0.4771,0.4771,0.4771,-1.0565,-1.2098,-1.3385,-1.4548,-1.5222,-1.563,-1.5684,-1.5907,-1.6146,-1.626,-1.6331,-1.6402,-1.652,-1.6472,-1.6429,-1.6304,-1.6288,-1.6244,-1.6119,-1.6108,-1.6146,-1.6277,-1.6288,-1.6331,-1.652,-1.6445,-1.6472,-1.6581,-1.6597,-1.6695,-1.6907,-1.6935,-1.6962,-1.6962,-1.4241,-1.1365,-0.8412,-0.487,-0.2048,0.0,0.0,0.0,0.0,0.0,0.0,0.0,0.0,0.0,0.0,0.0,0.0,0.0,0.0,0.0,0.0,0.0,0.0,0.0,0.0,0.0,0.0,0.0,0.0,0.0,0.0,0.0,0.0,0.0,0.0,0.0,0.0,0.0,0.0,0.0,0.0,0.0,0.0,0.0,0.0,0.0,0.0,0.0,0.0,0.0,0.0,0.0,0.0,0.0,0.0,0.0,0.0,0.0,0.1288,0.2121,0.2121,0.3558,0.4468,0.4468,0.4695,0.4771,0.4771,0.4771,0.4771,0.4771,0.4771,0.4771,0.4771,0.4771,0.4771,0.4771,0.4771,0.4771,-0.9851,-1.115,-1.2417,-1.3162,-1.4048,-1.4798,-1.4979,-1.5363,-1.5738,-1.619,-1.6206,-1.619,-1.6429,-1.6472,-1.6429,-1.6304,-1.6288,-1.6244,-1.6119,-1.6108,-1.6146,-1.6277,-1.6288,-1.6331,-1.652,-1.6375,-1.6347,-1.6472,-1.6483,-1.6527,-1.6587,-1.6766,-1.6837,-1.6837,-1.4084,-1.1252,-0.8412,-0.2963,-0.0132,0.0,0.0,0.0,0.0,0.0,0.0,0.0,0.0,0.0,0.0,0.0,0.0,0.0,0.0,0.0,0.0,0.0,0.0,0.0,0.0,0.0,0.0,0.0,0.0,0.0,0.0,0.0,0.0,0.0,0.0,0.0,0.0,0.0,0.0,0.0,0.0,0.0,0.0,0.0,0.0,0.0,0.0,0.0,0.0,0.0,0.0,0.0,0.0,0.0,0.0,0.0,0.0,0.0,0.0758,0.1288,0.1288,0.2726,0.3635,0.3635,0.4392,0.4771,0.4771,0.4771,0.4771,0.4771,0.4771,0.4771,0.4771,0.4771,0.4771,0.4771,0.4771,0.4771,-0.9114,-1.0215,-1.1368,-1.2129,-1.3047,-1.3857,-1.4249,-1.4869,-1.5434,-1.5771,-1.6037,-1.6233,-1.6233,-1.6358,-1.6429,-1.6304,-1.6288,-1.6217,-1.6021,-1.5994,-1.6005,-1.6048,-1.6048,-1.6108,-1.6217,-1.6135,-1.6108,-1.6233,-1.6173,-1.6244,-1.6516,-1.657,-1.6625,-1.6695,-1.3974,-1.0298,-0.5716,-0.1884,0.0,0.0,0.0,0.0,0.0,0.0,0.0,0.0,0.0,0.0,0.0,0.0,0.0,0.0,0.0,0.0,0.0,0.0,0.0,0.0,0.0,0.0,0.0,0.0,0.0,0.0,0.0,0.0,0.0,0.0,0.0,0.0,0.0,0.0,0.0,0.0,0.0,0.0,0.0,0.0,0.0,0.0,0.0,0.0,0.0,0.0,0.0,0.0,0.0,0.0,0.0,0.0,0.0,0.0,0.0758,0.1212,0.1212,0.265,0.3634,0.3634,0.4392,0.4771,0.4771,0.4771,0.4771,0.4771,0.483,0.4826,0.4771,0.4771,0.4771,0.4771,0.4771,0.4771,-0.847,-0.9318,-1.0242,-1.0927,-1.1846,-1.2705,-1.3183,-1.401,-1.4787,-1.5195,-1.563,-1.5951,-1.6037,-1.6146,-1.625,-1.6288,-1.6288,-1.6217,-1.6005,-1.5978,-1.5994,-1.6037,-1.6048,-1.6092,-1.6217,-1.6119,-1.6108,-1.6217,-1.6119,-1.6173,-1.6456,-1.6472,-1.6121,-1.5219,-1.251,-0.8797,-0.4128,-0.1355,0.0,0.0,0.0,0.0,0.0,0.0,0.0,0.0,0.0,0.0,0.0,0.0,0.0,0.0,0.0,0.0,0.0,0.0,0.0,0.0,0.0,0.0,0.0,0.0,0.0,0.0,0.0,0.0,0.0,0.0,0.0,0.0,0.0,0.0,0.0,0.0,0.0,0.0,0.0,0.0,0.0,0.0,0.0,0.0,0.0,0.0,0.0,0.0,0.0,0.0,0.0,0.0,0.0,0.0,0.0455,0.0833,0.0833,0.2045,0.2801,0.2801,0.3787,0.4392,0.4392,0.4619,0.4768,0.4833,0.4812,0.4805,0.4815,0.4815,0.4822,0.4833,0.4833,0.4837,0.0,0.0,0.0,-0.9573,-1.0468,-1.134,-1.1824,-1.2781,-1.377,-1.4544,-1.4956,-1.5363,-1.5836,-1.5842,-1.588,-1.6217,-1.6277,-1.6233,-1.6108,-1.6092,-1.6146,-1.626,-1.6277,-1.6331,-1.6456,-1.6358,-1.6347,-1.6456,-1.6358,-1.6331,-1.652,-1.6472,-1.5247,-1.2488,-0.965,-0.6888,-0.4128,-0.1355,0.0,0.0,0.0,0.0,0.0,0.0,0.0,0.0,0.0,0.0,0.0,0.0,0.0,0.0,0.0,0.0,0.0,0.0,0.0,0.0,0.0,0.0,0.0,0.0,0.0,0.0,0.0,0.0,0.0,0.0,0.0,0.0,0.0,0.0,0.0,0.0,0.0,0.0,0.0,0.0,0.0,0.0,0.0,0.0,0.0,0.0,0.0,0.0,0.0,0.0,0.0,0.0,0.0,0.0,0.0,0.0,0.0,0.0758,0.1212,0.1212,0.2726,0.3634,0.3634,0.4392,0.4833,0.4801,0.4801,0.4784,0.4831,0.4831,0.477,0.4801,0.4801,0.4819,-0.7351,0.0,0.0,0.0,0.0,0.0,-1.0568,-1.1667,-1.2846,-1.383,-1.4602,-1.5233,-1.5711,-1.5923,-1.601,-1.6037,-1.6037,-1.5978,-1.5931,-1.5923,-1.5994,-1.6021,-1.6108,-1.6206,-1.6331,-1.6304,-1.6304,-1.6331,-1.6233,-1.6206,-1.6331,-1.6429,-1.5247,-1.2488,-0.965,-0.6888,-0.4128,-0.1355,0.0,0.0,0.0,0.0,0.0,0.0,0.0,0.0,0.0,0.0,0.0,0.0,0.0,0.0,0.0,0.0,0.0,0.0,0.0,0.0,0.0,0.0,0.0,0.0,0.0,0.0,0.0,0.0,0.0,0.0,0.0,0.0,0.0,0.0,0.0,0.0,0.0,0.0,0.0,0.0,0.0,0.0,0.0,0.0,0.0,0.0,0.0,0.0,0.0,0.0,0.0,0.0,0.0,0.0,0.0,0.0,0.0,0.0758,0.1212,0.1212,0.2716,0.3619,0.3634,0.4374,0.4808,0.4801,0.4781,0.4756,0.4725,0.4746,0.4833,0.477,0.479,0.4819,-0.7225,-0.7564,-0.7913,-0.805,0.0,0.0,-0.959,-1.0661,-1.1824,-1.2705,-1.3597,-1.4379,-1.497,-1.5124,-1.5206,-1.513,-1.526,-1.5445,-1.5782,-1.588,-1.5951,-1.5994,-1.6065,-1.6146,-1.6277,-1.6288,-1.6315,-1.6358,-1.6304,-1.6288,-1.6358,-1.6429,-1.5247,-1.2488,-0.965,-0.6888,-0.4128,-0.1355,0.0,0.0,0.0,0.0,0.0,0.0,0.0,0.0,0.0,0.0,0.0,0.0,0.0,0.0,0.0,0.0,0.0,0.0,0.0,0.0,0.0,0.0,0.0,0.0,0.0,0.0,0.0,0.0,0.0,0.0,0.0,0.0,0.0,0.0,0.0,0.0,0.0,0.0,0.0,0.0,0.0,0.0,0.0,0.0,0.0,0.0,0.0,0.0,0.0,0.0,0.0,0.0,0.0,0.0,0.0,0.0,0.0,0.0455,0.0682,0.0682,0.1883,0.2631,0.2565,0.3684,0.4267,0.4245,0.461,0.4736,0.4696,0.4711,0.4806,0.4831,0.4788,0.4819,-0.743,-0.7747,0.0,0.0,-0.8426,0.0,-0.8795,-0.9688,-1.0679,-1.1318,-1.2243,-1.3131,-1.3758,-1.3884,-1.3863,-1.3944,-1.4178,-1.47,-1.5668,-1.5836,-1.5907,-1.6048,-1.6076,-1.6135,-1.6233,-1.6244,-1.6304,-1.6482,-1.6445,-1.6456,-1.6472,-1.6472,-1.5247,-1.262,-0.9846,-0.7083,-0.4386,-0.1613,-0.0194,-0.0129,-0.0065,0.0,0.0,0.0,0.0,0.0,0.0,0.0,0.0,0.0,0.0,0.0,0.0,0.0,0.0,0.0,0.0,0.0,0.0,0.0,0.0,0.0,0.0,0.0,0.0,0.0,0.0,0.0,0.0,0.0,0.0,0.0,0.0,0.0,0.0,0.0,0.0,0.0,0.0,0.0,0.0,0.0,0.0,0.0,0.0,0.0,0.0,0.0,0.0,0.0,0.0,0.0,0.0,0.0,0.0,0.0,0.0,0.0,0.0753,0.1201,0.1202,0.2702,0.358,0.3466,0.4369,0.4795,0.4669,0.4669,0.4701,0.4831,0.4784,0.4815,-0.7982,-0.8096,-0.8193,0.0,0.0,0.0,-0.8257,-0.8785,-0.9515,-1.0449,-1.1281,-1.2056,-1.2803,-1.3031,-1.3042,-1.2824,-1.3154,-1.3852,-1.4912,-1.5304,-1.557,-1.586,-1.5907,-1.5967,-1.5994,-1.5994,-1.6048,-1.6163,-1.6277,-1.6375,-1.6472,-1.6472,-1.5508,-1.3257,-1.1065,-0.8561,-0.5802,-0.3095,-0.142,-0.0774,-0.0258,0.0,0.0,0.0,0.0,0.0,0.0,0.0,0.0,0.0,0.0,0.0,0.0,0.0,0.0,0.0,0.0,0.0,0.0,0.0,0.0,0.0,0.0,0.0,0.0,0.0,0.0,0.0,0.0,0.0,0.0,0.0,0.0,0.0,0.0,0.0,0.0,0.0,0.0,0.0,0.0,0.0,0.0,0.0,0.0,0.0,0.0,0.0,0.0,0.0,0.0,0.0,0.0,0.0,0.0,0.0,0.0,0.0,0.0753,0.1203,0.1209,0.2697,0.3497,0.3489,0.434,0.468,0.4669,0.4669,0.4701,0.4831,0.4763,0.4795,-0.7388,-0.7387,-0.7453,-0.7402,0.0,0.0,0.0,-0.7582,-0.8293,-0.9072,-0.9968,-1.0827,-1.1536,-1.1781,-1.1846,-1.1621,-1.2044,-1.2732,-1.3575,-1.4417,-1.5108,-1.5576,-1.5673,-1.5771,-1.5836,-1.5896,-1.5951,-1.6005,-1.6135,-1.6217,-1.6288,-1.6402,-1.5705,-1.3962,-1.2219,-1.0038,-0.7216,-0.4447,-0.2579,-0.1549,-0.0516,0.0,0.0,0.0,0.0,0.0,0.0,0.0,0.0,0.0,0.0,0.0,0.0,0.0,0.0,0.0,0.0,0.0,0.0,0.0,0.0,0.0,0.0,0.0,0.0,0.0,0.0,0.0,0.0,0.0,0.0,0.0,0.0,0.0,0.0,0.0,0.0,0.0,0.0,0.0,0.0,0.0,0.0,0.0,0.0,0.0,0.0,0.0,0.0,0.0,0.0,0.0,0.0,0.0,0.0,0.0,0.0,0.0,0.0377,0.0601,0.0603,0.1718,0.2524,0.2961,0.33,0.372,0.4085,0.4085,0.4333,0.4831,0.4831,0.4788,0.0,0.0,0.0,0.0,0.0,-0.5899,0.0,0.0,0.0,-0.7622,-0.857,-0.9527,-1.017,-1.0427,-1.0495,-1.037,-1.0874,-1.1486,-1.2129,-1.3216,-1.4249,-1.5053,-1.5266,-1.5374,-1.5565,-1.5641,-1.5738,-1.5782,-1.5896,-1.5994,-1.6065,-1.6304,-1.586,-1.4637,-1.3441,-1.1518,-0.8827,-0.6178,-0.4124,-0.2646,-0.1162,-0.0323,-0.0194,-0.0066,0.0,0.0,0.0,0.0,0.0,0.0,0.0,0.0,0.0,0.0,0.0,0.0,0.0,0.0,0.0,0.0,0.0,0.0,0.0,0.0,0.0,0.0,0.0,0.0,0.0,0.0,0.0,0.0,0.0,0.0,0.0,0.0,0.0,0.0,0.0,0.0,0.0,0.0,0.0,0.0,0.0,0.0,0.0,0.0,0.0,0.0,0.0,0.0,0.0,0.0,0.0,0.0,0.0,0.0,0.0,0.0,0.0,0.0747,0.1556,0.2353,0.234,0.2698,0.3501,0.3501,0.3965,0.4831,0.4831,0.4788,0.0,0.0,0.0,0.0,-0.4526,0.0,0.0,0.0,-0.5498,-0.6345,0.0,-0.8169,-0.8929,0.0,0.0,-0.9136,-0.9704,-1.0376,-1.1014,-1.1551,-1.2488,-1.4042,-1.439,-1.4515,-1.4629,-1.4841,-1.5064,-1.5293,-1.5401,-1.5613,-1.5923,-1.6179,-1.5993,-1.5233,-1.4559,-1.3129,-1.0944,-0.8818,-0.6766,-0.4834,-0.2837,-0.1489,-0.0847,-0.0263,0.0,0.0,0.0,0.0,0.0,0.0,0.0,0.0,0.0,0.0,0.0,0.0,0.0,0.0,0.0,0.0,0.0,0.0,0.0,0.0,0.0,0.0,0.0,0.0,0.0,0.0,0.0,0.0,0.0,0.0,0.0,0.0,0.0,0.0,0.0,0.0,0.0,0.0,0.0,0.0,0.0,0.0,0.0,0.0,0.0,0.0,0.0,0.0,0.0,0.0,0.0,0.0,0.0,0.0,0.0,0.0,0.0,0.0748,0.1552,0.2264,0.2336,0.2698,0.3501,0.3501,0.3965,0.4831,0.4831,0.4788,0.0,0.0,0.0,0.0,0.0,0.0,0.0,0.0,-0.4155,0.0,0.0,0.0,0.0,0.0,0.0,0.0,-0.8112,-0.8854,-0.9635,-1.0179,-1.1184,-1.2959,-1.3368,-1.3673,-1.414,-1.4336,-1.4515,-1.4684,-1.4869,-1.5135,-1.5499,-1.601,-1.6161,-1.5903,-1.5701,-1.4804,-1.3129,-1.139,-0.9335,-0.6894,-0.4446,-0.2717,-0.1631,-0.0526,0.0,0.0,0.0,0.0,0.0,0.0,0.0,0.0,0.0,0.0,0.0,0.0,0.0,0.0,0.0,0.0,0.0,0.0,0.0,0.0,0.0,0.0,0.0,0.0,0.0,0.0,0.0,0.0,0.0,0.0,0.0,0.0,0.0,0.0,0.0,0.0,0.0,0.0,0.0,0.0,0.0,0.0,0.0,0.0,0.0,0.0,0.0,0.0,0.0,0.0,0.0,0.0,0.0,0.0,0.0,0.0,0.0,0.0298,0.0665,0.0949,0.0949,0.1386,0.2188,0.2188,0.2569,0.342,0.4385,0.4788,-0.4276,0.0,0.0,0.0,0.0,0.0,0.0,0.0,0.0,0.0,0.0,0.0,0.0,0.0,0.0,0.0,0.0,-0.7356,-0.8253,-0.8852,-0.9879,-1.1765,-1.2368,-1.2825,-1.3464,-1.3667,-1.3874,-1.4053,-1.4238,-1.4548,-1.5037,-1.5657,-1.6048,-1.619,-1.6304,-1.5829,-1.4676,-1.3505,-1.1518,-0.8763,-0.5991,-0.3879,-0.2347,-0.0723,0.0,0.0,0.0,0.0,0.0,0.0,0.0,0.0,0.0,0.0,0.0,0.0,0.0,0.0,0.0,0.0,0.0,0.0,0.0,0.0,0.0,0.0,0.0,0.0,0.0,0.0,0.0,0.0,0.0,0.0,0.0,0.0,0.0,0.0,0.0,0.0,0.0,0.0,0.0,0.0,0.0,0.0,0.0,0.0,0.0,0.0,0.0,0.0,0.0,0.0,0.0,0.0,0.0,0.0,0.0,0.0,0.0,0.0,0.0,0.0,0.0,0.0365,0.1167,0.1167,0.1615,0.2454,0.3569,0.4117,0.0,0.0,0.0,-0.0327,0.0,0.0,0.0,0.0,-0.1361,0.0,0.0,0.0,0.0,0.0,0.0,0.0,0.0,0.0,0.0,-0.7532,-0.8579,-1.051,-1.1422,-1.1955,-1.2252,-1.2651,-1.3075,-1.3423,-1.3455,-1.3819,-1.4646,-1.5053,-1.5412,-1.5872,-1.6065,-1.585,-1.538,-1.4676,-1.2932,-1.0177,-0.7469,-0.5044,-0.2999,-0.092,0.0,0.0,0.0,0.0,0.0,0.0,0.0,0.0,0.0,0.0,0.0,0.0,0.0,0.0,0.0,0.0,0.0,0.0,0.0,0.0,0.0,0.0,0.0,0.0,0.0,0.0,0.0,0.0,0.0,0.0,0.0,0.0,0.0,0.0,0.0,0.0,0.0,0.0,0.0,0.0,0.0,0.0,0.0,0.0,0.0,0.0,0.0,0.0,0.0,0.0,0.0,0.0,0.0,0.0,0.0,0.0,0.0,0.0,0.0,0.0,0.0,0.0367,0.1167,0.1167,0.1615,0.2379,0.2454,0.247,0.0,0.0,-0.1992,-0.1253,0.0,0.0,0.0,0.0,0.0,0.0,0.0,0.0,0.0,0.0,0.0,0.0,0.0,0.0,0.0,-0.7364,-0.8605,-0.9336,-1.0286,-1.0965,-1.1199,-1.1873,-1.2341,-1.2466,-1.277,-1.3243,-1.3928,-1.4619,-1.5162,-1.5559,-1.5923,-1.6021,-1.585,-1.5734,-1.4305,-1.1506,-0.8751,-0.6178,-0.3651,-0.1177,0.0,0.0,0.0,0.0,0.0,0.0,0.0,0.0,0.0,0.0,0.0,0.0,0.0,0.0,0.0,0.0,0.0,0.0,0.0,0.0,0.0,0.0,0.0,0.0,0.0,0.0,0.0,0.0,0.0,0.0,0.0,0.0,0.0,0.0,0.0,0.0,0.0,0.0,0.0,0.0,0.0,0.0,0.0,0.0,0.0,0.0,0.0,0.0,0.0,0.0,0.0,0.0,0.0,0.0,0.0,0.0,0.0,0.0,0.0,0.0,0.0,0.0147,0.0438,0.0438,0.0514,0.0818,0.0818,0.1347,-0.3752,-0.309,0.0,-0.2466,-0.2368,0.0,-0.2361,0.0,0.0,0.0,0.0,0.0,0.0,0.0,0.0,0.0,0.0,0.0,0.0,-0.7238,-0.8426,-0.8562,-0.9421,-1.0112,-1.0349,-1.1101,-1.158,-1.1667,-1.1998,-1.2531,-1.3308,-1.4026,-1.4673,-1.5249,-1.5771,-1.5935,-1.5722,-1.5656,-1.419,-1.1463,-0.8722,-0.609,-0.3638,-0.1172,0.0,0.0,0.0,0.0,0.0,0.0,0.0,0.0,0.0,0.0,0.0,0.0,0.0,0.0,0.0,0.0,0.0,0.0,0.0,0.0,0.0,0.0,0.0,0.0,0.0,0.0,0.0,0.0,0.0,0.0,0.0,0.0,0.0,0.0,0.0,0.0,0.0,0.0,0.0,0.0,0.0,0.0,0.0,0.0,0.0,0.0,0.0,0.0,0.0,0.0,0.0,0.0,0.0,0.0,0.0,0.0,0.0,0.0,0.0,0.0,0.0,0.0,0.0,0.0,0.0,0.0,0.0,0.0524]},{"header":{"parameterUnit":"m.s-1","parameterCategory":1,"la1":30.6,"la2":29.2853,"lo1":-89.7004,"lo2":-87.6739,"dy":0.0162,"dx":0.0183,"nx":112,"ny":82,"refTime":"2026-04-05T12:00:00:Z","depth":0,"parameterNumber":3,"parameterNumberName":"V-component_of_WINDS"},"data":[0.0,0.0,0.0,0.0,0.0,0.0,0.0,0.0,0.0,0.0,0.0,0.0,0.0,0.0,0.0,0.0,0.0,0.0,0.0,0.0,0.0,0.0,0.0,0.0,0.0,0.0,0.0,0.0,0.0,0.0,0.0,0.0,0.0,0.0,0.0,0.0,0.0,0.0,0.0,0.0,0.0,0.0,0.0,0.0,0.0,0.0,0.0,0.0,0.0,0.0,0.0,0.0,0.0,0.0,0.0,0.0,0.0,0.0,0.0,0.0,0.0,0.0,0.0,0.0,0.0,0.0,0.0,0.0,0.0,0.0,0.0,0.0,0.0,0.0,0.0,0.0,0.0,0.0,0.0,0.0,0.0,0.0,0.0,0.0,0.0,0.0,0.0,0.0,0.0,0.0,0.0,7.7438,8.7605,9.2344,8.8981,8.6372,8.128,7.2834,0.0,0.0,0.0,0.0,0.0,0.0,0.0,0.0,0.0,0.0,0.0,0.0,0.0,0.0,0.0,0.0,0.0,0.0,0.0,0.0,0.0,0.0,0.0,0.0,0.0,0.0,0.0,0.0,0.0,0.0,0.0,0.0,0.0,0.0,0.0,0.0,0.0,0.0,0.0,0.0,0.0,0.0,0.0,0.0,0.0,0.0,0.0,0.0,0.0,0.0,0.0,0.0,0.0,0.0,0.0,0.0,0.0,0.0,0.0,0.0,0.0,0.0,0.0,0.0,0.0,0.0,0.0,0.0,0.0,0.0,0.0,0.0,0.0,0.0,0.0,0.0,0.0,0.0,0.0,0.0,0.0,0.0,0.0,0.0,0.0,0.0,0.0,0.0,0.0,0.0,0.0,0.0,0.0,0.0,0.0,0.0,0.0,0.0,0.0,0.0,0.0,0.0,0.0,0.0,7.2103,8.5074,9.2421,9.5062,9.1694,8.9011,8.3916,7.5471,0.0,0.0,0.0,0.0,0.0,0.0,0.0,0.0,0.0,0.0,0.0,0.0,0.0,0.0,0.0,0.0,0.0,0.0,0.0,0.0,0.0,0.0,0.0,0.0,0.0,0.0,0.0,0.0,0.0,0.0,0.0,0.0,0.0,0.0,0.0,0.0,0.0,0.0,0.0,0.0,0.0,0.0,0.0,0.0,0.0,0.0,0.0,0.0,0.0,0.0,0.0,0.0,0.0,0.0,0.0,0.0,0.0,0.0,0.0,0.0,0.0,0.0,0.0,0.0,0.0,0.0,0.0,0.0,0.0,0.0,0.0,0.0,0.0,0.0,0.0,0.0,0.0,0.0,0.0,0.0,0.0,0.0,0.0,0.0,0.0,0.0,0.0,0.0,0.0,0.0,0.0,0.0,0.0,0.0,0.0,0.0,0.0,0.0,0.0,0.0,0.0,0.0,0.0,7.3653,8.1839,8.9554,9.4359,9.5285,9.0997,8.8219,8.2913,7.4019,6.523,0.0,0.0,0.0,0.0,0.0,0.0,0.0,0.0,0.0,0.0,0.0,0.0,0.0,0.0,0.0,0.0,0.0,0.0,0.0,0.0,0.0,0.0,0.0,0.0,0.0,0.0,0.0,0.0,0.0,0.0,0.0,0.0,0.0,0.0,0.0,0.0,0.0,0.0,0.0,0.0,0.0,0.0,0.0,0.0,0.0,0.0,0.0,0.0,0.0,0.0,0.0,0.0,0.0,0.0,0.0,0.0,0.0,0.0,0.0,0.0,0.0,0.0,0.0,0.0,0.0,0.0,0.0,0.0,0.0,0.0,0.0,0.0,0.0,0.0,0.0,0.0,0.0,0.0,0.0,0.0,0.0,0.0,0.0,0.0,0.0,0.0,0.0,0.0,0.0,0.0,0.0,0.0,0.0,0.0,0.0,0.0,0.0,0.0,0.0,0.0,0.0,0.0,8.3883,9.0541,9.2575,9.5542,9.5136,8.9707,8.6412,8.0792,7.1705,6.3853,0.0,0.0,0.0,0.0,0.0,0.0,0.0,0.0,0.0,0.0,0.0,0.0,0.0,0.0,0.0,0.0,0.0,0.0,0.0,0.0,0.0,0.0,0.0,0.0,0.0,0.0,0.0,0.0,0.0,0.0,0.0,0.0,0.0,0.0,0.0,0.0,0.0,0.0,0.0,0.0,0.0,0.0,0.0,0.0,0.0,0.0,0.0,0.0,0.0,0.0,0.0,0.0,0.0,0.0,0.0,0.0,0.0,0.0,0.0,0.0,0.0,0.0,0.0,0.0,0.0,0.0,0.0,0.0,0.0,0.0,0.0,0.0,0.0,0.0,0.0,0.0,0.0,0.0,0.0,0.0,0.0,0.0,0.0,0.0,0.0,0.0,0.0,0.0,0.0,0.0,0.0,0.0,0.0,0.0,0.0,0.0,0.0,0.0,0.0,0.0,0.0,0.0,8.8055,9.4408,9.46,9.6881,9.5708,8.9055,8.4594,7.8532,7.0002,6.1648,0.0,0.0,0.0,0.0,0.0,0.0,0.0,0.0,0.0,0.0,0.0,0.0,0.0,0.0,0.0,0.0,0.0,0.0,0.0,0.0,0.0,0.0,0.0,0.0,0.0,0.0,0.0,0.0,0.0,0.0,0.0,0.0,0.0,0.0,0.0,0.0,0.0,0.0,0.0,0.0,0.0,0.0,0.0,0.0,0.0,0.0,0.0,0.0,0.0,0.0,0.0,0.0,0.0,0.0,0.0,0.0,0.0,0.0,0.0,0.0,0.0,0.0,0.0,0.0,0.0,0.0,0.0,0.0,0.0,0.0,0.0,0.0,0.0,0.0,0.0,0.0,0.0,0.0,0.0,0.0,0.0,0.0,0.0,0.0,0.0,0.0,0.0,0.0,0.0,0.0,0.0,0.0,0.0,0.0,0.0,0.0,0.0,0.0,0.0,0.0,0.0,0.0,8.8829,9.5214,0.0,9.815,9.6774,9.0607,8.6019,7.9648,7.0724,0.0,0.0,0.0,0.0,0.0,0.0,0.0,0.0,0.0,0.0,0.0,0.0,0.0,0.0,0.0,0.0,0.0,0.0,0.0,0.0,0.0,0.0,0.0,0.0,0.0,0.0,0.0,0.0,0.0,0.0,0.0,0.0,0.0,0.0,0.0,0.0,0.0,0.0,0.0,0.0,0.0,0.0,0.0,0.0,0.0,0.0,0.0,0.0,0.0,0.0,0.0,0.0,0.0,0.0,0.0,0.0,0.0,0.0,0.0,0.0,0.0,0.0,0.0,0.0,0.0,0.0,0.0,0.0,0.0,0.0,0.0,0.0,0.0,0.0,0.0,0.0,0.0,0.0,0.0,0.0,0.0,0.0,0.0,0.0,0.0,0.0,0.0,0.0,0.0,0.0,0.0,0.0,0.0,0.0,0.0,0.0,0.0,0.0,0.0,0.0,0.0,0.0,8.0552,9.0122,9.653,0.0,9.9285,9.7718,9.1613,8.7023,8.0558,7.132,0.0,0.0,0.0,0.0,0.0,0.0,0.0,0.0,0.0,0.0,0.0,0.0,0.0,0.0,0.0,0.0,0.0,0.0,0.0,0.0,0.0,0.0,0.0,0.0,0.0,0.0,0.0,0.0,0.0,0.0,0.0,0.0,0.0,0.0,0.0,0.0,0.0,0.0,0.0,0.0,0.0,0.0,0.0,0.0,0.0,0.0,0.0,0.0,0.0,0.0,0.0,0.0,0.0,0.0,0.0,0.0,0.0,0.0,0.0,0.0,0.0,0.0,0.0,0.0,0.0,0.0,0.0,0.0,0.0,0.0,0.0,0.0,0.0,0.0,0.0,0.0,0.0,0.0,0.0,0.0,0.0,0.0,0.0,0.0,0.0,0.0,0.0,0.0,0.0,0.0,0.0,0.0,0.0,0.0,0.0,0.0,0.0,0.0,0.0,0.0,0.0,0.0,8.2408,9.2488,9.8788,9.8827,10.0316,9.8499,9.1756,8.7264,8.0841,0.0,0.0,0.0,0.0,0.0,0.0,0.0,0.0,0.0,0.0,0.0,0.0,0.0,0.0,0.0,0.0,0.0,0.0,0.0,0.0,0.0,0.0,0.0,0.0,0.0,0.0,0.0,0.0,0.0,0.0,0.0,0.0,0.0,0.0,0.0,0.0,0.0,0.0,0.0,0.0,0.0,0.0,0.0,0.0,0.0,0.0,0.0,0.0,0.0,0.0,0.0,0.0,0.0,0.0,0.0,0.0,0.0,0.0,0.0,0.0,0.0,0.0,0.0,0.0,0.0,0.0,0.0,0.0,0.0,0.0,0.0,0.0,0.0,0.0,0.0,0.0,0.0,0.0,0.0,0.0,0.0,0.0,0.0,0.0,0.0,0.0,0.0,0.0,0.0,0.0,0.0,0.0,0.0,0.0,0.0,0.0,0.0,0.0,0.0,0.0,0.0,0.0,0.0,8.2408,9.2488,9.925,10.0404,10.2007,10.1208,9.6904,9.3101,8.7012,7.7747,0.0,0.0,0.0,0.0,0.0,0.0,0.0,0.0,0.0,0.0,0.0,0.0,0.0,0.0,0.0,0.0,0.0,0.0,0.0,0.0,0.0,0.0,0.0,0.0,0.0,0.0,0.0,0.0,0.0,0.0,0.0,0.0,0.0,0.0,0.0,0.0,0.0,0.0,0.0,0.0,0.0,0.0,0.0,0.0,0.0,0.0,0.0,0.0,0.0,0.0,0.0,0.0,0.0,0.0,0.0,0.0,0.0,0.0,0.0,0.0,0.0,0.0,0.0,0.0,0.0,0.0,0.0,0.0,0.0,0.0,0.0,0.0,0.0,0.0,0.0,0.0,0.0,0.0,0.0,0.0,0.0,0.0,0.0,0.0,0.0,0.0,0.0,0.0,0.0,0.0,0.0,0.0,0.0,0.0,0.0,0.0,0.0,0.0,0.0,0.0,0.0,0.0,8.387,9.4326,10.1289,10.2712,10.3998,10.3603,10.0596,9.7462,9.1715,8.2431,0.0,0.0,0.0,0.0,0.0,0.0,0.0,0.0,0.0,0.0,0.0,0.0,0.0,0.0,0.0,0.0,0.0,0.0,0.0,0.0,0.0,0.0,0.0,0.0,0.0,0.0,0.0,0.0,0.0,0.0,0.0,0.0,0.0,0.0,0.0,0.0,0.0,0.0,0.0,0.0,0.0,0.0,0.0,0.0,0.0,0.0,0.0,0.0,0.0,0.0,0.0,0.0,0.0,0.0,0.0,0.0,0.0,0.0,0.0,0.0,0.0,0.0,0.0,0.0,0.0,0.0,0.0,0.0,0.0,0.0,0.0,0.0,0.0,0.0,0.0,0.0,0.0,0.0,0.0,0.0,0.0,0.0,0.0,0.0,0.0,0.0,0.0,0.0,0.0,0.0,0.0,0.0,0.0,0.0,0.0,0.0,0.0,0.0,0.0,0.0,0.0,0.0,8.6209,9.7096,10.4212,10.5097,10.6097,10.5587,10.3212,10.0712,9.5326,8.6055,0.0,0.0,0.0,0.0,0.0,0.0,0.0,0.0,0.0,0.0,0.0,0.0,0.0,0.0,0.0,0.0,0.0,0.0,0.0,0.0,0.0,0.0,0.0,0.0,0.0,0.0,0.0,0.0,0.0,0.0,0.0,0.0,0.0,0.0,0.0,0.0,0.0,0.0,0.0,0.0,0.0,0.0,0.0,0.0,0.0,0.0,0.0,0.0,0.0,0.0,0.0,0.0,0.0,0.0,0.0,0.0,0.0,0.0,0.0,0.0,6.8946,0.0,0.0,0.0,0.0,0.0,0.0,0.0,0.0,0.0,0.0,0.0,0.0,0.0,0.0,0.0,0.0,0.0,0.0,0.0,0.0,0.0,0.0,0.0,0.0,0.0,0.0,0.0,0.0,0.0,0.0,0.0,0.0,0.0,0.0,0.0,0.0,0.0,0.0,0.0,0.0,0.0,8.7102,9.749,10.4482,10.602,10.7482,10.7598,10.5703,10.3905,9.9096,9.0402,8.2324,0.0,0.0,0.0,0.0,0.0,0.0,0.0,0.0,0.0,0.0,0.0,0.0,0.0,0.0,0.0,0.0,0.0,0.0,0.0,0.0,0.0,0.0,0.0,0.0,0.0,0.0,0.0,0.0,0.0,0.0,0.0,0.0,0.0,0.0,0.0,0.0,0.0,0.0,0.0,0.0,0.0,0.0,0.0,0.0,0.0,0.0,0.0,0.0,0.0,0.0,0.0,0.0,0.0,0.0,0.0,0.0,0.0,0.0,0.0,0.0,7.5426,0.0,0.0,0.0,0.0,0.0,0.0,0.0,0.0,0.0,0.0,0.0,0.0,0.0,0.0,0.0,0.0,0.0,0.0,0.0,0.0,0.0,0.0,0.0,0.0,0.0,0.0,0.0,0.0,0.0,0.0,0.0,0.0,0.0,0.0,0.0,0.0,0.0,0.0,0.0,0.0,8.9171,9.9404,10.6405,10.8021,10.8983,10.8983,10.7713,10.5713,10.1404,9.4095,8.6478,0.0,0.0,0.0,0.0,0.0,0.0,0.0,0.0,0.0,0.0,0.0,0.0,0.0,0.0,0.0,0.0,0.0,0.0,0.0,0.0,0.0,0.0,0.0,0.0,0.0,0.0,0.0,0.0,0.0,0.0,0.0,0.0,0.0,0.0,0.0,0.0,0.0,0.0,0.0,0.0,0.0,0.0,0.0,0.0,0.0,0.0,0.0,0.0,0.0,0.0,0.0,0.0,0.0,9.4981,9.5865,9.6693,9.8327,9.9553,10.0018,9.3083,8.8418,8.5708,8.4758,0.0,0.0,0.0,0.0,0.0,0.0,0.0,0.0,0.0,0.0,0.0,0.0,0.0,0.0,0.0,0.0,0.0,0.0,0.0,0.0,0.0,0.0,0.0,0.0,9.3941,9.1628,0.0,0.0,0.0,0.0,0.0,0.0,0.0,0.0,0.0,0.0,0.0,0.0,9.1621,10.1702,10.8393,11.0115,11.0402,11.0112,10.9206,10.7108,10.3289,9.7557,9.0547,8.3316,0.0,0.0,0.0,0.0,0.0,0.0,0.0,0.0,0.0,0.0,0.0,0.0,0.0,0.0,0.0,0.0,0.0,0.0,0.0,0.0,0.0,0.0,0.0,0.0,0.0,0.0,0.0,0.0,0.0,0.0,0.0,0.0,6.9436,7.0385,0.0,0.0,0.0,0.0,0.0,0.0,0.0,0.0,0.0,0.0,0.0,0.0,0.0,9.2561,9.6892,10.0407,10.2906,10.4702,10.6302,10.7502,10.8298,10.9984,11.1299,11.2118,11.2417,0.0,9.5574,9.4018,0.0,0.0,0.0,0.0,0.0,0.0,0.0,0.0,0.0,0.0,0.0,0.0,0.0,0.0,0.0,0.0,0.0,0.0,0.0,0.0,0.0,0.0,10.3401,10.4416,10.5196,10.5194,0.0,9.526,8.7215,8.2199,7.7707,0.0,0.0,0.0,0.0,0.0,0.0,0.0,9.3877,10.2715,10.8788,11.0407,11.1086,11.1114,11.0205,10.9112,10.6213,10.101,9.624,9.0586,8.3662,7.7553,0.0,0.0,0.0,0.0,0.0,0.0,0.0,0.0,0.0,0.0,0.0,0.0,0.0,0.0,0.0,0.0,0.0,0.0,0.0,0.0,0.0,0.0,0.0,0.0,0.0,0.0,0.0,0.0,0.0,7.1001,7.5482,7.6841,7.6989,7.6439,0.0,0.0,0.0,0.0,0.0,0.0,0.0,0.0,0.0,9.4037,9.9195,10.4194,10.9113,11.2002,11.4617,11.6804,11.8092,11.9102,11.9915,12.119,12.2202,12.31,12.431,12.0797,11.3699,10.7194,10.1383,9.623,0.0,0.0,0.0,0.0,9.1507,9.5059,9.7323,9.8104,9.7948,9.7089,0.0,0.0,0.0,0.0,0.0,0.0,0.0,0.0,0.0,0.0,10.9191,11.0091,11.0987,11.1494,11.1104,10.671,10.0584,0.0,8.8563,8.3452,7.6862,0.0,0.0,0.0,0.0,8.8434,9.7335,10.5506,11.0878,11.2102,11.281,11.3004,11.2599,11.1193,10.9021,10.579,10.1597,9.6673,9.0816,8.5786,8.0439,0.0,0.0,0.0,0.0,0.0,0.0,0.0,0.0,0.0,0.0,0.0,0.0,0.0,0.0,0.0,0.0,0.0,0.0,0.0,0.0,0.0,0.0,0.0,0.0,0.0,0.0,0.0,0.0,7.8038,8.2332,8.405,8.4675,8.4245,0.0,0.0,0.0,0.0,0.0,0.0,9.3771,9.7167,10.0915,10.5016,10.9699,11.4383,11.8912,12.1293,12.3518,12.5702,12.6602,12.7383,12.8203,12.9101,12.9999,13.0818,13.1482,13.0389,12.75,11.8716,11.2119,10.6888,10.1891,10.072,10.1618,10.0915,10.2984,10.638,10.8801,10.9816,10.9816,10.8684,10.5209,10.0405,9.541,0.0,0.0,0.0,0.0,10.029,10.4389,10.9581,11.3915,11.4617,11.5593,11.6218,11.5789,11.45,11.1017,0.0,9.7692,9.2708,8.641,0.0,0.0,0.0,0.0,9.2942,10.0581,10.7805,11.249,11.3389,11.3895,11.4182,11.4103,11.2783,11.1101,10.9193,10.5582,10.151,9.6863,9.2805,8.7641,8.1216,0.0,0.0,0.0,0.0,0.0,0.0,0.0,0.0,0.0,0.0,0.0,0.0,0.0,0.0,0.0,0.0,0.0,0.0,0.0,0.0,0.0,0.0,0.0,0.0,0.0,0.0,0.0,0.0,0.0,9.2951,9.4628,0.0,0.0,0.0,0.0,9.537,9.8768,10.1813,10.4506,10.7903,11.1299,11.4893,11.8404,12.1488,12.4297,12.6017,12.7383,12.8281,12.9218,13.0116,13.0896,13.1794,13.2692,13.3512,13.359,13.2614,13.0506,12.5897,12.102,11.5906,11.1492,11.0792,11.2316,11.2316,11.4891,11.8912,12.0588,12.18,12.2191,12.0512,11.4305,10.6693,10.2281,9.9705,0.0,0.0,10.4702,10.8215,11.1692,11.5789,11.9107,11.9185,12.0512,12.1293,11.9614,11.8482,11.5784,0.0,10.3914,9.9523,9.5123,0.0,8.7351,9.0151,9.3535,9.7702,10.3107,10.8399,11.2216,11.3706,11.3812,11.3706,11.3592,11.33,11.2118,10.9517,10.762,10.4905,10.1296,9.7806,9.348,8.8295,8.317,0.0,0.0,0.0,0.0,0.0,0.0,0.0,0.0,0.0,0.0,0.0,0.0,0.0,0.0,0.0,0.0,0.0,0.0,0.0,0.0,0.0,0.0,0.0,0.0,0.0,0.0,0.0,0.0,10.1696,10.4116,0.0,10.3101,10.1891,10.2593,10.6107,11.0011,11.3407,11.5984,11.9419,12.2113,12.3909,12.6212,12.8086,12.9608,13.0194,13.1014,13.1911,13.2185,13.2809,13.359,13.3902,13.48,13.6089,13.562,13.4996,13.4215,13.1599,12.7383,12.2503,11.981,11.9185,11.9692,11.9692,12.141,12.3791,12.5002,12.6017,12.6212,12.3401,11.8912,11.3993,11.0792,10.8605,10.7512,10.8996,11.1494,11.4188,11.5906,11.8795,12.1215,12.1215,12.1603,12.18,12.059,11.8795,11.6489,11.3515,11.031,10.7102,10.3892,9.9478,9.7092,9.9158,10.0483,10.2782,10.6799,11.0893,11.3597,11.3986,11.4397,11.4601,11.4511,11.3907,11.3103,11.2002,11.0197,10.8078,10.5686,10.3811,10.0087,9.448,9.0441,8.467,0.0,0.0,0.0,0.0,0.0,0.0,0.0,0.0,0.0,0.0,0.0,0.0,0.0,0.0,0.0,0.0,0.0,0.0,0.0,0.0,0.0,0.0,0.0,0.0,0.0,9.7518,10.5092,10.8801,11.1807,11.3017,11.1611,11.0909,11.1885,11.5008,11.8795,12.18,12.3713,12.6485,12.8515,12.9296,13.1092,13.2419,13.3317,13.3512,13.402,13.4485,13.4485,13.4996,13.5815,13.5815,13.6596,13.7884,13.6986,13.6596,13.6518,13.5113,13.2497,12.9218,12.6915,12.6212,12.6407,12.6407,12.7383,12.871,12.9218,12.9608,12.9413,12.6797,12.4104,12.141,11.9302,11.7506,11.6296,11.6882,11.8014,11.9302,11.981,12.1215,12.2503,12.2503,12.2503,12.2308,12.141,11.9185,11.7311,11.6689,11.4188,11.1494,10.9191,10.6185,10.4391,10.5287,10.5912,10.72,10.9816,11.29,11.4914,11.5095,11.5506,11.559,11.5312,11.4284,11.3513,11.2788,11.0699,10.8911,10.7693,10.6417,10.3298,9.821,9.2798,8.6253,7.8566,0.0,0.0,0.0,0.0,0.0,0.0,0.0,0.0,0.0,0.0,0.0,0.0,0.0,0.0,0.0,0.0,0.0,0.0,0.0,0.0,0.0,0.0,0.0,9.4947,10.4311,11.1807,11.4383,11.7701,11.9497,11.8599,11.8599,11.9692,12.2191,12.4689,12.6485,12.7307,12.8908,13.0194,13.1092,13.2692,13.4098,13.4996,13.5815,13.6203,13.6203,13.6203,13.6713,13.7494,13.7494,13.8002,13.8785,13.7884,13.7494,13.7416,13.6596,13.6203,13.5891,13.2614,13.1794,13.2497,13.2497,13.3083,13.3785,13.3707,13.32,13.2302,13.1404,12.9999,12.8398,12.75,12.6017,12.4687,12.4609,12.3987,12.3284,12.3401,12.3401,12.3401,12.3401,12.3518,12.3206,12.2308,12.02,11.8404,11.8287,11.5596,11.2704,11.0987,11.0011,10.9191,10.841,10.9618,0.0,11.1807,11.411,11.6014,11.6808,11.6815,11.6392,11.5498,11.4598,11.3286,11.1504,10.8815,10.721,10.71,10.5395,10.2787,9.9382,9.0133,8.2457,7.6514,0.0,0.0,0.0,0.0,0.0,0.0,0.0,0.0,0.0,0.0,0.0,0.0,0.0,0.0,0.0,0.0,0.0,0.0,0.0,0.0,0.0,9.3408,10.0087,10.2307,11.1011,11.8311,12.1515,12.4896,12.6602,12.5782,12.629,12.6915,12.7617,12.9491,13.0506,12.9999,12.9881,13.0194,13.1092,13.1599,13.2497,13.402,13.5503,13.6203,13.6203,13.6203,13.6713,13.7494,13.7494,13.8002,13.8785,13.7884,13.7494,13.7416,13.6596,13.6203,13.6086,13.5188,13.4917,13.5191,13.5191,13.5308,13.5383,13.48,13.4488,13.3981,13.2497,13.0896,12.9218,12.7698,12.5587,12.3596,12.3011,12.2191,12.1683,12.2308,12.2894,12.3596,12.4182,12.4806,12.4885,12.3401,12.1488,11.981,11.8482,11.7508,11.6296,11.4617,11.3602,11.3095,11.3485,11.3407,0.0,11.45,11.5283,11.5786,11.6014,11.6006,11.5609,11.4781,11.3915,11.2595,11.0805,10.8689,10.7184,10.6488,10.5217,10.2889,9.95,9.3218,8.7893,0.0,0.0,0.0,0.0,0.0,0.0,0.0,0.0,0.0,0.0,0.0,0.0,0.0,0.0,0.0,0.0,0.0,0.0,0.0,0.0,0.0,0.0,10.2289,10.9282,11.2484,11.8017,12.2694,12.5505,12.8805,13.0701,13.0194,13.1287,13.199,13.199,13.32,13.3512,13.2302,13.1404,13.1092,13.1599,13.199,13.3005,13.4681,13.6401,13.7299,13.7299,13.7299,13.7611,13.8002,13.8002,13.8314,13.8785,13.8314,13.8002,13.8002,13.7494,13.7299,0.0,0.0,0.0,0.0,0.0,13.6203,13.6086,13.5698,13.5308,13.48,13.3785,13.2107,13.0116,12.871,12.6017,12.3206,12.2308,12.0981,12.0005,12.1215,12.2191,12.3206,12.4414,12.5392,12.5587,12.4182,12.2308,12.0512,11.9497,11.8716,0.0,11.7389,11.6608,11.5984,11.5713,11.5593,11.571,11.6218,11.6882,11.7311,11.7311,11.7584,11.7311,11.6101,11.4893,0.0,0.0,0.0,10.7289,10.6298,10.4984,0.0,0.0,0.0,0.0,0.0,0.0,0.0,0.0,8.1061,8.3623,0.0,0.0,0.0,0.0,0.0,0.0,0.0,0.0,0.0,0.0,0.0,0.0,0.0,0.0,0.0,0.0,11.0698,11.8005,12.3005,12.4788,12.6213,12.7814,13.0802,13.2702,13.278,13.4186,13.5084,13.5084,13.5784,13.5511,13.391,13.2897,0.0,0.0,0.0,13.4496,13.6213,13.7892,13.8787,13.8787,13.8785,13.8785,13.8785,13.8785,13.8785,13.8785,13.8785,13.8785,13.8785,13.8785,13.8785,13.859,13.7104,13.6518,13.6518,13.6518,13.6518,13.6518,13.6401,0.0,0.0,13.5113,13.3395,13.1209,13.0116,12.6915,12.3518,12.2503,12.0512,11.899,12.0707,12.18,12.3011,12.4609,12.5704,12.6212,12.5197,12.3089,12.141,12.1293,12.0005,11.9107,11.9692,11.9107,11.8014,11.6415,11.6804,11.7194,11.7194,11.8482,11.9497,11.9497,0.0,0.0,11.8599,11.6804,11.4806,11.2286,10.9489,10.7496,10.6494,10.5207,10.451,10.4393,10.2101,9.9759,9.7372,9.8103,9.8434,9.8292,9.3475,9.3486,0.0,0.0,0.0,0.0,0.0,0.0,0.0,0.0,0.0,0.0,0.0,0.0,0.0,0.0,0.0,10.7105,11.4684,12.1013,12.4101,12.8199,13.1318,13.2295,13.3692,13.4816,13.5519,13.591,13.5988,13.5988,13.6183,13.5791,13.4814,13.3293,13.2707,13.341,13.3605,13.4504,13.63,13.8003,13.8813,13.8813,13.8795,0.0,13.8785,13.8785,13.8785,13.8785,13.8785,13.8785,13.8785,13.8785,13.8785,13.8785,13.8392,13.8314,13.8314,13.8314,13.8314,13.8197,13.7494,13.7104,13.6791,13.5386,13.4215,13.2809,13.0506,12.7812,0.0,12.3596,12.18,12.0707,12.2386,12.4104,12.5509,12.6485,12.7891,12.8593,12.711,12.5782,12.4806,12.4104,12.3089,12.2191,12.1683,12.0903,12.0005,11.8912,11.8912,11.8795,11.8092,11.8912,11.9497,11.9497,12.0317,12.0395,11.9419,11.7701,11.5903,11.3986,11.0781,10.8315,10.6705,10.7683,10.7917,10.7212,10.728,10.698,10.6395,10.7116,10.7783,10.8207,10.2291,10.1414,0.0,0.0,0.0,0.0,0.0,0.0,0.0,0.0,0.0,0.0,0.0,9.2107,9.6873,0.0,10.8982,11.371,11.9491,12.4413,12.6992,13.0702,13.3201,13.3706,13.4908,13.5995,13.6894,13.7285,13.7597,13.7597,13.7597,13.7207,13.6307,13.5098,13.459,13.498,13.498,13.5605,13.6894,13.8206,13.878,13.878,13.8797,13.8785,13.8785,13.8785,13.8785,13.8785,13.8785,13.8785,13.8785,13.8785,13.8785,13.8785,13.8785,13.8785,13.8785,13.8785,13.8785,13.8707,13.8314,13.7884,13.7299,13.6011,13.4683,13.3317,13.1092,12.8593,12.629,12.5119,12.3401,12.2503,12.4182,12.5587,12.6915,12.8203,12.9491,13.0116,12.8788,12.7812,12.6993,12.6095,12.5314,12.4611,12.4104,12.3713,12.2698,12.0512,11.981,11.9497,11.9497,11.9888,12.0317,12.0785,12.1605,12.1683,12.0903,11.8795,11.6882,11.5203,11.3017,11.1299,11.0013,11.0716,11.0987,11.0596,11.1305,11.1692,11.1599,11.2788,11.3813,11.4511,11.1696,11.0492,0.0,0.0,0.0,0.0,0.0,0.0,0.0,8.402,8.6481,9.0778,9.6207,10.1403,10.5387,11.07,11.5699,11.9489,12.3512,12.7106,12.9489,13.2106,13.3787,13.3906,13.5306,13.6705,13.7798,13.8501,13.8892,13.8892,13.8892,13.8619,13.7916,13.7213,13.6784,13.6784,13.6784,13.7096,13.7798,13.8489,13.8793,13.8791,13.8811,13.88,13.88,13.88,13.88,13.88,13.88,13.88,13.88,13.88,13.88,13.88,13.88,13.88,13.8797,13.8787,13.8785,13.8785,13.8785,13.8314,13.7611,13.6518,13.5305,13.3785,13.1911,12.9803,12.7812,12.6993,12.5587,12.4806,12.629,12.7305,12.8281,12.9686,13.0701,13.1092,13.0194,12.9413,12.8515,12.7812,12.6915,12.6212,12.6212,12.6095,12.4885,12.18,12.0707,12.0395,12.0785,12.0903,12.1293,12.1993,12.2894,12.3089,12.2386,12.0317,11.8287,11.6806,11.5906,11.5008,11.4112,11.4307,11.4307,11.4307,11.5109,11.5593,11.5804,11.7179,11.8204,11.8793,11.9709,11.8612,6.9976,7.4498,8.1516,8.5103,8.9081,9.2282,0.0,9.4624,9.7124,10.1381,10.591,10.9894,11.2709,11.6303,11.9389,12.1382,12.4703,12.7709,12.9505,13.2006,13.3889,13.4691,13.5699,13.6913,13.8593,13.8788,13.8906,13.8906,13.8906,13.8906,13.8788,13.871,13.8593,13.8593,13.8593,13.871,13.8788,13.8785,13.8898,13.8898,13.8887,13.8881,13.8881,13.8881,13.8881,13.8881,13.8881,13.8881,13.8881,13.8881,13.8881,13.8881,13.8881,13.8881,13.8915,13.8802,13.8785,13.8785,13.8785,13.8707,13.8392,13.6713,13.6086,13.5503,13.3005,13.1482,13.0506,12.9608,12.871,12.8203,12.9101,12.9999,13.0701,13.0896,13.1599,13.199,13.1092,13.0311,12.9608,12.9491,12.8205,12.7112,12.7112,12.6485,12.5314,12.3401,12.3011,12.2386,12.0981,12.1488,12.1996,12.211,12.2894,12.3401,12.3284,12.2308,12.1293,12.0317,11.9419,11.8482,11.7701,11.8404,11.8795,11.8795,11.9612,12.0508,12.1205,12.1398,12.1591,12.1703,12.32,12.2708,7.7848,8.186,8.7666,9.2606,9.7084,10.0707,10.2614,10.39,10.6005,11.0298,11.3892,11.6707,11.831,12.0107,12.1983,12.3703,12.5618,12.7689,12.9912,13.1983,13.3297,13.3281,13.3186,13.4318,13.7107,13.7382,13.7617,13.8086,13.8593,13.8906,13.8906,13.8906,13.8906,13.8906,13.8906,13.8906,13.8906,13.8903,13.8901,13.8901,13.8891,13.8885,13.8885,13.8885,13.8885,13.8885,13.8885,13.8885,13.8885,13.8885,13.8885,13.8885,13.8885,13.8885,13.8883,13.8909,13.8903,13.8903,13.8903,13.8903,13.8591,13.6793,13.6285,13.5894,13.3788,13.2882,13.2518,13.2208,13.1806,13.1599,13.199,13.2302,13.2614,13.2614,13.2887,13.2887,13.199,13.1599,13.1209,13.0701,12.9608,12.8713,12.8713,12.8008,12.6993,12.5782,12.4299,12.3284,12.3089,12.2503,12.2308,12.2815,12.3596,12.4182,12.4182,12.4299,12.3791,12.2386,12.1996,12.1215,11.981,12.0083,12.0317,12.0317,12.1605,12.2503,12.2894,12.3909,12.4416,12.4414,12.4998,12.5384,8.3941,8.8068,9.3051,9.8804,10.3817,10.7894,10.9996,11.1514,11.3305,11.6385,11.9009,12.0805,12.1389,12.2212,12.338,12.5405,12.6806,12.8403,13.0511,13.2308,13.3098,13.22,13.1113,13.1503,13.4186,13.5191,13.6093,13.7187,13.8281,13.8906,13.8906,13.8906,13.8906,13.8906,13.8906,13.8906,13.8906,13.8905,13.8903,13.8903,13.8898,13.8895,13.8895,13.8895,13.8895,13.8895,13.8895,13.8895,13.8895,13.8895,13.8895,13.8895,13.8895,13.8895,13.8895,13.8895,13.8891,13.8885,13.8885,13.8885,13.8689,13.7088,13.6502,13.5995,13.451,13.3915,13.3704,13.3704,13.3687,13.3707,13.3707,13.3707,13.3707,13.3707,13.3707,13.3512,13.2887,13.2614,13.2185,13.1599,13.0818,13.0116,12.9803,12.9296,12.8593,12.7695,12.5782,12.4611,12.5002,12.3987,12.3401,12.3987,12.4689,12.5119,12.5392,12.5782,12.5587,12.4494,12.4182,12.3596,12.2308,12.2191,12.2191,12.2191,12.3518,12.4182,12.4494,12.5704,12.629,12.629,12.6816,12.7495,8.6433,9.2371,9.8114,10.3286,10.9113,11.3696,11.459,11.6804,11.8714,11.8805,12.0211,12.1383,12.1383,12.2083,12.352,12.6116,12.8596,13.0616,13.1509,13.3102,13.3589,13.2112,13.04,12.9497,12.979,13.2318,13.4609,13.6211,13.789,13.8906,13.8906,13.8906,13.8906,13.8906,13.8906,13.8906,13.8906,13.8906,13.8906,13.8906,13.8906,13.8906,13.8906,13.8906,13.8906,13.8906,13.8906,13.8906,13.8906,13.8906,13.8906,13.8906,13.8906,13.8906,13.8906,13.8906,13.8902,13.8885,13.8885,13.8885,13.8807,13.7908,13.701,13.6112,13.5215,13.4383,13.3704,13.3704,13.3687,13.3707,13.3707,13.3707,13.3707,13.3707,13.3707,13.3707,13.3707,13.3005,13.238,13.238,13.1716,13.0818,12.9881,12.9803,12.9491,12.8593,12.7695,12.6797,12.6095,12.59,12.59,12.59,12.59,12.629,12.7112,12.6407,12.629,12.6995,12.6407,12.59,12.5782,12.5782,12.5782,12.5782,12.59,12.629,12.7112,12.7112,12.719,12.719,12.8905,12.9296,9.0262,9.6577,10.2381,10.7494,11.2809,11.7186,11.8697,12.0518,12.1796,12.1301,12.0186,11.9613,12.0186,12.0496,12.1891,12.561,12.8895,13.118,13.211,13.3195,13.292,13.0197,12.8399,12.699,12.6009,12.9105,13.1803,13.3482,13.5786,13.7307,13.7893,13.8518,13.8796,13.8807,13.8815,13.8899,13.8903,13.8906,13.8906,13.8906,13.8906,13.8906,13.8906,13.8906,13.8906,13.8906,13.8906,13.8906,13.8906,13.8906,13.8906,13.8906,13.8906,13.8906,13.8906,13.8906,13.8905,13.8903,13.8903,13.8903,13.8786,13.7888,13.7419,13.6989,13.6091,13.5696,13.5298,13.4712,13.4586,13.4418,13.3908,13.3713,13.3713,13.3713,13.3713,13.3713,13.3713,13.3519,13.3285,13.3285,13.2582,13.1917,13.1606,13.1009,13.0605,13.0313,12.8515,12.6915,12.6095,12.6017,12.6017,12.6017,12.6485,12.6915,12.719,12.75,12.75,12.719,12.6915,12.6602,12.6017,12.6017,12.6017,12.6017,12.711,12.7812,12.8086,12.9218,12.9803,12.9803,13.0389,13.0818,9.505,10.158,10.7498,11.1985,11.6511,12.0108,12.1192,12.2507,12.2807,12.0495,11.771,11.6008,11.6782,11.7014,11.8716,12.3899,12.8386,13.1414,13.1984,13.3299,13.3011,12.9697,12.8082,12.6594,12.4683,12.6692,12.8905,13.0601,13.318,13.5287,13.6685,13.7895,13.8618,13.8702,13.8696,13.8801,13.8896,13.8905,13.8906,13.8906,13.8906,13.8906,13.8906,13.8906,13.8906,13.8906,13.8906,13.8906,13.8906,13.8906,13.8906,13.8906,13.8906,13.8906,13.8906,13.8906,13.8906,13.8906,13.8906,13.8906,13.8789,13.8203,13.789,13.75,13.6914,13.6483,13.6088,13.519,13.4988,13.4785,13.3887,13.369,13.369,13.369,13.369,13.369,13.369,13.369,13.369,13.369,13.3183,13.2792,13.2519,13.1686,13.1082,13.1094,12.9686,12.8398,12.7891,12.7812,12.7812,12.7812,12.8281,12.8593,12.8593,12.9101,12.9218,12.8593,12.8593,12.8398,12.7812,12.7812,12.7812,12.7812,12.8905,12.9413,12.9413,13.0584,13.1092,13.1092,13.1404,13.1911,10.069,10.7305,11.3292,11.6579,11.9992,12.2507,12.2391,12.301,12.1994,11.682,11.2914,11.0709,11.1512,11.1706,11.3988,12.0921,12.7187,13.1094,13.122,13.3415,13.3688,13.0418,12.9309,12.7915,12.5407,12.5212,12.5895,12.7788,13.0389,13.3,13.5484,13.7305,13.8287,13.8504,13.8588,13.8687,13.8805,13.8903,13.8906,13.8906,13.8906,13.8906,13.8906,13.8906,13.8906,13.8906,13.8906,13.8906,13.8906,13.8906,13.8906,13.8906,13.8906,13.8906,13.8906,13.8906,13.8906,13.8906,13.8906,13.8906,13.8906,13.8906,13.8281,13.7695,13.7695,13.7108,13.6206,13.5308,13.5107,13.4903,13.3888,13.3693,13.381,13.381,13.381,13.381,13.381,13.3693,13.3693,13.3693,13.3693,13.3419,13.2598,13.1806,13.1201,13.1214,13.1211,13.1209,13.1092,13.1092,13.1092,13.1092,13.1092,13.1092,13.1092,13.1092,13.1092,13.1092,13.1092,13.1092,13.1092,13.1092,13.1092,13.1092,13.1092,13.1209,13.1209,13.1209,13.1209,13.1287,13.2107,13.2497,10.6918,11.3494,11.9103,12.0611,12.3087,12.4789,12.3512,12.3387,12.1492,11.4491,10.8813,10.5216,10.5409,10.5989,10.8998,11.7207,12.5098,13.0514,13.1094,13.2796,13.3,13.0312,12.8716,12.7003,12.5095,12.3805,12.4013,12.6403,12.9793,13.2603,13.4502,13.6796,13.8208,13.8385,13.8492,13.8598,13.8788,13.8901,13.8906,13.8906,13.8906,13.8906,13.8906,13.8906,13.8906,13.8906,13.8906,13.8906,13.8906,13.8906,13.8906,13.8906,13.8906,13.8906,13.8906,13.8906,13.8906,13.8906,13.8906,13.8906,13.8906,13.8906,13.8711,13.8593,13.8593,13.8398,13.789,13.6406,13.6015,13.5584,13.4217,13.4217,13.4686,13.4686,13.4686,13.4686,13.4686,13.4217,13.3787,13.3787,13.3787,13.3708,13.3391,13.3192,13.2989,13.2999,13.2993,13.2596,13.1289,13.1092,13.1092,13.1092,13.1092,13.1092,13.1092,13.1092,13.1092,13.1092,13.1092,13.1092,13.1092,13.1092,13.1092,13.1092,13.1716,13.2107,13.2107,13.2692,13.3005,13.3005,13.3317,13.3395,11.2101,11.7517,12.1888,12.3087,12.4209,12.4402,12.2313,12.0418,11.7014,10.9703,10.2508,9.8021,9.9529,10.0187,10.3514,11.2914,12.1888,12.8,12.8812,13.1094,13.179,12.9586,12.8502,12.7419,12.6104,12.5408,12.5717,12.711,12.9106,13.1392,13.3913,13.6395,13.8017,13.8298,13.8284,13.8487,13.8813,13.8904,13.8906,13.8906,13.8906,13.8906,13.8906,13.8906,13.8906,13.8906,13.8906,13.8906,13.8906,13.8906,13.8906,13.8906,13.8906,13.8906,13.8906,13.8906,13.8906,13.8906,13.8906,13.8906,13.8906,13.8906,13.8906,13.8906,13.8906,13.8906,13.8593,13.7304,13.6601,13.6093,13.5117,13.4883,13.5117,13.5508,13.5312,13.5,13.5,13.4414,13.3789,13.3789,13.3789,13.3788,13.3706,13.3706,13.3699,13.3709,13.3704,13.3305,13.2382,13.2185,13.2185,13.2185,13.2185,13.2185,13.2185,13.2185,13.2185,13.2185,13.2185,13.2185,13.2185,13.2185,13.2185,13.2185,13.2692,13.3005,13.3005,13.3785,13.4293,13.4293,13.4605,13.48,11.6588,12.0302,12.3087,12.4489,12.4093,12.2691,11.9683,11.5505,11.0206,10.3011,9.4849,8.9975,9.307,9.4114,9.7866,10.8117,11.7787,12.4402,12.5601,12.858,13.0088,12.8502,12.8309,12.8,12.7497,12.8193,12.8889,12.9083,12.9199,13.0591,13.3492,13.6084,13.7689,13.8091,13.8193,13.848,13.8905,13.8906,13.8906,13.8906,13.8906,13.8906,13.8906,13.8906,13.8906,13.8906,13.8906,13.8906,13.8906,13.8906,13.8906,13.8906,13.8906,13.8906,13.8906,13.8906,13.8906,13.8906,13.8906,13.8906,13.8906,13.8906,13.8906,13.8906,13.8906,13.8906,13.8711,13.7812,13.7109,13.6406,13.6289,13.5781,13.5508,13.6289,13.5781,13.5195,13.5195,13.4414,13.3789,13.3789,13.3789,13.3789,13.3707,13.3707,13.3702,13.3716,13.3711,13.3704,13.3715,13.3707,13.3707,13.3707,13.3707,13.3707,13.3707,13.3785,13.3902,13.3902,13.3902,13.3902,13.3902,13.3785,13.3785,13.3902,13.3902,13.3902,13.402,13.48,13.5191,13.5191,13.5893,13.6203,12.0805,12.3396,12.5292,12.4905,12.4093,12.212,11.6704,11.0515,10.3398,9.4462,8.6958,8.2348,8.3702,8.6835,9.256,10.2895,11.2991,12.0495,12.3512,12.6298,12.769,12.6684,12.6491,12.68,12.7303,12.8812,13.0321,13.1713,13.2409,13.3106,13.3686,13.6084,13.7717,13.809,13.8394,13.8585,13.8813,13.89,13.8904,13.8906,13.8906,13.8906,13.8906,13.8906,13.8906,13.8906,13.8906,0.0,13.8906,13.8906,13.8906,13.8906,13.8906,13.8906,13.8906,13.8906,13.8906,13.8906,13.8906,13.8906,13.8906,13.8906,13.8906,13.8906,13.8906,13.8906,13.8711,13.7812,13.75,13.7187,13.6484,13.6718,13.7187,13.7304,13.6718,13.6093,13.6093,13.4883,13.3789,13.3789,13.3789,13.3789,13.3789,13.3789,13.3788,13.3703,13.3701,13.3694,13.3704,13.368,13.3707,13.3707,13.3707,13.3707,13.3707,13.441,13.48,13.48,13.48,13.48,13.48,13.4098,13.402,13.48,13.48,13.5113,13.5813,13.5891,13.6011,13.6011,13.6086,13.6203,12.2507,12.4518,12.5795,12.448,12.2507,11.9103,11.2179,10.4287,9.6164,8.8118,8.0266,7.5701,7.837,8.0885,8.6223,9.7363,10.6995,11.4616,11.8909,12.2507,12.4712,12.4712,12.5485,12.6607,12.7884,13.0011,13.1597,13.2409,13.3686,13.4614,13.5001,13.67,13.7791,13.8019,13.8296,13.8614,13.87,13.8807,13.8901,13.8906,13.8906,13.8906,13.8906,13.8906,13.8906,13.8906,13.8906,13.8906,13.8906,13.8906,13.8906,13.8906,13.8906,13.8906,13.8906,13.8906,13.8906,13.8906,13.8906,13.8906,13.8906,13.8906,13.8906,13.8906,13.8906,13.8906,13.8789,13.8398,13.789,13.7617,13.7617,13.7617,13.7695,13.8203,13.7617,13.6914,13.6406,13.5703,13.5117,13.5117,13.5117,13.5117,13.5117,13.5117,13.4882,13.4409,13.4799,13.491,13.4412,13.4789,13.4698,13.3785,13.3707,13.3707,13.3707,13.4488,13.4996,13.4996,13.5386,13.5581,13.5581,13.5191,13.5191,13.5581,13.5581,13.5815,13.6203,13.6713,13.6908,13.6908,13.7806,13.8197,12.359,12.5214,12.5795,12.3512,12.0108,11.5196,10.7189,9.7673,8.866,8.1974,7.4237,6.9749,7.3308,7.5243,7.9924,9.0988,10.0303,10.8001,11.33,11.8213,12.1617,12.2584,12.4402,12.6298,12.8193,13.0707,13.2409,13.268,13.4189,13.5388,13.6316,13.7079,13.7499,13.7304,13.7696,13.7897,13.7982,13.8196,13.8309,13.8281,13.8281,13.8281,13.8281,13.8281,13.8281,13.8398,13.8515,13.8593,13.8593,13.8789,13.8906,13.8906,13.8906,13.8906,13.8906,13.8906,13.8906,13.8906,13.8906,13.8906,13.8906,13.8906,13.8906,13.8906,13.8906,13.8906,13.8906,13.8906,13.8398,13.8007,13.8711,13.8398,13.8007,13.8515,13.8086,13.7382,13.6484,13.6289,13.6289,13.6289,13.6289,13.6289,13.6289,13.6289,13.6093,13.5388,13.5895,13.6085,13.5396,13.5898,13.5811,13.4412,13.4215,13.4215,13.4215,13.4996,13.5503,13.5503,13.6089,13.6518,13.6518,13.6281,13.6281,13.6518,13.6518,13.6596,13.6791,13.7416,13.7884,13.8119,13.9485,14.0188,12.5408,12.6607,12.6298,12.2197,11.7517,11.1405,10.2113,9.0974,8.084,7.4773,6.8589,6.4643,6.5842,6.9247,7.4546,8.267,9.2451,10.1115,10.6995,11.3494,11.829,11.9915,12.2197,12.4712,12.7303,12.9779,13.1984,13.3492,13.4498,13.5388,13.6316,13.639,13.6197,13.561,13.5795,13.5992,13.6113,13.6291,13.6505,13.6484,13.6484,13.6484,13.6484,13.6484,13.6484,13.6601,13.7382,13.7695,0.0,13.8593,13.8906,13.8906,13.8906,13.8906,13.8906,13.8906,13.8906,13.8906,13.8906,13.8906,13.8906,13.8906,13.8906,13.8906,13.8906,13.8906,13.8906,13.8906,13.8789,13.8789,13.8906,13.8789,13.8593,13.789,13.7695,13.7382,13.6484,13.6289,13.6289,13.6289,13.6289,13.6289,13.6289,13.6289,13.6289,13.6211,13.6211,13.6287,13.6191,13.6304,13.6214,13.6016,13.6008,13.6008,13.6008,13.6791,13.7299,13.7299,13.7299,13.7416,13.7416,13.6596,13.6596,13.7416,13.7416,13.7806,13.859,13.859,13.9095,13.9914,13.9992,14.05,12.3087,12.5214,12.5601,12.1308,11.6008,10.92,9.9259,8.777,7.7674,7.2187,6.6306,6.2554,6.3947,6.6423,7.075,7.8492,8.661,9.4223,10.069,10.7498,11.2681,11.4886,11.7778,12.0921,12.4015,12.711,13.0204,13.3492,13.3995,13.4382,13.4692,13.5313,13.5392,13.5084,13.5393,13.5588,13.5782,13.6091,13.6181,13.6289,13.6289,13.6289,13.6289,13.6289,13.6289,13.6289,13.6718,13.7109,0.0,13.8007,13.8398,13.8906,13.8906,13.8906,13.8906,13.8906,13.8906,13.8906,13.8906,13.8906,13.8906,13.8906,13.8906,13.8906,13.8906,13.8906,13.8906,13.8906,13.8906,13.8906,13.8906,13.8906,13.8789,13.8515,13.8398,13.8281,13.789,13.789,13.789,13.789,13.789,13.789,13.789,13.789,13.7695,13.7187,13.75,13.7694,13.7092,13.7518,13.7818,13.7811,13.6791,13.6203,13.6203,13.6986,13.7494,13.7494,13.8002,13.8314,13.8314,13.8509,13.8704,13.9095,13.9602,13.9992,14.0386,14.0386,14.05,14.089,14.1398,14.1905,11.9683,12.301,12.4209,11.9412,11.3494,10.6221,9.5932,8.4559,7.485,7.0214,6.4909,6.1466,6.2709,6.4097,6.7191,7.3651,8.0227,8.688,9.3727,10.0999,10.6686,10.9501,11.2789,11.6395,12.0108,12.4596,12.8889,13.268,13.3183,13.3299,13.3299,13.3918,13.4305,13.4305,13.4586,13.4802,13.4899,13.528,13.5509,13.5586,13.5586,13.5586,13.5586,13.5586,13.5586,13.5586,13.5781,13.6289,0.0,13.7109,13.7617,13.8086,13.8086,13.8086,13.8086,13.8086,13.8086,13.8203,13.8398,13.8515,13.8593,13.8789,13.8906,13.8906,13.8906,13.8906,13.8906,13.8906,13.8906,13.8906,13.8906,13.8906,13.8906,13.8906,13.8906,13.8906,13.8906,13.8906,13.8906,13.8906,13.8906,13.8906,13.8906,13.8906,13.8711,13.8086,13.8515,13.871,13.8112,13.85,13.8881,13.8802,13.7702,13.6994,13.6986,13.7494,13.7884,13.7884,13.8509,13.8902,13.9212,13.9797,14.0188,14.05,14.1086,14.1398,14.1398,14.1398,14.1515,14.1788,14.2413,14.2686,11.5621,12.0293,12.212,11.6085,10.9509,10.1812,9.1522,8.0614,7.1678,6.8236,6.4097,6.1118,6.1118,6.1848,6.355,6.7036,7.2607,7.8912,8.5752,9.4029,10.0682,10.4086,10.7498,11.1289,11.5583,12.2894,12.8502,13.0978,13.1984,13.2487,13.2487,13.2487,13.2487,13.2487,13.2792,13.3006,13.3112,13.3486,13.3713,13.3789,13.3789,13.3789,13.3789,13.3789,13.3789,13.3906,13.4687,13.5,0.0,13.6015,13.6289,13.6289,13.6289,13.6289,13.6289,13.6289,13.6289,13.6484,13.7304,13.7617,13.7812,13.8593,13.8906,13.8906,13.8906,13.8906,13.8906,13.8906,13.8906,13.8906,13.8906,13.8906,13.8906,13.8906,13.8906,13.8906,13.8906,13.8906,13.8906,13.8906,13.8906,13.8906,13.8906,13.8906,13.8906,13.8906,13.8906,13.8906,13.8901,13.8901,13.8894,13.8786,13.878,13.8811,13.8787,13.8785,13.8785,13.8785,13.8785,13.9212,14.011,14.011,14.05,14.1398,14.1398,14.1398,14.1398,14.1398,14.1788,14.2686,14.2686,14.2686,10.6802,11.1598,11.3687,10.8813,10.2895,9.6087,8.7615,7.7989,7.002,6.7191,6.3671,6.1118,6.1118,6.181,6.3318,6.6147,7.1175,7.7094,8.394,9.2218,9.9297,10.3901,11.0515,11.6008,11.9103,12.4209,12.8502,13.0988,13.1984,13.2487,13.2487,13.2518,13.2479,13.2497,13.2792,13.3006,13.3112,13.3407,13.3713,13.3789,13.3789,13.3789,13.3789,13.3789,13.3789,13.3789,13.4101,13.4492,13.5,13.5312,13.5781,13.6289,13.6289,13.6289,13.6289,13.6289,13.6289,13.6289,13.6601,13.7109,13.7617,13.789,13.8398,13.8906,13.8906,13.8906,13.8906,13.8906,13.8906,13.8906,13.8906,13.8906,13.8906,13.8906,13.8906,13.8906,13.8906,13.8906,13.8906,13.8906,13.8906,13.8906,13.8906,13.8906,13.8906,13.8906,13.8906,13.8906,13.8902,13.8901,13.8894,13.8786,13.878,13.8811,13.8787,13.929,13.968,13.968,14.0188,14.0695,14.1007,14.1593,14.1983,14.2296,14.2881,14.3194,14.3194,14.3194,14.3311,14.3584,14.3584,14.3584,9.7363,10.2701,10.51,10.1115,9.6087,9.0207,8.2864,7.4895,6.8313,6.5765,6.3052,6.1118,6.1118,6.1539,6.2627,6.487,6.8777,7.4077,8.1581,9.0246,9.8678,10.6415,11.2914,11.7594,11.9799,12.3899,12.7497,13.0011,13.1017,13.152,13.152,13.1618,13.1616,13.1586,13.2505,13.3014,13.3209,13.3512,13.368,13.3789,13.3789,13.3789,13.3789,13.3789,13.3789,13.3789,13.3789,13.4101,0.0,13.4492,13.4883,13.539,13.539,13.539,13.539,13.539,13.539,13.539,13.5703,13.6211,13.6718,13.7382,13.8203,13.8906,13.8906,13.8906,13.8906,13.8906,13.8906,13.8906,13.8906,13.8906,13.8906,13.8906,13.8906,13.8906,13.8906,13.8906,13.8906,13.8906,13.8906,13.8906,13.8906,13.8906,13.8906,13.8906,13.8906,13.8906,13.8904,13.8904,13.8899,13.8796,13.8791,13.9015,13.9295,13.9797,14.0188,14.0617,14.1086,14.1515,14.1905,14.2413,14.2881,14.3194,14.3701,14.4013,14.4013,14.4013,14.4013,14.4013,14.4013,14.4013,0.0,9.3572,9.6319,9.2908,8.8924,8.4057,7.7448,7.1407,0.0,6.4101,6.2278,6.1118,6.1118,6.1195,6.1853,6.3521,6.6147,7.0905,7.937,8.9124,9.9684,11.1289,11.4809,11.7014,11.86,12.2507,12.5988,12.8386,12.9392,12.9885,12.9885,13.0018,13.0085,13.0181,13.1989,13.2998,13.3106,13.3397,13.3496,13.3593,13.3711,13.3711,13.3711,13.3789,13.3789,0.0,13.3789,13.3789,13.3789,13.3789,13.3789,13.3789,13.3789,13.3789,13.3789,13.3789,13.3789,13.3906,13.4687,13.5,13.5312,13.6992,13.8086,13.8789,13.8906,13.8906,13.8906,13.8906,13.8906,13.8906,13.8906,13.8906,13.8906,13.8906,13.8906,13.8906,13.8906,13.8906,13.8906,13.8906,13.8906,13.8906,13.8906,13.8906,13.8906,13.8906,13.8906,13.8906,13.8906,13.8906,13.8905,13.8889,13.8885,13.9301,14.0115,14.0188,14.0617,14.1398,14.1593,14.1905,14.2803,14.2803,14.3194,14.4013,14.4013,14.4013,14.4013,14.4013,14.4013,14.4013,14.4013,14.4013,7.3657,0.0,8.6726,8.3902,8.0492,7.6701,0.0,6.7931,6.4217,6.2975,6.1853,6.1118,6.1118,6.2201,6.3444,6.4527,6.9048,7.516,8.3012,9.7247,10.9587,11.7014,11.9606,12.1192,12.2197,12.4982,12.7303,12.8502,12.9392,12.9885,12.9885,13.0111,13.0283,13.0414,13.111,13.1409,13.1497,13.1595,13.1707,13.1797,13.25,13.2812,13.2812,13.3515,13.3789,13.3789,13.3789,13.3789,13.3789,13.3789,13.3789,13.3789,13.3789,13.3789,13.3789,13.3789,13.3789,13.3789,13.3984,13.4492,13.5312,13.6992,13.7695,13.8007,13.8711,13.8906,13.8906,13.8906,13.8906,13.8906,13.8906,13.8906,13.8906,13.8906,13.8906,13.8906,13.8906,13.8906,13.8906,13.8906,13.8906,13.8906,13.8906,13.8906,13.8906,13.8906,13.8906,13.8906,13.8906,13.8906,13.8905,13.8889,13.8885,13.9498,14.1013,14.1086,14.1515,14.2296,14.2998,14.3506,14.3701,14.3701,14.3818,14.4013,14.4013,14.4013,14.4013,14.4013,14.4013,14.4013,14.4013,14.4013,6.6887,7.2844,7.7906,7.6475,7.4154,7.1402,6.8395,6.5339,6.2859,6.1964,6.1423,6.135,6.2162,6.3405,6.5107,6.7506,7.2258,8.0227,9.3418,10.5912,11.6085,12.2507,12.4093,12.4789,12.5214,12.6607,12.7613,12.8,12.8502,12.8812,12.8812,12.9018,12.919,12.931,12.9596,13.0212,13.1004,13.111,13.1205,13.1211,13.1718,13.2109,13.25,13.3008,13.3398,13.3789,13.3789,13.3789,13.3789,13.3789,13.3789,13.3789,13.3789,13.3789,13.3789,13.3789,13.3789,13.3789,13.3789,13.4297,13.5195,13.6093,13.6914,13.7695,13.8203,13.8593,13.8906,13.8906,13.8906,13.8906,13.8906,13.8906,13.8906,13.8906,13.8906,13.8906,13.8906,13.8906,13.8984,13.9414,13.9218,13.8984,13.9414,13.9218,13.8906,13.8906,13.8906,13.8984,13.9414,13.9492,13.9608,13.9981,14.0017,14.059,14.1911,14.1983,14.2413,14.3194,14.3701,14.4013,14.4013,14.4013,14.4013,14.4013,14.4013,14.4013,14.4013,14.4013,14.4013,14.4013,14.4013,14.4013,6.4063,6.7699,7.0789,7.1214,7.0247,6.8545,6.6147,6.4213,6.2738,6.1853,6.1776,6.2356,6.3985,6.5417,6.7699,7.18,7.7287,8.7267,10.5293,11.3416,11.9992,12.6607,12.7381,12.7381,12.7381,12.7381,12.7381,12.7381,12.7381,12.7381,12.7381,12.771,12.7911,12.8003,12.8296,12.9206,13.0688,13.0813,13.0818,13.0781,13.0898,13.1406,13.2109,13.2187,13.2695,13.3398,13.3515,0.0,13.3593,13.3711,13.3789,13.3789,13.3789,13.3789,13.3789,13.3789,13.3789,13.3789,13.3789,13.4218,13.4804,13.5,13.6015,13.7187,13.7382,13.8007,13.8711,13.8711,13.8789,13.8906,13.8906,13.8906,13.8906,13.8906,13.8906,13.8906,13.8906,13.8906,13.9101,13.9882,13.9414,13.9101,13.9882,13.9414,13.8906,13.8906,13.8906,13.9218,14.0117,14.0195,14.0506,14.1309,14.1384,14.18,14.2613,14.2686,14.3116,14.3896,14.4013,14.4013,14.4013,14.4013,14.4013,14.4013,14.4013,14.4013,14.4013,14.4013,14.4013,14.4013,14.4013,14.4013,6.298,6.5958,6.8584,7.075,7.1098,7.044,6.8622,6.6882,6.5373,6.4566,6.4948,6.5721,6.6727,6.9976,7.369,7.7248,8.8041,9.956,10.9896,11.5892,12.1308,12.68,12.7381,12.7381,12.7381,12.7381,12.7381,12.7381,12.7381,12.7381,12.7381,12.771,12.7911,12.7998,12.8293,12.8711,12.8984,12.8984,12.8984,12.8984,12.9687,13.0195,13.0312,13.1093,13.1484,13.1601,0.0,13.2695,13.2812,13.3515,13.3789,13.3789,13.3789,13.3789,13.3789,13.3789,13.3789,13.3789,13.3789,13.3906,13.4101,13.4804,13.5195,13.5508,13.6289,13.7109,13.7812,13.7812,13.8281,13.8906,13.8906,13.8906,13.8906,13.8906,13.8906,13.8906,13.8906,13.8906,13.8906,13.9101,13.8984,13.8906,13.9101,13.8984,13.8906,13.8906,13.8906,13.9218,14.0117,14.0195,14.0506,14.1309,14.1384,14.18,14.2613,14.2686,14.3116,14.3896,14.4013,14.4013,14.4013,14.4013,14.4013,14.4013,14.4013,14.4013,14.4013,14.4013,14.4013,14.4013,14.4013,14.4013,6.1505,6.4483,6.7539,7.0556,7.2336,7.3032,7.1827,7.0943,6.9976,6.8666,6.8705,6.9512,7.1286,7.4728,8.0066,8.8582,9.7943,10.6686,11.3794,11.8484,12.27,12.6916,12.7381,12.7381,12.7381,12.7381,12.7187,12.6684,12.711,12.7187,12.6684,12.74,12.7911,12.8003,12.8296,12.8517,12.8593,12.8593,12.8593,12.8593,12.8984,12.9414,12.9883,13.0312,13.0781,13.1211,0.0,13.2109,13.25,13.289,13.3398,13.3789,13.3789,13.3789,13.3789,13.3789,13.3789,13.3789,13.3789,13.3789,13.3906,13.4218,13.4609,13.5117,13.5508,13.6484,13.7617,13.7617,13.8203,13.8906,13.8906,13.8906,13.8906,13.8906,13.8906,13.8906,13.8906,13.8906,13.8984,13.9492,13.9218,13.8984,13.9492,13.9218,13.8906,13.8906,13.8906,13.9414,14.0703,14.0898,14.1405,14.2715,14.279,14.3011,14.3394,14.3389,14.3584,14.4013,14.4013,14.4013,14.4013,14.4013,14.4013,14.4013,14.4013,14.4013,14.4013,14.4013,14.4013,14.4013,14.4013,14.3701,6.0306,6.3323,6.6688,6.9899,7.3071,7.5314,7.4889,7.5237,7.5237,7.369,7.3883,7.4889,7.6862,8.0801,8.7383,9.84,10.5293,11.1095,11.6704,12.0418,12.3706,12.6684,12.7303,12.7381,12.7381,12.7381,12.6994,12.6182,12.6916,12.6994,12.6104,12.7206,12.7911,12.8003,12.8296,12.8517,12.8593,12.8593,12.8593,12.8593,12.8593,12.8906,12.9609,12.9609,13.0,13.0586,13.0781,13.1289,13.1914,13.2304,13.289,13.3515,13.3711,13.3789,13.3789,13.3789,13.3789,13.3789,13.3789,13.3789,13.3789,13.3789,13.4218,13.4687,13.4687,13.5898,13.7304,13.7304,13.8086,13.8906,13.8906,13.8906,13.8906,13.8906,13.8906,13.8906,13.8906,13.8906,13.9101,13.9804,13.9414,13.9101,13.9804,13.9297,13.8906,13.8906,13.8906,13.9492,14.1015,14.1211,14.1795,14.3184,14.3415,14.3401,14.3394,14.3584,14.3701,14.3701,14.3896,14.4013,14.4013,14.4013,14.4013,14.4013,14.4013,14.4013,14.4013,14.4013,14.4013,14.4013,14.4013,14.3506,5.9919,6.2477,6.5726,6.8313,7.2684,7.6519,7.7248,7.926,8.0685,7.9757,8.1504,8.3244,8.3399,8.9433,9.628,10.2005,10.7885,11.33,11.771,12.1308,12.4093,12.5988,12.6916,12.7381,12.7381,12.7381,12.6994,12.6182,12.6916,12.6994,12.6104,12.7206,12.7911,12.7998,12.8293,12.8517,12.8593,12.8593,12.8593,12.8593,12.8593,12.8593,12.8711,12.8711,12.8711,12.8789,12.9609,13.0,13.0195,13.1797,13.25,13.2695,13.3515,13.3789,13.3789,13.3789,13.3789,13.3789,13.3789,13.3789,13.3789,13.3789,13.3789,13.3906,13.3906,13.5117,13.6406,13.6406,13.7617,13.8906,13.8906,13.8906,13.8906,13.8906,13.8906,13.8906,13.8906,13.8906,13.8906,13.8984,13.8906,13.8906,13.8984,13.8906,13.8906,13.8906,13.8906,13.9218,14.0195,14.0312,14.0584,14.1504,14.1619,14.1605,14.1598,14.2296,14.2803,14.2803,14.3584,14.4013,14.4013,14.4013,14.4013,14.4013,14.4013,14.4013,14.4013,14.4013,14.4013,14.4013,14.4013,14.3506,6.019,6.2012,6.4798,6.7346,7.222,7.7332,8.0891,8.4443,8.7267,8.7995,8.9782,9.1019,9.0485,9.4934,10.0195,10.479,11.009,11.5118,11.9412,12.2004,12.4093,12.5911,12.6414,12.68,12.7303,12.7381,12.68,12.5408,12.6607,12.68,12.5408,12.6896,12.7594,12.7213,12.7512,12.7697,12.7812,12.7812,12.8086,12.8593,12.8593,12.8593,12.8593,12.8593,12.8593,12.8593,12.8906,12.9414,13.0,13.0586,13.1484,13.2617,13.3515,13.3789,13.3789,13.3789,13.3789,13.3789,13.3789,13.3789,13.3789,13.3789,13.3789,13.3789,13.3789,13.5,13.6289,13.6289,13.7617,13.8906,13.8906,13.8906,13.8906,13.8906,13.8906,13.8906,13.8906,13.8906,13.8906,13.8906,13.8906,13.8906,13.8906,13.8906,13.9101,13.9609,13.9218,13.9414,14.0781,14.0507,14.0507,14.1397,14.1382,14.1402,14.1386,14.2189,14.2686,14.2686,14.3506,14.4013,14.4013,14.4013,14.4013,14.4013,14.4013,14.4013,14.4013,14.4013,14.3701,14.3194,14.3194,14.2413,6.0344,6.1548,6.3908,6.6456,7.1988,7.8376,8.4327,8.9163,9.2992,9.5004,9.6744,9.7479,9.6087,9.8872,10.2585,10.6384,11.1289,11.6008,11.9992,12.2313,12.389,12.5098,12.5485,12.5911,12.6491,12.6607,12.5988,12.448,12.5717,12.6104,12.4915,12.6406,12.7009,12.6305,12.7087,12.721,12.6482,12.6991,12.75,12.7812,12.7812,12.8086,12.8593,12.8281,12.8281,12.8593,12.8593,12.8906,12.9492,12.9804,13.0898,13.2617,13.3203,13.3593,13.3789,13.3789,13.3789,13.3789,13.3789,13.3789,13.3789,13.3789,13.3789,13.3789,13.3789,13.5,13.6289,13.6289,13.7617,13.8906,13.8906,13.8906,13.8906,13.8906,13.8906,13.8906,13.8906,13.8906,13.8906,13.8906,13.8906,13.8906,13.8906,13.8906,13.9101,13.9687,13.9297,13.9297,14.0507,14.0195,13.9999,14.0581,14.0599,14.0616,14.0616,14.1413,14.1905,14.1905,14.2686,14.3389,14.4013,14.3701,14.3701,14.4013,14.3701,14.3584,14.3584,14.3311,14.2881,14.2296,14.2296,14.1515,6.0383,6.1195,6.3086,6.5644,7.2065,7.9763,8.7429,9.3147,9.7595,10.0195,10.2082,10.2508,9.9831,10.1502,10.4094,10.6616,11.1289,11.5815,11.918,12.1888,12.3503,12.3503,12.4286,12.4799,12.4799,12.4799,12.4402,12.358,12.4286,12.4799,12.4799,12.5882,12.6087,12.529,12.7197,12.7117,12.4707,12.6398,12.6794,12.6015,12.6015,12.6914,12.8515,12.7695,12.7812,12.8593,12.8593,12.8593,12.8711,12.9492,13.0898,13.25,13.25,13.3008,13.3789,13.3789,13.3789,13.3789,13.3789,13.3789,13.3789,13.3789,13.3789,13.3789,13.3789,13.5,13.6289,13.6289,13.75,13.8906,13.8906,13.8906,13.8906,13.8906,13.8906,13.8906,13.8906,13.8906,13.8906,13.8906,13.8906,13.8906,13.8906,13.8906,13.8906,13.8906,13.8906,13.8906,13.8906,13.8906,13.8906,13.8901,13.8803,13.8782,13.8782,13.9617,14.011,14.011,14.089,14.2218,14.3896,14.3194,14.3116,14.4013,14.3116,14.2686,14.2686,14.1788,14.1398,14.1398,14.1398,14.089,6.398,6.5141,6.7191,7.2142,7.8254,8.4908,9.1986,9.7131,10.2082,10.8319,10.9007,10.7614,10.4395,10.5409,10.6995,10.7816,11.2217,11.6511,11.9296,12.1385,12.2894,12.3387,12.3696,12.4093,12.4712,12.4799,12.4402,12.358,12.4286,12.448,12.3899,12.4892,12.5089,12.4293,12.5098,12.5211,12.4594,12.521,12.5619,12.6015,12.539,12.5703,12.6797,12.7109,12.7383,12.7695,12.8281,12.8593,12.8711,12.9492,13.0586,13.1601,13.2304,13.3008,13.3789,13.3789,13.3789,13.3789,13.3789,13.3789,13.3789,13.3789,13.3789,13.3789,13.3789,13.4492,13.539,13.539,13.6211,13.7109,13.7109,13.75,13.8086,13.8789,13.8906,13.8906,13.8906,13.8906,13.8906,13.8906,13.8906,13.8906,13.8906,13.8906,13.9101,13.9687,13.9297,13.8906,13.8906,13.8906,13.8906,13.8906,13.8894,13.8918,13.8918,13.959,14.011,14.011,14.0305,14.1007,14.2101,14.2491,14.2491,14.2218,14.2491,14.2413,14.1788,14.1515,14.1086,14.05,14.05,13.9992,6.4831,6.7346,7.0518,7.6862,8.394,9.1677,10.062,10.4287,10.7614,11.3184,11.33,11.1405,10.831,10.8891,10.9819,10.9819,11.3184,11.6782,11.9296,12.0882,12.212,12.2894,12.301,12.3203,12.3783,12.3783,12.359,12.3087,12.3512,12.3706,12.3503,12.4094,12.4085,12.3319,12.4312,12.4303,12.3406,12.4288,12.4792,12.5,12.4492,12.4492,12.5,12.5898,12.6718,12.7304,12.8203,12.8593,12.8593,12.9218,12.9883,13.0703,13.1289,13.1992,13.2812,13.2812,13.3008,13.3281,13.3281,13.3515,13.3789,13.3789,13.3789,13.3789,13.3789,13.4414,13.5,13.5,13.5586,13.6289,13.6289,13.6914,13.7695,13.8281,13.8593,13.8906,13.8906,13.8906,13.8906,13.8906,13.8906,13.8906,13.8906,13.8906,13.9101,13.9609,13.9218,13.8906,13.8906,13.8906,13.8906,13.8906,13.8898,13.8885,13.8885,13.9282,13.9602,13.9602,13.9602,13.9797,14.0307,14.1203,14.1593,14.1398,14.1593,14.1398,14.089,14.05,14.011,13.9602,13.9602,13.929,6.4295,6.8666,7.3612,8.0762,8.9704,9.9723,11.0988,11.2991,11.3098,11.5505,11.5389,11.4113,11.1714,11.1985,11.2479,11.2479,11.4499,11.6898,11.9296,12.0379,12.1308,12.212,12.2313,12.2313,12.2313,12.2313,12.2313,12.2313,12.2313,12.2584,12.3387,12.3489,12.3191,12.2484,12.4293,12.4197,12.1889,12.3709,12.4198,12.3515,12.3515,12.3515,12.3515,12.4414,12.5703,12.7304,12.8203,12.8593,12.8593,12.8593,12.9101,12.9883,12.9883,13.039,13.1211,13.1211,13.1797,13.25,13.25,13.3086,13.3789,13.3789,13.3789,13.3789,13.3789,13.4297,13.4883,13.4883,13.5508,13.6093,13.6093,13.6718,13.7382,13.7382,13.8203,13.8906,13.8906,13.8906,13.8906,13.8906,13.8906,13.8906,13.8906,13.8906,13.8906,13.8906,13.8906,13.8906,13.8906,13.8906,13.8906,13.8906,13.8898,13.8885,13.8885,13.8813,13.8785,13.8785,13.8785,13.8785,13.8785,13.9602,14.0383,14.1086,14.05,14.011,13.9992,13.9212,13.8785,13.8785,13.8785,13.8785,6.7893,7.3071,7.8602,8.8157,9.8562,10.7885,11.3107,11.4693,11.5389,11.6704,11.682,11.6318,11.5002,11.5505,11.5892,11.5196,11.6588,11.8106,11.8609,11.9992,12.1114,12.1308,12.1888,12.2313,12.2313,12.2313,12.2313,12.2313,12.2313,12.2391,12.2507,12.2603,12.2505,12.2291,12.3001,12.3099,12.2696,12.3317,12.3603,12.3515,12.3515,12.3515,12.3515,12.4414,12.5703,12.7304,12.8203,12.8593,12.8593,12.8593,12.9101,12.9883,12.9883,13.039,13.1211,13.1211,13.1797,13.25,13.25,13.3086,13.3789,13.3789,13.3789,13.3789,13.3789,13.3906,13.4101,13.4101,13.4218,13.4297,13.4297,13.4883,13.5586,13.5586,13.7304,13.8906,13.8906,13.8906,13.8906,13.8906,13.8906,13.8906,13.8906,13.8906,13.8906,13.8906,13.8906,13.8906,13.8906,13.8906,13.8906,13.8906,13.8898,13.8885,13.8885,13.8813,13.8785,13.8785,13.8785,13.8785,13.8785,13.9602,13.9914,13.941,13.9797,13.9797,13.9095,13.8902,13.8785,13.8785,13.8785,13.8785,6.7887,7.5005,8.3399,9.6938,10.5912,11.1985,11.4616,11.5892,11.6704,11.7082,11.7207,11.7091,11.6588,11.6898,11.7091,11.6588,11.7285,11.7981,11.829,11.918,12.0108,12.0882,12.1385,12.181,12.2313,12.2313,12.2313,12.2313,12.2313,12.2313,12.2313,12.2313,12.2313,12.2313,12.2597,12.2784,12.2898,12.3188,12.3405,12.3515,12.3515,12.3515,12.3515,12.4804,12.5898,12.6718,12.8008,12.8593,12.8593,12.8593,12.8906,12.9297,12.9297,12.9609,13.0,13.0,13.0781,13.1914,13.1914,13.2695,13.3789,13.3789,13.3789,13.3789,13.3789,13.3789,13.3789,13.3789,13.3789,13.3789,13.3789,13.4414,13.5,13.5,13.6718,13.8281,13.8281,13.8593,13.8906,13.8906,13.8906,13.8906,13.8906,13.8906,13.8906,13.8906,13.8906,13.8906,13.8906,13.8906,13.8906,13.8906,13.8898,13.8885,13.8885,13.8813,13.8785,13.8785,13.8785,13.8785,13.8785,13.9212,13.929,13.8785,13.9212,13.929,13.8785,13.8785,13.8785,13.8785,13.8785,13.8785,6.6644,7.6939,8.9131,10.4481,11.0902,11.3881,11.5505,11.6588,11.7207,11.7207,11.7207,11.7207,11.7207,11.7207,11.7207,11.7207,11.7207,11.7401,11.8097,11.8299,11.8909,12.0379,12.0689,12.1114,12.181,12.1888,12.1888,12.1888,12.2004,12.212,12.212,12.2197,12.2313,12.2313,12.2597,12.2784,12.2898,12.3188,12.3405,12.3515,12.3515,12.3515,12.3593,12.5117,12.5781,12.5898,12.7617,12.8398,12.8398,12.8515,12.8593,12.8593,12.8593,12.8593,12.8593,12.8593,12.9687,13.1211,13.1211,13.2304,13.3789,13.3789,13.3789,13.3789,13.3789,13.3789,13.3789,13.3789,13.3789,13.3789,13.3789,13.4297,13.4804,13.4804,13.6015,13.7187,13.75,13.8281,13.8906,13.8906,13.8906,13.8906,13.8906,13.8906,13.8906,13.8906,13.8906,13.8906,13.8906,13.8906,13.8906,13.8906,13.8898,13.8885,13.8885,13.8813,13.8785,13.8785,13.8785,13.8785,13.8785,13.8785,13.8785,13.8785,13.8785,13.8785,13.8785,13.8785,13.8785,13.8785,13.8785,13.8785,6.649,8.2161,9.8021,10.6183,11.1405,11.4693,11.5699,11.6588,11.7207,11.7207,11.7207,11.7207,11.7207,11.7207,11.7207,11.7207,11.7207,11.7207,11.7285,11.7981,11.8493,11.8677,11.9412,11.9915,11.9992,11.9992,11.9992,11.9992,12.0689,12.1192,12.1192,12.1888,12.2313,12.2313,12.2597,12.2784,12.2898,12.3188,12.3405,12.3515,12.3515,12.3515,12.3515,12.4492,12.5,12.5117,12.6718,12.75,12.75,12.8281,12.8593,12.8593,12.8593,12.8593,12.8593,12.8593,12.9687,13.1211,13.1211,13.2304,13.3789,13.3789,13.3789,13.3789,13.3789,13.3789,13.3789,13.3789,13.3789,13.3789,13.3789,13.3906,13.3984,13.3984,13.4687,13.5781,13.7304,13.8281,13.8906,13.8906,13.8906,13.8906,13.8906,13.8906,13.8906,13.8906,13.8906,13.8906,13.8906,13.8906,13.8906,13.8906,13.8898,13.8885,13.8885,13.8813,13.8785,13.8785,13.8785,13.8785,13.8785,13.8785,13.8785,13.8785,13.8785,13.8785,13.8785,13.8785,13.8785,13.8785,13.8785,13.8785,7.2645,8.6416,9.864,10.6918,11.1405,11.3997,11.4383,11.5505,11.6511,11.6511,11.6898,11.7207,11.7207,11.7207,11.7005,11.6588,11.6511,11.6318,11.5815,11.6008,11.6511,11.6898,11.7285,11.7787,11.829,11.829,11.8484,11.8909,11.9296,11.9992,12.0882,12.1385,12.1617,12.1617,12.1814,12.1806,12.1383,12.1705,12.2194,12.2812,12.2812,12.3008,12.3515,12.3906,12.4297,12.4883,12.6601,12.7304,12.7383,12.8203,12.8593,12.8593,12.8593,12.8593,12.8593,12.8593,12.9414,13.0508,13.0508,13.1289,13.2304,13.2304,13.2304,13.2304,13.2304,13.2695,13.3086,13.3086,13.3398,13.3789,13.3789,13.3789,13.3789,13.3789,13.4414,13.5195,13.6015,13.7187,13.8281,13.8789,13.8906,13.8906,13.8906,13.8906,13.8906,13.8906,13.8906,13.8906,13.8906,13.8906,13.8906,13.8906,13.8898,13.8885,13.8885,13.8813,13.8785,13.8785,13.8785,13.8785,13.8785,13.8785,13.8785,13.8785,13.8785,13.8785,13.8785,13.8785,13.8785,13.8785,13.8785,13.8785,7.5475,8.6423,9.5236,10.3514,10.831,11.1211,11.1598,11.3184,11.4886,11.5699,11.6201,11.6704,11.7082,11.7207,11.6898,11.6008,11.5892,11.5583,11.4693,11.4616,11.4886,11.5815,11.5892,11.6201,11.7082,11.7014,11.7207,11.7981,11.8097,11.8793,12.0302,12.0495,12.0689,12.0689,12.0883,12.0794,12.0292,12.0605,12.1115,12.1914,12.2109,12.25,12.3203,12.3398,12.3906,12.4609,12.6015,12.6718,12.6718,12.7812,12.8281,12.8281,12.8515,12.8593,12.8593,12.8789,12.9492,13.0312,13.0508,13.1015,13.1484,13.1484,13.1406,13.1211,13.1211,13.1797,13.25,13.25,13.3086,13.3789,13.3789,13.3789,13.3789,13.3789,13.4297,13.4883,13.5508,13.6718,13.789,13.8711,13.8906,13.8906,13.8906,13.8906,13.8906,13.8906,13.8906,13.8906,13.8906,13.8906,13.8906,13.8906,13.89,13.889,13.889,13.8782,13.8795,13.8795,13.8787,13.8785,13.8785,13.8785,13.8785,13.8785,13.8785,13.8785,13.8785,13.8785,13.8785,13.8785,13.8785,13.8785,7.0092,7.9337,8.835,9.365,9.9955,10.5293,10.7003,10.9316,11.1985,11.5196,11.5312,11.5196,11.6898,11.7207,11.6898,11.6008,11.5892,11.5583,11.4693,11.4616,11.4886,11.5815,11.5892,11.6201,11.7082,11.6511,11.6318,11.7207,11.7285,11.7594,11.8493,11.9296,11.9799,11.9799,12.0114,12.0295,12.0292,12.0706,12.0898,12.1015,12.1797,12.2187,12.2304,12.3086,12.3515,12.3593,12.4492,12.4883,12.5117,12.6718,12.7383,12.7383,12.8281,12.8593,12.8711,12.9492,13.039,13.1289,13.2109,13.2383,13.2383,13.2383,13.1914,13.1211,13.1211,13.1797,13.25,13.25,13.3086,13.3789,13.3789,13.3789,13.3789,13.3789,13.3789,13.4492,13.6914,13.75,13.789,13.8711,13.8906,13.8906,13.8906,13.8906,13.8906,13.8906,13.8906,13.8906,13.8906,13.8906,13.8906,13.8906,13.8904,13.89,13.89,13.8801,13.8819,13.8819,13.8797,13.8785,13.8785,13.8785,13.8785,13.8785,13.8785,13.8785,13.8785,13.8785,13.8785,13.8785,13.8785,13.8785,6.5107,7.2684,8.0569,8.63,9.2837,9.8601,10.1386,10.5796,10.9819,11.2217,11.4113,11.5505,11.5505,11.6395,11.6898,11.6008,11.5892,11.5389,11.3997,11.3803,11.3881,11.419,11.419,11.4616,11.5389,11.4809,11.4616,11.5505,11.508,11.5583,11.7517,11.7904,11.829,11.8793,11.9183,11.9204,11.9003,11.9086,11.9492,12.0117,12.039,12.1093,12.2187,12.25,12.3008,12.3515,12.3789,12.4297,12.4883,12.6601,12.7304,12.7383,12.8281,12.8593,12.8711,12.9609,13.0117,13.0508,13.1406,13.1718,13.1601,13.1015,13.0586,13.0312,12.9687,13.0508,13.1718,13.1718,13.2695,13.3789,13.3789,13.3789,13.3789,13.3789,13.3789,13.4218,13.5586,13.6797,13.7695,13.8007,13.8515,13.8906,13.8906,13.8906,13.8906,13.8906,13.8906,13.8906,13.8906,13.8906,13.8906,13.8906,13.8904,13.8901,13.8901,13.8803,13.878,13.878,13.8797,13.8785,13.8785,13.8785,13.8785,13.8785,13.8314,13.8197,13.8785,13.8785,13.8785,13.8785,13.8785,13.8785,6.0267,6.6301,7.2877,7.7751,8.4289,9.04,9.3804,9.9684,10.5216,10.8117,11.1211,11.3494,11.4113,11.4886,11.5621,11.5892,11.5892,11.5389,11.3881,11.3687,11.3803,11.4113,11.419,11.4499,11.5389,11.4693,11.4616,11.5389,11.4693,11.508,11.7091,11.7207,11.7493,11.8086,11.8403,11.8384,11.8209,11.8312,11.8593,11.9218,11.9492,12.0195,12.1289,12.1914,12.25,12.3086,12.3398,12.3789,12.4492,12.6211,12.6914,12.6992,12.8086,12.8593,12.8711,12.9883,13.0312,13.0508,13.1718,13.1914,13.1484,13.1015,13.039,12.9804,12.9218,13.0,13.1211,13.1211,13.25,13.3789,13.3789,13.3789,13.3789,13.3789,13.3789,13.3906,13.4492,13.5703,13.6797,13.7109,13.7617,13.8086,13.8398,13.8515,13.8593,13.8906,13.8906,13.8906,13.8906,13.8906,13.8906,13.8906,13.8905,13.8903,13.8903,13.8891,13.88,13.88,13.8815,13.8797,13.8797,13.879,13.8707,13.8392,13.7806,13.7611,13.7884,13.7884,13.808,13.8392,13.8392,13.8509,0.0,0.0,0.0,6.7843,7.4187,8.0691,8.4134,9.0942,9.7982,10.308,10.6415,10.9316,11.2681,11.272,11.2991,11.5389,11.5815,11.5505,11.4616,11.4499,11.4886,11.5699,11.5815,11.6201,11.7091,11.6395,11.6318,11.7091,11.6395,11.6201,11.7082,11.7207,11.7294,11.7581,11.7691,11.7885,11.8209,11.8312,11.8281,11.8281,11.9218,11.9609,11.9687,12.1406,12.2187,12.2187,12.3086,12.3515,12.3593,12.5312,12.6015,12.6211,12.789,12.8593,12.8789,13.0508,13.1211,13.1406,13.3203,13.3203,13.25,13.25,13.1406,13.0,12.9883,13.0508,13.1211,13.1211,13.25,13.3789,13.3789,13.3789,13.3789,13.3789,13.3789,13.3789,13.3789,13.4414,13.5195,13.6093,13.6289,13.6601,13.7382,13.7617,13.789,13.8711,13.8906,13.8906,13.8906,13.8906,13.8906,13.8906,13.8906,13.8906,13.8906,13.8904,13.8901,13.8901,13.8801,13.878,13.878,13.8797,13.8392,13.7494,13.7494,13.6986,13.6203,13.6203,13.6596,13.7494,13.7494,13.8002,5.2101,0.0,0.0,0.0,0.0,0.0,7.5198,8.3012,9.1406,9.8408,10.3901,10.8388,11.1792,11.33,11.3919,11.4113,11.4113,11.3687,11.2905,11.33,11.3803,11.3997,11.4616,11.5312,11.6201,11.6008,11.6008,11.6201,11.5505,11.5312,11.6201,11.6898,11.7294,11.7581,11.7691,11.7885,11.8209,11.8312,11.8281,11.8281,11.8515,11.8984,11.9609,12.0781,12.1601,12.2187,12.3086,12.3515,12.3593,12.5312,12.6015,12.6211,12.789,12.8593,12.8711,12.9804,13.0703,13.1406,13.25,13.3086,13.3281,13.2695,13.2187,13.1484,13.0312,13.0898,13.1992,13.1406,13.25,13.3789,13.3789,13.3789,13.3789,13.3789,13.3789,13.3789,13.3789,13.3984,13.4414,13.5195,13.5898,13.6406,13.6601,13.6718,13.6992,13.7812,13.8007,13.8203,13.8789,13.8906,13.8906,13.8906,13.8906,13.8906,13.8906,13.8904,13.8901,13.8901,13.8293,13.8194,13.878,13.8212,13.7689,13.7494,13.6908,13.6206,13.5308,13.5893,13.6281,13.6596,13.7182,13.8002,5.1409,5.3609,5.6085,5.7052,0.0,0.0,6.8236,7.5856,8.4134,9.04,9.6744,10.2315,10.6097,10.7614,10.8194,10.8086,10.8581,10.9896,11.2295,11.2991,11.3494,11.3803,11.4306,11.4886,11.5815,11.5892,11.6085,11.6395,11.6008,11.5892,11.6395,11.6898,11.7294,11.7581,11.7691,11.7885,11.8209,11.8312,11.8281,11.8281,11.8281,11.8593,11.9101,12.0312,12.1211,12.1718,12.3008,12.3515,12.3593,12.5312,12.6015,12.6211,12.789,12.8593,12.8711,13.0,13.0781,13.1406,13.2617,13.3398,13.3711,13.3203,13.2812,13.2187,13.0898,13.1406,13.2304,13.1406,13.25,13.3789,13.3789,13.3789,13.3789,13.3789,13.3789,13.3789,13.3789,13.3789,13.3906,13.4414,13.4883,13.539,13.5703,13.5781,13.6211,13.7382,13.7617,13.789,13.8789,13.8906,13.8906,13.8906,13.8906,13.8906,13.8906,13.8905,13.8904,13.8904,13.8112,13.7787,13.8296,13.7802,13.7199,13.6496,13.6289,13.562,13.4488,13.4917,13.55,13.6203,13.7104,13.8002,5.3076,5.5122,0.0,0.0,5.9721,0.0,6.2825,6.9208,7.6287,8.0852,8.7112,9.3062,9.751,9.84,9.864,9.922,10.0883,10.4597,11.1482,11.2681,11.3184,11.419,11.4383,11.4809,11.5505,11.5583,11.6008,11.6811,11.7014,11.7091,11.7207,11.7207,11.7294,11.7606,11.7714,11.7912,11.82,11.8309,11.8281,11.8281,11.8281,11.8281,11.8398,12.0117,12.0898,12.1015,12.2695,12.3515,12.3593,12.5312,12.6015,12.6211,12.789,12.8593,12.8789,13.039,13.1093,13.1406,13.3086,13.3711,13.3789,13.3789,13.3281,13.25,13.1484,13.1914,13.25,13.1718,13.2617,13.3789,13.3789,13.3789,13.3789,13.3789,13.3789,13.3789,13.3789,13.3789,13.3789,13.3789,13.3789,13.3984,13.4687,13.4883,13.539,13.7109,13.7304,13.7695,13.8593,13.8789,13.8789,13.8906,13.8906,13.8906,13.8906,13.8906,13.8906,13.8906,13.8084,13.7612,13.769,13.759,13.6711,13.519,13.5711,13.5188,13.3707,13.3707,13.4605,13.6203,13.6986,13.7884,5.7022,5.7834,5.8531,0.0,0.0,0.0,5.8522,6.2511,6.797,7.4347,7.995,8.5443,9.1097,9.2721,9.2799,9.1607,9.3966,9.8562,10.6105,10.8891,11.0786,11.2402,11.3184,11.361,11.3803,11.3803,11.419,11.5002,11.5815,11.6511,11.7207,11.7207,11.7299,11.7496,11.7605,11.7814,11.8099,11.8201,11.8312,11.8318,11.8281,11.8281,11.8398,12.0117,12.0898,12.1015,12.2695,12.3515,12.3593,12.5312,12.6015,12.6211,12.789,12.8593,12.8711,12.9804,13.0586,13.1289,13.2383,13.3203,13.3789,13.3789,13.3711,13.3281,13.1718,13.2304,13.3515,13.3281,13.3515,13.3789,13.3789,13.3789,13.3789,13.3789,13.3789,13.3789,13.3789,13.3789,13.3789,13.3789,13.3789,13.3789,13.3984,13.3984,13.4414,13.539,13.5508,13.6093,13.7695,13.789,13.8086,13.8789,13.8906,13.8906,13.8906,13.8906,13.8906,13.8906,13.8084,13.7885,13.8588,13.7317,13.64,13.6088,13.4813,13.402,13.3707,13.3707,13.4605,13.6203,13.6401,13.7299,6.0999,6.155,6.1818,6.1391,0.0,0.0,0.0,6.0385,6.435,6.8621,7.3546,7.8278,8.2084,8.3824,8.4289,8.3018,8.6036,9.0594,9.659,10.2585,10.7498,11.0391,11.1521,11.2217,11.2681,11.3107,11.3494,11.3881,11.4809,11.5389,11.5892,11.6704,11.7313,11.7415,11.7491,11.7697,11.7982,11.8119,11.8214,11.831,11.8319,11.8281,11.8398,12.0117,12.0898,12.1015,12.2695,12.3515,12.3593,12.5312,12.6015,12.6211,12.789,12.8593,12.8711,12.9609,13.0195,13.0703,13.1992,13.2812,13.3203,13.3711,13.3789,13.3593,13.2187,13.25,13.3203,13.3711,13.3789,13.3789,13.3789,13.3789,13.3789,13.3789,13.3789,13.3789,13.3789,13.3789,13.3789,13.3789,13.3789,13.3789,13.3789,13.3789,13.4101,13.4883,13.5,13.5586,13.7382,13.7617,13.789,13.8789,13.8906,13.8906,13.8906,13.8906,13.8906,13.8906,13.8085,13.7811,13.8201,13.6981,13.6109,13.571,13.4412,13.3698,13.3687,13.3687,13.4617,13.6203,13.6203,13.7104,0.0,0.0,0.0,0.0,0.0,6.0573,0.0,0.0,0.0,6.3804,6.7662,7.1162,7.2651,7.4193,7.4972,7.4082,7.768,8.2051,8.63,9.4037,10.1386,10.7111,10.862,10.9393,11.0313,11.1289,11.1985,11.2295,11.3107,11.3803,11.4306,11.6008,11.7016,11.7096,11.7397,11.7601,11.7912,11.7885,11.8092,11.829,11.8314,11.8398,11.8593,12.0195,12.1015,12.1211,12.2812,12.3515,12.3593,12.5117,12.5898,12.6211,12.789,12.8593,12.8711,12.9609,12.9883,13.0117,13.1914,13.25,13.2617,13.3515,13.3711,13.3398,13.289,13.25,13.2383,13.3281,13.3398,13.3281,13.3515,13.3515,13.3593,13.3789,13.3789,13.3789,13.3789,13.3789,13.3789,13.3789,13.3789,13.3789,13.3789,13.3789,13.3984,13.4687,13.4804,13.5312,13.6914,13.7109,13.75,13.8515,13.8593,13.8711,13.8906,13.8906,13.8906,13.8906,13.8203,13.789,13.789,13.6912,13.5811,13.4784,13.4081,13.3683,13.3704,13.3704,13.459,13.6203,13.6203,13.7104,0.0,0.0,0.0,0.0,6.3237,0.0,0.0,0.0,5.9473,6.037,0.0,6.3933,6.4817,0.0,0.0,6.5262,6.9324,7.4121,7.837,8.2516,8.9208,10.0311,10.2392,10.3282,10.4094,10.5603,10.7189,10.8813,10.9587,11.1095,11.33,11.5118,11.6091,11.6193,11.6988,11.7511,11.7695,11.7795,11.8009,11.8104,11.8208,11.8701,11.9489,12.0507,12.1289,12.2109,12.3086,12.3515,12.3593,12.4492,12.539,12.6211,12.789,12.8593,12.8711,12.9609,12.9883,13.0117,13.1914,13.25,13.2617,13.3515,13.3281,13.2812,13.3398,13.2617,13.1484,13.2383,13.2109,13.1718,13.2383,13.2617,13.2812,13.3593,13.3789,13.3789,13.3789,13.3789,13.3789,13.3789,13.3789,13.3789,13.3789,13.3789,13.3789,13.3906,13.3906,13.4297,13.5195,13.5312,13.5898,13.7617,13.7695,13.8086,13.8789,13.8906,13.8906,13.8906,13.8789,13.8789,13.8789,13.7185,13.5499,13.3887,13.3807,13.3683,13.3704,13.3704,13.459,13.6203,13.6203,13.7104,0.0,0.0,0.0,0.0,0.0,0.0,0.0,0.0,6.0365,0.0,0.0,0.0,0.0,0.0,0.0,0.0,6.5476,6.9595,7.2881,7.541,8.1186,9.2574,9.512,9.7286,10.0613,10.2005,10.3282,10.4481,10.5796,10.7691,11.0283,11.3919,11.591,11.5906,11.6801,11.739,11.7511,11.7614,11.7794,11.8002,11.808,11.8601,11.9598,12.0506,12.1406,12.2187,12.3086,12.3515,12.3593,12.4414,12.5,12.5508,12.7187,12.8203,12.8593,12.8984,12.9101,12.9414,13.1093,13.1718,13.1992,13.3398,13.3593,13.3203,13.3086,13.25,13.1914,13.1797,13.1484,13.1406,13.2304,13.25,13.2695,13.3593,13.3789,13.3789,13.3789,13.3789,13.3789,13.3789,13.3789,13.3789,13.3789,13.3789,13.3789,13.3789,13.3789,13.4101,13.4883,13.5,13.5703,13.7382,13.7617,13.8007,13.8789,13.8906,13.8906,13.8906,13.8906,13.8398,13.7382,13.6718,13.5506,13.3785,13.3785,13.3703,13.3693,13.3693,13.4585,13.6285,13.6218,13.7104,8.0746,0.0,0.0,0.0,0.0,0.0,0.0,0.0,0.0,0.0,0.0,0.0,0.0,0.0,0.0,0.0,0.0,6.584,6.8135,6.928,7.3795,8.4379,8.8002,9.1251,9.5422,9.7247,9.8717,9.9994,10.1309,10.3514,10.6995,11.1405,11.419,11.5196,11.6008,11.6783,11.7406,11.739,11.7601,11.7917,11.8012,11.8491,11.9508,12.0505,12.1406,12.2187,12.3086,12.3515,12.3515,12.4218,12.4609,12.4883,12.6406,12.75,12.8281,12.8515,12.8593,12.8789,13.0586,13.1484,13.2109,13.3398,13.3593,13.3281,13.2695,13.2187,13.1718,13.1015,13.0703,13.0703,13.1601,13.1797,13.2109,13.3203,13.3398,13.3515,13.3711,13.3789,13.3789,13.3789,13.3789,13.3789,13.3789,13.3789,13.3789,13.3789,13.3789,13.3984,13.4609,13.4687,13.5195,13.6718,13.7109,13.7617,13.8515,13.8789,13.8906,13.8906,13.8906,13.8203,13.6718,13.6718,13.5898,13.4218,13.4101,13.3984,13.3706,13.3706,13.4599,13.6306,13.6281,13.7204,0.0,0.0,0.0,7.4882,0.0,0.0,0.0,0.0,6.2368,0.0,0.0,0.0,0.0,0.0,0.0,0.0,0.0,0.0,0.0,6.3343,6.6283,7.568,8.1271,8.5062,8.6835,9.0014,9.3031,9.5506,9.5739,9.833,10.421,10.7111,11.0098,11.3386,11.4306,11.5519,11.7316,11.7406,11.7493,11.7803,11.7888,11.8486,11.9493,12.0504,12.1406,12.2187,12.3086,12.3515,12.3515,12.3515,12.3984,12.4883,12.5703,12.6601,12.7383,12.8281,12.8593,12.8789,13.0586,13.2304,13.3711,13.3789,13.3203,13.25,13.25,13.1289,13.0,12.9883,12.9297,12.8906,12.9804,13.0,13.039,13.2109,13.25,13.2812,13.3593,13.3789,13.3789,13.3789,13.3789,13.3789,13.3789,13.3789,13.3789,13.3789,13.3789,13.3789,13.3789,13.3789,13.4218,13.5,13.5781,13.6718,13.7617,13.8398,13.8906,13.8906,13.8906,13.8515,13.7617,13.7617,13.6718,13.5,13.5,13.4491,13.3706,13.3706,13.4599,13.6307,13.6306,13.7204,0.0,0.0,8.4937,8.2061,0.0,0.0,0.0,0.0,0.0,0.0,0.0,0.0,0.0,0.0,0.0,0.0,0.0,0.0,0.0,6.2222,6.2969,6.6693,7.3187,7.8022,7.9685,8.4482,8.7809,8.8698,9.0865,9.423,9.9104,10.4017,10.7885,11.0709,11.33,11.4904,11.5519,11.6087,11.6508,11.6817,11.6899,11.7885,11.9514,11.9916,12.0781,12.2187,12.25,12.3008,12.3515,12.3515,12.3711,12.4101,12.5508,12.6211,12.6601,12.8086,12.8593,12.8789,12.9883,13.1484,13.2812,13.2304,13.2304,13.2304,13.1093,13.039,12.9804,12.9218,12.8789,12.8789,12.9687,12.9883,13.0312,13.2109,13.25,13.2695,13.3593,13.3789,13.3789,13.3789,13.3789,13.3789,13.3789,13.3789,13.3789,13.3789,13.3789,13.3789,13.3789,13.3789,13.4101,13.4883,13.5312,13.6015,13.75,13.8398,13.8906,13.8906,13.8906,13.8515,13.7617,13.7617,13.6797,13.5,13.5,13.4609,13.3788,13.3788,13.4608,13.6286,13.6286,13.7181,9.6841,9.4402,0.0,8.8637,8.5123,0.0,7.7268,0.0,0.0,0.0,0.0,0.0,0.0,0.0,0.0,0.0,0.0,0.0,0.0,5.9758,5.9721,6.0925,6.7036,7.1949,7.3927,7.8989,8.2393,8.3012,8.5372,8.9163,9.4694,9.98,10.4403,10.8504,11.2217,11.4285,11.459,11.5506,11.6089,11.639,11.651,11.742,11.9085,11.9408,12.039,12.1797,12.2109,12.2695,12.3515,12.3515,12.3515,12.3711,12.5312,12.6015,12.6211,12.8008,12.8789,12.9101,12.9687,13.0781,13.1914,13.1406,13.1406,13.1406,13.0195,12.9687,12.9297,12.8789,12.8593,12.8711,12.9297,12.9414,12.9804,13.1211,13.1601,13.1914,13.3086,13.3281,13.3398,13.3711,13.3789,13.3789,13.3789,13.3789,13.3789,13.3789,13.3789,13.3789,13.3789,13.3789,13.3984,13.4492,13.4804,13.5586,13.6992,13.789,13.8398,13.8398,13.8711,13.8593,13.8086,13.8086,13.7187,13.5508,13.5508,13.4883,13.3789,13.3789,13.4687,13.6289,13.6289,13.7186]}]]